[[{"header":{"parameterUnit":"m.s-1","parameterCategory":1,"la1":30.6,"la2":29.2853,"lo1":-89.7004,"lo2":-87.6739,"dy":0.0162,"dx":0.0183,"nx":112,"ny":82,"refTime":"2023-10-14T00:00:00:Z","depth":0,"parameterNumber":2,"parameterNumberName":"U-component_of_WINDS"},"data":[0.0,0.0,0.0,0.0,0.0,0.0,0.0,0.0,0.0,0.0,0.0,0.0,0.0,0.0,0.0,0.0,0.0,0.0,0.0,0.0,0.0,0.0,0.0,0.0,0.0,0.0,0.0,0.0,0.0,0.0,0.0,0.0,0.0,0.0,0.0,0.0,0.0,0.0,0.0,0.0,0.0,0.0,0.0,0.0,0.0,0.0,0.0,0.0,0.0,0.0,0.0,0.0,0.0,0.0,0.0,0.0,0.0,0.0,0.0,0.0,0.0,0.0,0.0,0.0,0.0,0.0,0.0,0.0,0.0,0.0,0.0,0.0,0.0,0.0,0.0,0.0,0.0,0.0,0.0,0.0,0.0,0.0,0.0,0.0,0.0,0.0,0.0,0.0,0.0,0.0,0.0,5.0202,5.9201,6.5677,6.7403,6.8426,6.5019,5.5598,0.0,0.0,0.0,0.0,0.0,0.0,0.0,0.0,0.0,0.0,0.0,0.0,0.0,0.0,0.0,0.0,0.0,0.0,0.0,0.0,0.0,0.0,0.0,0.0,0.0,0.0,0.0,0.0,0.0,0.0,0.0,0.0,0.0,0.0,0.0,0.0,0.0,0.0,0.0,0.0,0.0,0.0,0.0,0.0,0.0,0.0,0.0,0.0,0.0,0.0,0.0,0.0,0.0,0.0,0.0,0.0,0.0,0.0,0.0,0.0,0.0,0.0,0.0,0.0,0.0,0.0,0.0,0.0,0.0,0.0,0.0,0.0,0.0,0.0,0.0,0.0,0.0,0.0,0.0,0.0,0.0,0.0,0.0,0.0,0.0,0.0,0.0,0.0,0.0,0.0,0.0,0.0,0.0,0.0,0.0,0.0,0.0,0.0,0.0,0.0,0.0,0.0,0.0,0.0,4.8037,5.6596,6.2888,6.7706,7.067,6.8169,6.4084,5.8524,0.0,0.0,0.0,0.0,0.0,0.0,0.0,0.0,0.0,0.0,0.0,0.0,0.0,0.0,0.0,0.0,0.0,0.0,0.0,0.0,0.0,0.0,0.0,0.0,0.0,0.0,0.0,0.0,0.0,0.0,0.0,0.0,0.0,0.0,0.0,0.0,0.0,0.0,0.0,0.0,0.0,0.0,0.0,0.0,0.0,0.0,0.0,0.0,0.0,0.0,0.0,0.0,0.0,0.0,0.0,0.0,0.0,0.0,0.0,0.0,0.0,0.0,0.0,0.0,0.0,0.0,0.0,0.0,0.0,0.0,0.0,0.0,0.0,0.0,0.0,0.0,0.0,0.0,0.0,0.0,0.0,0.0,0.0,0.0,0.0,0.0,0.0,0.0,0.0,0.0,0.0,0.0,0.0,0.0,0.0,0.0,0.0,0.0,0.0,0.0,0.0,0.0,0.0,4.6413,5.0676,5.8727,6.3937,6.7993,7.0845,6.8278,6.4392,5.9219,5.6128,0.0,0.0,0.0,0.0,0.0,0.0,0.0,0.0,0.0,0.0,0.0,0.0,0.0,0.0,0.0,0.0,0.0,0.0,0.0,0.0,0.0,0.0,0.0,0.0,0.0,0.0,0.0,0.0,0.0,0.0,0.0,0.0,0.0,0.0,0.0,0.0,0.0,0.0,0.0,0.0,0.0,0.0,0.0,0.0,0.0,0.0,0.0,0.0,0.0,0.0,0.0,0.0,0.0,0.0,0.0,0.0,0.0,0.0,0.0,0.0,0.0,0.0,0.0,0.0,0.0,0.0,0.0,0.0,0.0,0.0,0.0,0.0,0.0,0.0,0.0,0.0,0.0,0.0,0.0,0.0,0.0,0.0,0.0,0.0,0.0,0.0,0.0,0.0,0.0,0.0,0.0,0.0,0.0,0.0,0.0,0.0,0.0,0.0,0.0,0.0,0.0,0.0,4.9782,5.3518,5.9708,6.4241,6.7789,7.0164,6.7438,6.3654,5.8932,5.45,0.0,0.0,0.0,0.0,0.0,0.0,0.0,0.0,0.0,0.0,0.0,0.0,0.0,0.0,0.0,0.0,0.0,0.0,0.0,0.0,0.0,0.0,0.0,0.0,0.0,0.0,0.0,0.0,0.0,0.0,0.0,0.0,0.0,0.0,0.0,0.0,0.0,0.0,0.0,0.0,0.0,0.0,0.0,0.0,0.0,0.0,0.0,0.0,0.0,0.0,0.0,0.0,0.0,0.0,0.0,0.0,0.0,0.0,0.0,0.0,0.0,0.0,0.0,0.0,0.0,0.0,0.0,0.0,0.0,0.0,0.0,0.0,0.0,0.0,0.0,0.0,0.0,0.0,0.0,0.0,0.0,0.0,0.0,0.0,0.0,0.0,0.0,0.0,0.0,0.0,0.0,0.0,0.0,0.0,0.0,0.0,0.0,0.0,0.0,0.0,0.0,0.0,5.1657,5.6055,6.0723,6.458,6.7584,6.9436,6.4603,6.0441,5.7999,5.2098,0.0,0.0,0.0,0.0,0.0,0.0,0.0,0.0,0.0,0.0,0.0,0.0,0.0,0.0,0.0,0.0,0.0,0.0,0.0,0.0,0.0,0.0,0.0,0.0,0.0,0.0,0.0,0.0,0.0,0.0,0.0,0.0,0.0,0.0,0.0,0.0,0.0,0.0,0.0,0.0,0.0,0.0,0.0,0.0,0.0,0.0,0.0,0.0,0.0,0.0,0.0,0.0,0.0,0.0,0.0,0.0,0.0,0.0,0.0,0.0,0.0,0.0,0.0,0.0,0.0,0.0,0.0,0.0,0.0,0.0,0.0,0.0,0.0,0.0,0.0,0.0,0.0,0.0,0.0,0.0,0.0,0.0,0.0,0.0,0.0,0.0,0.0,0.0,0.0,0.0,0.0,0.0,0.0,0.0,0.0,0.0,0.0,0.0,0.0,0.0,0.0,0.0,5.0419,5.5108,0.0,6.3903,6.7249,7.0108,6.6039,6.2204,5.9583,0.0,0.0,0.0,0.0,0.0,0.0,0.0,0.0,0.0,0.0,0.0,0.0,0.0,0.0,0.0,0.0,0.0,0.0,0.0,0.0,0.0,0.0,0.0,0.0,0.0,0.0,0.0,0.0,0.0,0.0,0.0,0.0,0.0,0.0,0.0,0.0,0.0,0.0,0.0,0.0,0.0,0.0,0.0,0.0,0.0,0.0,0.0,0.0,0.0,0.0,0.0,0.0,0.0,0.0,0.0,0.0,0.0,0.0,0.0,0.0,0.0,0.0,0.0,0.0,0.0,0.0,0.0,0.0,0.0,0.0,0.0,0.0,0.0,0.0,0.0,0.0,0.0,0.0,0.0,0.0,0.0,0.0,0.0,0.0,0.0,0.0,0.0,0.0,0.0,0.0,0.0,0.0,0.0,0.0,0.0,0.0,0.0,0.0,0.0,0.0,0.0,0.0,4.5924,5.0051,5.4634,0.0,6.326,6.6394,6.906,6.5054,6.1412,5.8942,0.0,0.0,0.0,0.0,0.0,0.0,0.0,0.0,0.0,0.0,0.0,0.0,0.0,0.0,0.0,0.0,0.0,0.0,0.0,0.0,0.0,0.0,0.0,0.0,0.0,0.0,0.0,0.0,0.0,0.0,0.0,0.0,0.0,0.0,0.0,0.0,0.0,0.0,0.0,0.0,0.0,0.0,0.0,0.0,0.0,0.0,0.0,0.0,0.0,0.0,0.0,0.0,0.0,0.0,0.0,0.0,0.0,0.0,0.0,0.0,0.0,0.0,0.0,0.0,0.0,0.0,0.0,0.0,0.0,0.0,0.0,0.0,0.0,0.0,0.0,0.0,0.0,0.0,0.0,0.0,0.0,0.0,0.0,0.0,0.0,0.0,0.0,0.0,0.0,0.0,0.0,0.0,0.0,0.0,0.0,0.0,0.0,0.0,0.0,0.0,0.0,0.0,4.7428,5.1183,5.5175,5.9607,6.2787,6.4914,6.5821,6.0831,5.6988,0.0,0.0,0.0,0.0,0.0,0.0,0.0,0.0,0.0,0.0,0.0,0.0,0.0,0.0,0.0,0.0,0.0,0.0,0.0,0.0,0.0,0.0,0.0,0.0,0.0,0.0,0.0,0.0,0.0,0.0,0.0,0.0,0.0,0.0,0.0,0.0,0.0,0.0,0.0,0.0,0.0,0.0,0.0,0.0,0.0,0.0,0.0,0.0,0.0,0.0,0.0,0.0,0.0,0.0,0.0,0.0,0.0,0.0,0.0,0.0,0.0,0.0,0.0,0.0,0.0,0.0,0.0,0.0,0.0,0.0,0.0,0.0,0.0,0.0,0.0,0.0,0.0,0.0,0.0,0.0,0.0,0.0,0.0,0.0,0.0,0.0,0.0,0.0,0.0,0.0,0.0,0.0,0.0,0.0,0.0,0.0,0.0,0.0,0.0,0.0,0.0,0.0,0.0,4.6718,5.0371,5.4363,5.8863,6.1569,6.3863,6.5865,6.1958,5.8779,5.7316,0.0,0.0,0.0,0.0,0.0,0.0,0.0,0.0,0.0,0.0,0.0,0.0,0.0,0.0,0.0,0.0,0.0,0.0,0.0,0.0,0.0,0.0,0.0,0.0,0.0,0.0,0.0,0.0,0.0,0.0,0.0,0.0,0.0,0.0,0.0,0.0,0.0,0.0,0.0,0.0,0.0,0.0,0.0,0.0,0.0,0.0,0.0,0.0,0.0,0.0,0.0,0.0,0.0,0.0,0.0,0.0,0.0,0.0,0.0,0.0,0.0,0.0,0.0,0.0,0.0,0.0,0.0,0.0,0.0,0.0,0.0,0.0,0.0,0.0,0.0,0.0,0.0,0.0,0.0,0.0,0.0,0.0,0.0,0.0,0.0,0.0,0.0,0.0,0.0,0.0,0.0,0.0,0.0,0.0,0.0,0.0,0.0,0.0,0.0,0.0,0.0,0.0,4.6413,4.9763,5.3484,5.7679,6.0419,6.2597,6.4112,6.1712,5.8957,5.6284,0.0,0.0,0.0,0.0,0.0,0.0,0.0,0.0,0.0,0.0,0.0,0.0,0.0,0.0,0.0,0.0,0.0,0.0,0.0,0.0,0.0,0.0,0.0,0.0,0.0,0.0,0.0,0.0,0.0,0.0,0.0,0.0,0.0,0.0,0.0,0.0,0.0,0.0,0.0,0.0,0.0,0.0,0.0,0.0,0.0,0.0,0.0,0.0,0.0,0.0,0.0,0.0,0.0,0.0,0.0,0.0,0.0,0.0,0.0,0.0,0.0,0.0,0.0,0.0,0.0,0.0,0.0,0.0,0.0,0.0,0.0,0.0,0.0,0.0,0.0,0.0,0.0,0.0,0.0,0.0,0.0,0.0,0.0,0.0,0.0,0.0,0.0,0.0,0.0,0.0,0.0,0.0,0.0,0.0,0.0,0.0,0.0,0.0,0.0,0.0,0.0,0.0,4.6515,4.9357,5.257,5.6393,5.9302,6.1068,6.1328,6.0504,5.8013,5.3576,0.0,0.0,0.0,0.0,0.0,0.0,0.0,0.0,0.0,0.0,0.0,0.0,0.0,0.0,0.0,0.0,0.0,0.0,0.0,0.0,0.0,0.0,0.0,0.0,0.0,0.0,0.0,0.0,0.0,0.0,0.0,0.0,0.0,0.0,0.0,0.0,0.0,0.0,0.0,0.0,0.0,0.0,0.0,0.0,0.0,0.0,0.0,0.0,0.0,0.0,0.0,0.0,0.0,0.0,0.0,0.0,0.0,0.0,0.0,0.0,4.3809,0.0,0.0,0.0,0.0,0.0,0.0,0.0,0.0,0.0,0.0,0.0,0.0,0.0,0.0,0.0,0.0,0.0,0.0,0.0,0.0,0.0,0.0,0.0,0.0,0.0,0.0,0.0,0.0,0.0,0.0,0.0,0.0,0.0,0.0,0.0,0.0,0.0,0.0,0.0,0.0,0.0,4.7225,4.9221,5.1995,5.6325,5.7881,5.9166,6.0463,5.9207,5.7149,5.4295,0.0,0.0,0.0,0.0,0.0,0.0,0.0,0.0,0.0,0.0,0.0,0.0,0.0,0.0,0.0,0.0,0.0,0.0,0.0,0.0,0.0,0.0,0.0,0.0,0.0,0.0,0.0,0.0,0.0,0.0,0.0,0.0,0.0,0.0,0.0,0.0,0.0,0.0,0.0,0.0,0.0,0.0,0.0,0.0,0.0,0.0,0.0,0.0,0.0,0.0,0.0,0.0,0.0,0.0,0.0,0.0,0.0,0.0,0.0,0.0,0.0,4.622,0.0,0.0,0.0,0.0,0.0,0.0,0.0,0.0,0.0,0.0,0.0,0.0,0.0,0.0,0.0,0.0,0.0,0.0,0.0,0.0,0.0,0.0,0.0,0.0,0.0,0.0,0.0,0.0,0.0,0.0,0.0,0.0,0.0,0.0,0.0,0.0,0.0,0.0,0.0,0.0,4.7428,4.9187,5.1555,5.5344,5.7036,5.8099,5.8597,5.891,5.7706,5.4528,5.2436,0.0,0.0,0.0,0.0,0.0,0.0,0.0,0.0,0.0,0.0,0.0,0.0,0.0,0.0,0.0,0.0,0.0,0.0,0.0,0.0,0.0,0.0,0.0,0.0,0.0,0.0,0.0,0.0,0.0,0.0,0.0,0.0,0.0,0.0,0.0,0.0,0.0,0.0,0.0,0.0,0.0,0.0,0.0,0.0,0.0,0.0,0.0,0.0,0.0,0.0,0.0,0.0,0.0,0.0,0.0,5.8957,5.8307,5.828,5.8528,5.4878,5.1507,4.873,0.0,0.0,0.0,0.0,0.0,0.0,0.0,0.0,0.0,0.0,0.0,0.0,0.0,0.0,0.0,0.0,0.0,0.0,0.0,0.0,0.0,0.0,0.0,0.0,0.0,4.912,4.8477,0.0,0.0,0.0,0.0,0.0,0.0,0.0,0.0,0.0,0.0,0.0,0.0,4.7462,4.9187,5.1251,5.4262,5.6224,5.7137,5.6664,5.8542,5.8189,5.4578,5.3628,5.1573,0.0,0.0,0.0,0.0,0.0,0.0,0.0,0.0,0.0,0.0,0.0,0.0,0.0,0.0,0.0,0.0,0.0,0.0,0.0,0.0,0.0,0.0,0.0,0.0,0.0,0.0,0.0,0.0,0.0,0.0,0.0,0.0,4.188,4.1982,0.0,0.0,0.0,0.0,0.0,0.0,0.0,0.0,0.0,0.0,0.0,0.0,0.0,0.0,5.6393,5.7983,5.9268,6.0283,6.1028,6.2043,6.3167,6.3098,6.4288,6.6337,6.5776,0.0,5.2631,5.136,0.0,0.0,0.0,0.0,0.0,0.0,0.0,0.0,0.0,0.0,0.0,0.0,0.0,0.0,0.0,0.0,0.0,0.0,0.0,0.0,0.0,0.0,5.0338,4.8511,4.9526,5.0439,0.0,4.7428,4.6244,4.4857,0.0,0.0,0.0,0.0,0.0,0.0,0.0,0.0,4.7597,4.9187,5.1251,5.4262,5.4837,5.5243,5.5818,5.6767,5.6516,5.4529,5.3628,5.2344,5.0398,4.882,0.0,0.0,0.0,0.0,0.0,0.0,0.0,0.0,0.0,0.0,0.0,0.0,0.0,0.0,0.0,0.0,0.0,0.0,0.0,0.0,0.0,0.0,0.0,0.0,0.0,0.0,0.0,0.0,0.0,4.3944,4.5737,4.3234,4.5365,4.5974,0.0,0.0,0.0,0.0,0.0,0.0,0.0,0.0,0.0,5.636,5.8393,6.0287,6.1937,6.4277,6.6067,6.7226,6.8395,6.9758,7.1255,7.1713,7.2501,7.3545,7.3011,6.9975,6.4934,5.9442,5.6206,5.446,0.0,0.0,0.0,0.0,0.0,5.1251,5.2469,0.0,0.0,0.0,0.0,0.0,0.0,0.0,0.0,0.0,0.0,0.0,0.0,0.0,0.0,5.1995,5.3044,5.3856,5.1961,5.0338,4.8714,0.0,4.5568,4.4823,4.4823,0.0,0.0,0.0,0.0,0.0,4.8139,4.9424,5.1082,5.3687,5.4329,5.4735,5.504,5.6593,5.7046,5.5914,5.5015,5.3849,5.2234,5.0141,4.8967,0.0,0.0,0.0,0.0,0.0,0.0,0.0,0.0,0.0,0.0,0.0,0.0,0.0,0.0,0.0,0.0,0.0,0.0,0.0,0.0,0.0,0.0,0.0,0.0,0.0,0.0,0.0,0.0,4.6853,4.8917,4.5026,4.8206,4.9086,0.0,0.0,0.0,0.0,0.0,0.0,5.4126,5.6064,5.8943,6.3102,6.5758,6.7758,6.9052,7.1427,7.3352,7.4636,7.5755,7.7238,7.9043,7.965,8.0054,8.0283,7.9243,7.8135,7.6451,6.7619,6.2803,6.0784,5.7316,5.5952,5.5957,5.636,5.6136,5.5826,5.7535,5.7501,5.6577,5.6095,0.0,5.2554,5.0339,0.0,0.0,0.0,0.0,5.2198,5.2739,0.0,5.619,5.5818,5.6697,5.7103,5.5074,5.3721,5.1995,0.0,4.7428,4.6786,4.6786,0.0,0.0,0.0,0.0,4.5635,4.8612,4.9796,5.1183,5.3281,5.3991,5.4329,5.4329,5.6272,5.7246,5.6644,5.6187,5.528,5.3885,5.1683,5.0215,4.9591,0.0,0.0,0.0,0.0,0.0,0.0,0.0,0.0,0.0,0.0,0.0,0.0,0.0,0.0,0.0,0.0,0.0,0.0,0.0,0.0,0.0,0.0,0.0,0.0,0.0,0.0,0.0,0.0,0.0,4.797,5.2232,0.0,0.0,0.0,0.0,5.2942,5.4431,5.6562,5.9539,6.222,6.5677,7.0279,7.3593,7.6707,7.9684,8.0572,8.1342,8.2158,8.2229,8.3263,8.4953,8.499,8.559,8.6453,8.4877,8.4211,8.3338,7.3478,6.8161,6.6011,6.347,6.2565,6.2602,6.1961,6.1588,6.1359,6.1671,6.0614,5.9482,6.1757,6.0381,5.7339,5.505,5.3832,0.0,0.0,5.3247,5.4431,5.4465,5.6122,5.7949,5.8626,5.937,5.9505,5.8017,5.7611,5.5852,0.0,4.7767,4.6786,4.6786,0.0,4.6312,4.5771,4.6853,4.8003,4.8883,5.027,5.1758,5.3348,5.3551,5.3551,5.3551,5.4922,5.5794,5.5759,5.6405,5.6345,5.55,5.3922,5.3004,5.2968,5.1463,0.0,0.0,0.0,0.0,0.0,0.0,0.0,0.0,0.0,0.0,0.0,0.0,0.0,0.0,0.0,0.0,0.0,0.0,0.0,0.0,0.0,0.0,0.0,0.0,0.0,0.0,0.0,0.0,5.4363,5.8524,0.0,0.0,5.5344,5.6359,5.8389,6.0587,6.3496,6.7453,7.0664,7.4319,7.8584,8.0897,8.2809,8.4385,8.5175,8.5678,8.5885,8.5885,8.6619,8.7961,8.7961,8.8215,8.85,8.7399,8.6628,8.582,8.1197,7.7039,7.3117,6.9133,6.731,6.6895,6.6546,6.6018,6.5679,6.6759,6.6341,6.5114,6.3591,6.1645,5.9557,5.7718,5.7268,5.7359,5.6902,5.791,5.8908,5.8337,6.0262,6.211,6.0868,6.1952,6.2891,6.1355,6.0656,5.9604,5.6912,5.2785,4.9796,5.027,4.8376,4.7192,4.8342,4.8578,4.9052,5.027,5.1285,5.2334,5.3382,5.3518,5.3651,5.4171,5.5084,5.5679,5.5704,5.6394,5.6198,5.4876,5.3775,5.2711,5.1683,5.1096,5.0802,0.0,0.0,0.0,0.0,0.0,0.0,0.0,0.0,0.0,0.0,0.0,0.0,0.0,0.0,0.0,0.0,0.0,0.0,0.0,0.0,0.0,0.0,0.0,0.0,0.0,0.0,5.9607,6.008,6.4343,6.5997,6.2897,6.2871,6.4057,6.6436,6.8688,7.1622,7.5323,7.8306,8.1367,8.46,8.6314,8.7554,8.8277,8.8822,8.9076,8.9076,8.9076,8.9492,9.0225,9.0225,9.0225,9.0188,8.9381,8.872,8.8096,8.6481,8.3765,8.0131,7.5579,7.3324,7.2569,7.2216,7.1348,7.0507,7.1225,7.1179,7.026,6.7256,6.5226,6.3717,6.239,6.1998,6.1858,6.1717,6.2431,6.3031,6.2361,6.393,6.5372,6.3869,6.4524,6.5101,6.3889,6.3002,6.2151,6.1061,5.7157,5.388,5.3507,5.1468,5.0159,5.1064,5.0823,5.0926,5.22,5.2569,5.3028,5.3813,5.3685,5.3783,5.4544,5.5262,5.5577,5.531,5.5978,5.5684,5.4069,5.3482,5.2711,5.1646,5.1353,5.1059,5.0802,0.0,0.0,0.0,0.0,0.0,0.0,0.0,0.0,0.0,0.0,0.0,0.0,0.0,0.0,0.0,0.0,0.0,0.0,0.0,0.0,0.0,0.0,0.0,5.2638,5.9641,6.4749,6.4918,6.9485,7.1913,7.0228,7.2046,7.4447,7.7103,7.8746,8.0519,8.2785,8.4643,8.6376,8.7854,8.9751,9.1069,9.184,9.1877,9.1877,9.1877,9.184,9.184,9.1877,9.1803,9.1803,9.1803,9.0996,9.0629,9.0482,8.8904,8.7802,8.6701,8.2663,8.0608,7.9764,7.8956,7.7531,7.5855,7.4993,7.4861,7.4771,7.3156,7.155,7.0129,6.9369,6.794,6.6612,6.6612,6.6545,6.6443,6.6408,6.694,6.7508,6.7472,6.6904,6.6159,6.5409,6.4599,6.3605,6.2044,6.0615,5.8804,5.6369,5.5907,5.534,5.385,5.3602,0.0,5.454,5.3999,5.3871,5.4599,5.4011,5.3915,5.4641,5.532,5.5382,5.4553,5.5149,5.4766,5.3188,5.3151,5.3151,5.3188,5.2417,5.161,5.0839,0.0,0.0,0.0,0.0,0.0,0.0,0.0,0.0,0.0,0.0,0.0,0.0,0.0,0.0,0.0,0.0,0.0,0.0,0.0,0.0,0.0,0.0,6.0825,6.0486,6.4241,6.8402,7.2191,7.5371,7.7434,7.7805,7.8379,7.967,8.1804,8.361,8.5369,8.7088,8.8426,8.9642,9.0666,9.1803,9.2537,9.2758,9.3308,9.3602,9.3602,9.3015,9.3051,9.3565,9.2354,9.2134,9.2684,9.184,9.1143,9.0592,9.0115,8.9491,8.8426,8.4939,8.2774,8.1415,8.0645,7.9673,7.8601,7.7797,7.7558,7.7304,7.5652,7.4799,7.4287,7.3483,7.2924,7.2289,7.1067,7.0692,7.0207,6.846,6.9015,6.98,6.865,6.9126,6.9514,6.8131,6.7658,6.704,6.5495,6.484,6.32,5.9064,5.7375,5.6454,5.6028,5.5497,0.0,5.537,5.5235,5.5402,5.6177,5.6104,5.6282,5.7061,5.6241,5.536,5.4456,5.3506,5.2527,5.1499,5.1463,5.172,5.2307,5.2087,5.1867,0.0,0.0,0.0,0.0,0.0,0.0,0.0,0.0,0.0,0.0,0.0,0.0,0.0,0.0,0.0,0.0,0.0,0.0,0.0,0.0,0.0,0.0,6.3294,6.7658,6.9755,7.1244,7.3578,7.757,8.004,8.2235,8.4319,8.4817,8.5888,8.7996,8.9175,9.0175,9.1084,9.1801,9.2354,9.2831,9.3345,9.3602,9.3602,9.4079,9.4299,9.4299,9.3822,9.3675,9.3749,9.2794,9.2427,0.0,9.2024,9.1546,9.1106,9.1106,9.0629,0.0,0.0,0.0,0.0,0.0,8.0277,7.9213,7.8772,7.8369,7.7892,7.6937,7.6607,7.6533,7.6056,7.5689,7.5165,7.4186,7.366,7.3062,7.1637,7.1938,7.2387,7.115,7.1363,7.1468,7.0183,6.9376,6.8531,6.7247,0.0,0.0,6.1948,6.0231,5.9042,5.8016,5.7477,5.7045,5.6721,5.6421,5.6347,5.6866,5.6624,5.6736,5.751,5.6443,0.0,0.0,0.0,5.2123,5.1353,5.1316,0.0,0.0,0.0,5.2491,5.2491,0.0,0.0,0.0,5.1639,5.1004,0.0,0.0,0.0,0.0,0.0,0.0,0.0,0.0,0.0,0.0,0.0,0.0,0.0,0.0,0.0,0.0,6.9354,7.3651,7.9223,7.9692,7.9998,8.1426,8.3561,8.6199,8.9456,9.0424,9.1828,9.4222,9.4336,9.4336,9.441,0.0,0.0,0.0,0.0,9.4446,9.4446,9.452,9.4556,9.4556,9.4483,9.4116,9.3492,9.3308,9.2794,9.206,9.1987,9.1877,9.1803,9.1803,9.1326,9.0372,8.7949,8.6518,8.5416,8.2406,8.0388,0.0,0.0,0.0,0.0,7.7488,7.7414,7.7304,7.7304,7.6827,7.624,7.613,7.5579,7.5028,7.4918,7.4845,7.4588,7.3854,7.3083,7.2275,7.1468,7.0183,6.8935,6.8128,6.732,6.6292,6.4751,6.3576,6.2034,5.9832,5.9391,5.9098,5.8364,5.7631,5.7195,5.7268,0.0,0.0,5.7108,5.6328,5.545,5.4576,5.3628,5.2747,5.2013,5.1977,5.2344,5.3078,5.3261,5.3335,5.3335,5.3445,5.3482,5.3482,5.3298,5.2813,0.0,0.0,0.0,0.0,0.0,0.0,0.0,0.0,0.0,0.0,0.0,0.0,0.0,0.0,0.0,6.9383,7.6154,8.1965,8.5531,8.7335,8.724,8.4347,8.5823,8.8202,9.1069,9.1817,9.2998,9.5141,9.4666,9.4593,9.5254,9.4666,0.0,9.5254,9.529,9.529,9.529,9.5914,9.6245,9.6245,0.0,0.0,9.5951,9.4666,9.3969,9.3786,9.3125,9.2464,9.1803,9.1803,9.1326,9.0372,8.7949,8.6518,8.5563,8.3654,8.2737,8.2296,8.1012,7.9984,7.9213,7.8552,7.7892,7.7304,7.7304,7.7194,0.0,7.6276,7.5983,7.5726,7.5065,7.4441,7.3891,7.3744,7.3083,7.2275,7.1468,7.1064,7.0624,6.9779,6.8972,6.8128,6.7173,6.4677,6.2438,6.13,6.0566,6.0126,5.9979,5.926,5.9018,5.964,5.903,5.858,5.8761,5.7408,5.6246,5.5427,5.3371,5.216,5.2013,5.1977,5.205,5.2234,5.3518,5.4179,5.4179,5.4803,5.5133,5.5097,5.3812,5.2813,0.0,0.0,0.0,0.0,0.0,0.0,0.0,0.0,0.0,0.0,0.0,6.0396,0.0,0.0,7.2011,7.732,8.2117,8.6158,8.8801,9.0423,9.0175,8.7092,8.8897,9.0914,9.2259,9.355,9.513,9.7158,9.6171,9.5841,9.6649,9.6318,9.6098,9.6098,9.6502,9.6502,9.6098,9.6502,9.6685,9.6685,9.6282,9.6098,9.6061,9.529,9.4666,9.4263,9.3455,9.2868,9.2427,9.1987,9.1326,9.0482,8.9271,8.7839,8.6261,8.5049,8.3838,8.2627,8.1415,8.0204,7.9066,7.8222,7.7671,7.7304,7.7304,7.7304,7.7231,7.6827,7.6717,7.6607,7.624,7.5799,7.5395,7.4992,7.4588,7.3964,7.2753,7.2202,7.1651,7.0881,6.9743,6.8641,6.7834,6.5999,6.409,6.2438,6.1851,6.13,6.0493,6.0052,5.9795,5.9795,5.9465,5.9061,5.8621,5.7483,5.6455,5.5647,5.4473,5.3775,5.3775,5.3775,5.3775,5.3775,5.4583,5.4987,5.4987,5.539,5.5574,5.5574,5.4766,5.4188,0.0,0.0,0.0,0.0,0.0,0.0,0.0,0.0,6.0711,6.3727,6.5671,6.8284,7.2761,7.5722,7.9159,8.4584,8.7264,8.9378,9.1442,9.2584,9.2524,9.0423,9.2176,9.3719,9.4004,9.5482,9.7159,9.8956,9.775,9.7199,9.786,9.8043,9.7823,9.7199,9.7787,9.7823,9.7163,9.7016,9.6942,9.6942,9.6759,9.6355,9.5731,9.5731,9.529,9.4483,9.3529,9.3015,9.2794,9.2097,9.1436,9.0812,9.0482,8.9197,8.7362,8.6371,8.4609,8.2553,8.1746,8.0424,7.8919,7.8075,7.7708,7.7524,7.7378,7.7304,7.7304,7.7304,7.7304,7.7304,7.7304,7.7194,7.69,7.624,7.5983,7.5469,7.4001,7.3193,7.2496,7.1688,7.0367,6.9119,6.8274,6.7504,6.6072,6.3466,6.3062,6.2511,6.1043,6.075,6.0382,5.9758,5.9538,5.9171,5.851,5.774,5.7005,5.6345,5.6014,5.5831,5.5831,5.5684,5.5574,5.5574,5.5757,5.5831,5.5831,5.5978,5.6051,5.6051,5.6051,5.5904,5.6493,5.5377,5.5274,5.8031,5.9039,6.1098,0.0,0.0,7.0417,7.293,7.4679,7.6144,7.7305,8.0519,8.3874,8.6522,9.0989,9.4395,9.5246,9.7039,9.7543,9.5462,9.5534,9.6306,9.7712,9.7715,9.8033,9.9035,9.8264,9.7787,9.7897,9.8594,9.8924,9.8851,9.8924,9.8924,9.8851,9.8117,9.775,9.775,9.7052,9.6649,9.6575,9.6575,9.6135,9.529,9.3786,9.2648,9.195,9.184,9.173,9.151,9.0115,8.9381,8.8977,8.7435,8.5783,8.4205,8.3434,8.2076,8.0608,7.9764,7.9029,7.8295,7.7561,7.7304,7.7304,7.7304,7.7304,7.7304,7.7304,7.679,7.6203,7.613,7.5542,7.4808,7.3891,7.3634,7.334,7.2532,7.1651,7.0807,6.9963,6.9155,6.7577,6.442,6.3943,6.3613,6.2658,6.1924,6.141,6.1337,6.0676,6.0236,6.0126,5.9391,5.8914,5.8804,5.7483,5.6675,5.6675,5.5978,5.5574,5.5574,5.6308,5.6675,5.6675,5.7373,5.774,5.774,5.774,5.6969,5.9245,5.9174,0.0,0.0,6.5989,6.9425,7.3245,7.4845,7.6387,7.925,8.1483,8.3727,8.6392,8.8611,9.0697,0.0,9.5231,9.6932,9.7698,9.8174,9.774,9.5911,9.6166,9.6759,9.76,9.8208,9.9145,10.0393,9.9732,9.9292,9.9292,10.0503,10.0613,9.9145,9.9989,9.9989,9.9108,9.8778,9.8374,9.7897,9.7566,9.7163,9.6685,9.6685,9.6282,9.5437,9.4299,9.3345,9.2537,9.2024,9.1803,9.173,9.1069,9.0519,8.9858,8.7766,8.6297,8.5159,8.4389,8.303,8.1562,8.0755,7.9947,7.914,7.8295,7.8075,7.7965,7.7451,7.7304,7.7304,7.7304,7.7084,7.6827,7.6827,7.657,7.6093,7.5285,7.4735,7.4147,7.334,7.2165,7.1211,7.0881,7.0146,6.8972,6.7173,6.6109,6.5044,6.3723,6.3246,6.2658,6.1704,6.0896,6.0419,6.0419,6.0089,5.9905,5.9905,5.9281,5.8694,5.8217,5.7886,5.7483,5.7005,5.7336,5.774,5.8217,5.8547,5.8951,5.9391,5.9391,5.9024,6.0529,0.0,0.0,6.7726,7.2569,7.7084,7.8993,8.0901,8.3104,8.6114,8.8316,9.0519,9.3272,9.441,9.5511,9.7273,9.7933,9.8411,9.9035,9.8411,9.7126,9.5107,9.5144,9.5533,9.6048,9.786,9.9695,10.109,10.1017,10.0907,10.0613,10.2191,10.2118,10.0209,10.12,10.12,9.9769,9.9548,9.9145,9.8557,9.8117,9.7566,9.7016,9.6795,9.6282,9.5474,9.4666,9.3822,9.3015,9.217,9.1803,9.1767,9.1546,9.0996,9.0041,8.8059,8.6811,8.6004,8.5196,8.3875,8.237,8.1342,8.0461,7.958,7.8552,7.8259,7.8112,7.7488,7.7304,7.7304,7.7304,7.7304,7.7304,7.7304,7.7304,7.7084,7.6276,7.5652,7.4918,7.3891,7.2753,7.1835,7.1394,7.0844,7.0146,6.9339,6.8054,6.6586,6.4971,6.4567,6.398,6.2732,6.2108,6.1667,6.1447,6.119,6.097,6.075,6.0529,6.0162,5.9575,5.9318,5.9024,5.8657,5.8217,5.851,5.9538,5.9318,5.9612,6.0419,6.0419,6.0529,0.0,0.0,6.754,7.2275,7.7194,8.2039,8.6775,8.9674,9.2097,9.463,9.5804,9.6208,9.5547,9.6098,9.6649,9.6722,9.8043,9.9071,9.9108,9.8411,9.6722,9.3565,9.2464,9.2281,0.0,9.6832,9.9438,10.0283,10.1788,10.2301,10.1494,10.2999,10.3513,10.2595,10.2595,10.2301,10.1384,10.0686,10.0283,10.0209,9.8631,9.7897,9.7823,9.7052,9.6282,9.5474,9.4666,9.3822,9.3015,9.217,9.1803,9.173,9.0959,9.0152,8.9344,8.85,8.7655,8.6848,8.604,8.4719,8.3104,8.1525,8.0461,7.947,7.7855,7.7378,7.7341,7.7341,7.7304,7.7304,7.7304,7.7304,7.7304,7.7304,7.7304,7.7084,7.6276,7.6093,7.5579,7.4001,7.367,7.312,7.1578,7.1284,7.0991,7.0183,6.9376,6.8238,6.6623,6.5742,6.5264,6.5191,6.5191,6.4861,6.4053,6.3209,6.2401,6.1594,6.0823,6.0382,6.0382,5.9612,5.9575,6.0309,5.8804,5.8767,6.0382,5.9612,5.9612,6.0419,6.0419,6.0823,6.5044,0.0,7.5542,7.9874,8.4572,8.9014,9.2317,9.4483,9.5768,9.5547,9.4887,9.4042,9.3198,9.3272,9.4006,9.5658,9.7713,9.9108,9.9108,9.8411,9.6098,9.1216,9.184,0.0,0.0,0.0,0.0,10.0099,10.1788,10.2595,10.2301,10.4394,10.4908,10.3513,10.3513,10.3109,10.2301,10.1494,10.0576,9.9475,9.786,9.7089,9.7089,9.6832,9.6539,9.6208,9.4887,9.4153,9.3786,9.2391,9.1803,9.1767,9.151,9.0922,9.0115,8.9307,8.85,8.7692,8.6885,8.5563,8.4132,8.3581,8.2113,8.0388,7.9286,7.8589,7.8038,7.7488,7.7304,7.7304,7.7304,7.7304,7.7304,7.7304,7.7304,7.7268,7.6974,7.6497,7.5946,7.5395,7.4845,7.4331,7.378,7.3707,7.323,7.1908,6.9633,6.7724,6.6623,6.5815,6.5301,6.5301,6.5301,6.5191,6.4934,6.4127,6.3539,6.3282,6.2475,6.1741,6.1227,6.0933,6.0676,6.0419,5.9869,6.0126,6.119,6.0933,6.1227,6.1998,6.1998,6.2144,7.1541,7.7121,8.27,8.7362,9.1473,9.5034,9.753,9.8227,9.786,9.6282,9.3932,9.1767,9.0335,8.9381,8.9784,9.2831,9.4373,9.5841,9.7566,9.6612,9.4263,9.0298,9.0996,9.1179,0.0,0.0,0.0,9.9145,10.12,10.2412,10.2705,10.4798,10.5422,10.4394,10.399,10.3513,10.2705,10.1898,10.0686,9.9108,9.8043,9.7273,9.6685,9.6685,9.6685,9.6612,9.4997,9.4299,9.4153,9.2501,9.1803,9.1803,9.1803,9.1326,9.0519,8.9711,8.8904,8.8096,8.7288,8.5967,8.4535,8.4278,8.2737,8.0865,8.0021,7.9213,7.8479,7.7928,7.7561,7.7304,7.7304,7.7304,7.7304,7.7304,7.7304,7.7304,7.7304,7.69,7.646,7.6166,7.5689,7.5249,7.4955,7.4918,7.4368,7.2753,7.0734,6.9009,6.7907,6.7357,6.6916,6.6623,6.6586,6.6366,6.5778,6.5264,6.4824,6.453,6.3723,6.3025,6.2511,6.1924,6.1484,6.1263,6.0713,6.0933,6.2034,6.2034,6.2438,6.3282,6.3576,6.3686,7.8736,8.3838,8.8904,9.4373,9.7493,9.9805,10.2008,10.0723,9.8447,9.6575,9.2941,8.9271,0.0,0.0,8.4535,8.8536,8.8904,9.0335,9.5107,9.3822,9.1987,0.0,0.0,0.0,0.0,0.0,0.0,9.764,0.0,10.1788,10.2705,10.432,10.5201,10.5201,10.4394,10.3586,10.2815,10.1788,10.0613,9.9108,9.9035,9.819,9.6685,9.6685,9.6685,9.6539,9.496,9.4263,9.4116,9.2464,9.1803,9.1803,9.1803,9.1289,9.0445,8.9711,8.8867,8.8023,8.7252,8.5967,8.4462,8.3728,8.2333,8.0865,8.0094,7.925,7.8589,7.8589,7.7965,7.7304,7.7304,7.7304,7.7304,7.7304,7.7304,7.7304,7.7304,7.7304,7.7084,7.6313,7.6166,7.5909,7.5175,7.4992,7.4441,7.2863,7.2606,7.1982,7.0293,7.011,6.9816,6.9045,6.8972,6.8348,6.6806,6.6623,6.6256,6.5485,6.464,6.4127,6.409,6.2548,6.2071,6.2805,6.1337,6.1337,6.2879,6.2915,6.3356,6.4214,6.4934,6.5301,8.5233,9.0922,9.5768,9.8411,9.9989,10.0686,10.0209,9.8631,9.5841,9.0555,8.5783,8.1232,0.0,0.0,0.0,8.527,9.1216,0.0,9.8741,9.9035,0.0,0.0,0.0,9.5034,9.3235,9.452,0.0,0.0,9.9916,10.1494,10.3513,10.5201,10.6082,10.6082,10.5201,10.4394,10.3586,10.1017,9.9512,9.9108,9.7897,9.7089,9.6685,9.6685,9.6392,9.5768,9.474,9.3969,9.3308,9.2244,9.1803,9.1803,9.1803,9.0959,8.9711,8.9491,8.8536,8.7288,8.7068,8.5967,8.4572,8.4352,8.281,8.0975,8.0755,7.9727,7.8589,7.8589,7.7965,7.7304,7.7304,7.7304,7.7304,7.7304,7.7304,7.7304,7.7304,7.7304,7.7268,7.7047,7.7011,7.6937,7.6754,7.6203,7.5469,7.4441,7.378,7.2606,7.0367,7.011,7.0,6.9816,6.9779,6.9633,6.9229,6.8091,6.7283,6.71,6.5778,6.4714,6.4127,6.3686,6.3246,6.2805,6.3025,6.3356,6.3759,6.4383,6.4967,6.5561,6.5409,6.5483,9.2941,9.7823,10.1384,10.2705,10.2779,10.1677,9.83,9.5437,9.1253,8.3324,7.8405,0.0,0.0,0.0,0.0,0.0,0.0,0.0,9.8704,9.9622,9.9218,0.0,9.819,0.0,9.6061,9.7346,9.8814,0.0,10.0209,10.1384,10.3806,10.5091,10.6009,10.6376,10.5605,10.4504,10.3403,10.12,9.9805,9.9108,9.819,9.7383,9.6685,9.6685,9.6282,9.5474,0.0,9.3822,9.3015,9.217,9.1803,9.1803,9.1803,9.1253,9.0372,8.9674,8.8867,8.7949,8.7252,8.5967,8.4609,8.4609,8.3434,8.2003,8.1636,8.0388,7.9176,7.9543,7.8809,7.7892,7.7892,7.7892,7.7781,7.7414,7.7304,7.7304,7.7304,7.7304,7.7304,7.7304,7.7304,7.7304,7.7304,7.6937,7.635,7.5542,7.5028,7.4001,7.1945,7.1358,7.1027,7.066,7.0624,7.0477,7.011,6.9265,6.8605,6.8238,6.7063,6.5999,6.5191,6.4824,6.442,6.3906,6.4383,6.464,6.464,6.5448,6.6099,6.6611,6.6418,6.6801,10.0393,10.3806,10.5605,10.6376,10.4981,10.1898,9.6171,9.1289,8.527,7.5763,0.0,6.7687,6.398,6.743,7.2532,7.7745,0.0,9.1033,9.775,9.8704,9.9035,9.9952,10.0503,10.0209,9.8814,9.9952,10.109,10.1898,10.131,10.1898,10.3917,10.4798,10.5605,10.6376,10.5495,10.432,10.2889,10.1788,10.0613,9.9108,9.8998,9.8154,9.6685,9.6685,9.6208,9.5327,0.0,0.0,9.2868,9.2097,9.1803,9.1803,9.1803,9.173,9.1473,8.9968,8.9344,8.905,8.7545,8.6114,8.4903,8.4682,8.3985,8.3104,8.2406,8.1158,8.0094,8.0791,7.991,7.8736,7.8626,7.8589,7.8369,7.7524,7.7304,7.7304,7.7304,7.7304,7.7304,7.7304,7.7304,7.7304,7.7304,7.7304,7.7047,7.624,7.6093,7.5542,7.4037,7.3156,7.2349,7.1578,7.1468,7.1174,7.0477,7.022,6.9816,6.9119,6.8201,6.732,6.6512,6.5852,6.5411,6.5301,6.5411,6.5485,6.5485,6.6256,6.6962,6.756,6.7825,6.8615,10.41,10.6302,10.7183,10.7367,10.41,9.9255,9.2905,8.5747,0.0,0.0,6.4824,6.1447,5.9428,6.4127,7.0587,7.7488,0.0,0.0,0.0,0.0,10.3403,0.0,0.0,0.0,0.0,0.0,0.0,0.0,0.0,0.0,10.4908,10.5715,10.6192,10.6376,10.4908,10.399,10.3696,10.1604,9.9989,9.9108,9.8411,9.7603,9.6685,9.6685,9.5914,9.4483,0.0,0.0,9.2024,9.184,9.1803,9.1803,9.1803,9.14,9.0702,8.9784,8.8977,8.828,8.7325,8.6811,8.6371,8.5049,8.3618,8.237,8.2223,8.1525,8.0828,8.0975,8.0314,7.9433,7.8772,7.8589,7.8369,7.7524,7.7304,7.7304,7.7304,7.7304,7.7304,7.7304,7.7304,7.7304,7.7304,7.7304,7.7047,7.624,7.6093,7.5763,7.4808,7.4001,7.3193,7.2386,7.2312,7.2239,7.2092,7.0844,7.0036,6.9889,6.8495,6.732,6.6512,6.6366,6.5999,6.5301,6.5962,6.6292,6.6292,6.71,6.8025,6.896,6.9286,6.9743,10.7183,10.8872,10.9276,10.8395,10.388,9.7419,8.883,0.0,0.0,0.0,5.9905,5.7923,5.5868,6.1484,0.0,0.0,0.0,0.0,0.0,0.0,0.0,0.0,0.0,0.0,0.0,0.0,0.0,0.0,0.0,0.0,10.5789,10.6192,10.6376,10.6376,10.5201,10.432,10.388,10.1898,10.0283,9.9108,9.8264,9.7456,9.6685,9.6685,9.5804,9.4299,9.4299,0.0,9.1803,9.1803,9.1803,9.1803,9.1803,9.1546,9.1143,9.0335,8.9528,8.872,8.7912,8.7068,8.6261,8.549,8.4425,8.3361,8.2957,8.1966,8.1085,8.1525,8.1048,8.0351,7.9947,7.9543,7.8993,7.8185,7.7635,7.7304,7.7304,7.7304,7.7304,7.7304,7.7304,7.7304,7.7304,7.7304,7.7194,7.679,7.6717,7.6423,7.5652,7.5175,7.4478,7.3266,7.2753,7.2496,7.2496,7.1798,7.0991,7.0146,6.9376,6.8385,6.7173,6.71,6.6953,6.6549,6.6916,6.71,6.7136,6.7504,6.8482,6.9954,6.9843,7.0705,10.9386,11.0707,11.0817,10.9202,10.3513,9.5621,8.527,7.6827,0.0,5.8584,5.6124,5.5317,5.3739,5.8804,6.4677,0.0,7.4845,0.0,0.0,0.0,0.0,0.0,0.0,0.0,0.0,0.0,0.0,0.0,0.0,0.0,10.6376,10.6376,10.6376,10.6376,10.5605,10.4724,10.388,10.2485,10.0907,9.9108,9.8447,9.764,9.6685,9.6685,9.5914,9.4556,9.4373,0.0,0.0,9.1877,9.1803,9.1803,9.1803,9.1803,9.1693,9.0702,8.9968,8.9271,8.828,8.7105,8.604,8.604,8.527,8.4242,8.3618,8.2406,8.1379,8.2003,8.1746,8.1232,8.1048,8.0388,7.9543,7.8552,7.7818,7.7304,7.7304,7.7304,7.7304,7.7304,7.7304,7.7304,7.7304,7.7304,7.7304,7.7304,7.7304,7.7084,7.646,7.6203,7.5616,7.4331,7.334,7.2679,7.2496,7.2349,7.1688,7.044,7.0183,6.9449,6.8017,6.7944,6.7871,6.7687,6.7687,6.7687,6.7687,6.7871,6.8853,7.0595,7.0503,7.1718,11.0414,11.1111,11.0817,10.9202,10.2301,9.3272,8.3434,0.0,6.4897,5.7262,5.3959,5.2821,5.4069,5.55,5.9245,0.0,7.2569,7.9837,0.0,0.0,0.0,0.0,0.0,0.0,0.0,0.0,0.0,0.0,0.0,0.0,0.0,10.6376,10.6376,10.6376,10.5605,10.4724,10.388,10.2999,10.142,9.9108,9.9035,9.819,9.6685,9.6685,9.6208,9.5364,0.0,0.0,0.0,9.2134,9.1803,9.1803,9.1803,9.1803,9.162,9.0078,8.9491,8.9197,8.7655,8.7031,8.6885,8.6885,8.538,8.3508,8.3434,8.281,8.2113,8.2186,8.215,8.1929,8.1195,8.0388,7.9396,7.7818,7.7378,7.7304,7.7304,7.7304,7.7304,7.7304,7.7304,7.7304,7.7304,7.7304,7.7304,7.7304,7.7304,7.7304,7.7231,7.657,7.6056,7.5909,7.4515,7.3303,7.2569,7.1835,7.1358,7.1211,7.0513,6.9706,6.8825,6.8788,6.8458,6.7687,6.7687,6.7687,6.7687,6.8421,6.9409,7.0637,7.2025,7.3109,10.9606,11.1588,11.1515,10.99,10.2081,9.2464,8.3728,0.0,6.3246,5.6895,5.4069,5.2931,5.3555,5.4326,5.6822,6.2805,6.4714,6.9633,8.1672,8.4609,8.9087,0.0,0.0,0.0,0.0,0.0,0.0,0.0,0.0,0.0,0.0,10.6376,10.6192,10.5605,10.5311,10.421,10.2485,10.2081,10.0796,9.8374,9.8374,9.7787,9.6685,9.6685,9.6282,9.5474,0.0,0.0,0.0,9.217,9.1803,9.1803,9.1803,9.1803,9.173,9.1069,9.0555,8.9968,8.883,8.8133,8.7655,8.7178,8.571,8.4132,8.4132,8.3214,8.2186,8.2186,8.2186,8.2113,8.1819,8.0755,7.936,7.7708,7.7304,7.7304,7.7304,7.7304,7.7304,7.7304,7.7304,7.7304,7.7304,7.7304,7.7304,7.7304,7.7304,7.7304,7.7304,7.7047,7.6644,7.6166,7.4661,7.356,7.323,7.2496,7.1835,7.1358,7.0991,7.0477,6.9669,6.9155,6.8752,6.8421,6.8421,6.8164,6.7687,6.8972,7.0189,7.1354,7.2486,7.3801,10.6816,11.0304,11.1588,10.979,10.1604,9.1693,0.0,7.2275,6.2401,5.6455,5.3959,5.2931,5.3188,5.3665,5.528,5.9061,6.0015,6.398,7.4625,7.7414,8.2296,0.0,0.0,0.0,0.0,0.0,0.0,0.0,0.0,0.0,0.0,10.5789,10.5495,10.5128,10.4908,10.3806,10.1898,10.1604,10.0393,9.8264,9.8007,9.7456,9.6685,9.6685,9.6392,9.5804,0.0,0.0,0.0,9.2244,9.1803,9.1803,9.1803,9.1803,9.1767,9.1546,9.0959,9.0152,8.9344,8.8536,8.7766,8.7178,8.593,8.4609,8.4609,8.3471,8.2186,8.2186,8.2186,8.215,8.1893,8.1012,7.98,7.8369,7.8038,7.7965,7.7745,7.7708,7.7635,7.7378,7.7304,7.7304,7.7304,7.7304,7.7304,7.7304,7.7304,7.7304,7.7304,7.7304,7.7084,7.6533,7.5212,7.4294,7.4074,7.3523,7.2863,7.2055,7.2018,7.1541,7.0513,6.9926,6.9522,6.9265,6.9265,6.8972,6.8385,6.9779,7.1042,7.2184,7.3015,7.4258,10.1714,10.6926,11.0597,10.8175,10.0283,9.0592,8.0865,7.1101,6.2254,5.5757,5.3115,5.227,5.3078,5.3225,5.4289,5.7483,6.0713,6.5888,7.4845,7.8919,0.0,0.0,0.0,0.0,0.0,0.0,0.0,0.0,0.0,0.0,0.0,10.4394,10.4284,10.5128,10.432,10.3513,10.2705,10.1898,10.0686,9.9071,9.8264,9.7456,9.6685,9.6685,9.6685,0.0,0.0,0.0,0.0,9.2501,9.1803,9.1803,9.1803,9.1803,9.1693,9.0922,9.0115,8.9307,8.85,8.7692,8.7031,8.6995,8.593,8.4609,8.4609,8.3471,8.2186,8.2186,8.2186,8.2003,8.1232,8.1012,8.0791,7.9947,7.9764,7.9543,7.8772,7.8589,7.8332,7.7488,7.7304,7.7304,7.7304,7.7304,7.7304,7.7304,7.7304,7.7304,7.7304,7.7304,7.7304,7.7304,7.657,7.5763,7.4955,7.4882,7.4551,7.3707,7.367,7.2973,7.1358,7.1284,7.0917,7.011,7.0073,7.0073,7.0073,7.0881,7.1895,7.301,7.3878,7.4551,9.14,9.5327,9.7346,9.4923,8.872,8.1636,7.5763,6.776,6.0346,5.6088,5.3922,5.2894,5.3151,5.3225,5.4803,5.9685,6.13,6.4347,7.1064,0.0,0.0,0.0,0.0,0.0,0.0,0.0,0.0,0.0,0.0,0.0,0.0,0.0,10.3219,10.3513,10.3219,10.2412,10.109,10.0796,9.9879,9.8264,9.8007,9.7456,9.6685,9.6685,0.0,0.0,0.0,0.0,0.0,9.2244,9.1803,9.1803,9.1803,9.1803,9.1767,9.151,9.0922,9.0115,8.9307,8.85,8.7729,8.7178,8.593,8.4609,8.4609,8.3471,8.2186,8.2186,8.2186,8.2003,8.1232,8.1012,8.0791,7.9984,7.98,7.958,7.8772,7.8589,7.8332,7.7488,7.7304,7.7304,7.7304,7.7304,7.7304,7.7304,7.7304,7.7304,7.7304,7.7304,7.7304,7.7304,7.7084,7.6607,7.5799,7.5212,7.4808,7.4551,7.4001,7.345,7.2973,7.1872,7.1211,7.0954,7.0917,7.066,7.011,7.1468,7.2748,7.3878,7.4558,7.4943,8.1525,8.6518,8.9158,8.7556,8.238,7.6484,7.1987,6.5235,5.8951,5.5427,5.3922,5.3225,5.3225,5.3445,5.4803,5.8327,6.0162,6.2915,6.8017,0.0,0.0,0.0,0.0,0.0,0.0,0.0,0.0,0.0,0.0,0.0,0.0,0.0,10.1714,10.1384,10.1604,10.131,10.0283,9.9695,9.8888,9.7897,9.7566,9.7163,9.6685,9.6685,0.0,0.0,0.0,0.0,0.0,9.217,9.1803,9.1803,9.1803,9.1803,9.1803,9.1803,9.1106,9.0078,8.9601,8.8683,8.7655,8.7178,8.593,8.4535,8.4242,8.3251,8.2186,8.2186,8.2186,8.2076,8.1562,8.1452,8.1342,8.0828,8.0681,8.0388,7.9286,7.9029,7.8699,7.7561,7.7304,7.7304,7.7304,7.7304,7.7304,7.7304,7.7304,7.7304,7.7304,7.7304,7.7304,7.7304,7.7304,7.7121,7.6607,7.6093,7.5689,7.5395,7.4882,7.4331,7.3707,7.2753,7.2055,7.1762,7.1762,7.1505,7.0991,7.2226,7.3341,7.4293,7.4866,7.5236,0.0,7.9312,8.4036,8.3645,7.9187,7.3607,6.8791,6.3168,0.0,5.4069,5.3188,5.3188,5.3335,5.3849,5.4399,5.4913,5.8143,6.2071,6.6329,7.4221,0.0,0.0,0.0,0.0,0.0,0.0,0.0,0.0,0.0,0.0,0.0,0.0,9.9879,9.9145,9.9769,10.0209,10.0209,9.8668,9.7897,9.7897,9.7089,9.6685,9.6612,9.6612,0.0,0.0,0.0,0.0,0.0,9.2134,9.1803,9.1803,9.1803,9.1803,9.1803,9.173,9.0739,8.9417,8.9344,8.8316,8.6995,8.6921,8.5894,8.4535,8.3728,8.292,8.2296,8.2333,8.2333,8.2296,8.2296,8.2223,8.2186,8.2186,8.2186,8.1746,8.0204,7.9837,7.9323,7.7708,7.7378,7.7304,7.7304,7.7304,7.7304,7.7304,7.7304,7.7304,7.7304,7.7304,7.7304,7.7304,7.7304,7.7304,7.7304,7.7304,7.7011,7.624,7.613,7.5432,7.3927,7.3744,7.334,7.2606,7.2532,7.2496,7.2496,7.3066,7.3651,7.4249,7.479,7.5417,5.9355,0.0,6.7444,6.5791,6.4055,6.2308,0.0,5.8391,0.0,0.0,0.0,5.2858,5.4693,5.3665,5.4363,5.9942,6.163,6.431,7.0257,0.0,0.0,0.0,0.0,0.0,0.0,0.0,0.0,0.0,0.0,0.0,0.0,0.0,9.9292,9.9108,9.8704,9.8741,9.9402,9.8411,9.7897,9.7897,9.7089,9.6392,9.5804,9.5804,0.0,0.0,0.0,0.0,9.2097,9.1877,9.1803,9.1803,9.1803,9.1803,9.173,9.1106,9.0262,8.9344,8.872,8.7839,8.6921,8.6261,8.582,8.538,8.4572,8.3765,8.3251,8.3875,8.3581,8.3141,8.3141,8.2663,8.2186,8.2186,8.2186,8.1929,8.0938,8.0241,7.9507,7.8479,7.7781,7.7304,7.7304,7.7304,7.7304,7.7304,7.7304,7.7304,7.7304,7.7304,7.7304,7.7304,7.7304,7.7304,7.7304,7.7304,7.7231,7.7047,7.646,7.5946,7.5542,7.4331,7.3597,7.3413,7.2826,7.2496,7.2496,7.263,7.305,7.3602,7.4212,7.5131,5.3261,5.6786,6.0174,5.9701,5.8961,5.8258,5.7888,0.0,0.0,0.0,0.0,0.0,5.3702,0.0,5.4216,5.9245,6.1924,6.6953,0.0,0.0,0.0,0.0,0.0,0.0,0.0,0.0,0.0,0.0,0.0,0.0,0.0,0.0,9.8374,9.8007,9.7566,9.775,9.8557,9.7383,9.6795,9.6795,9.5988,9.5364,9.496,9.496,0.0,0.0,0.0,0.0,9.1803,9.1803,9.1803,9.1803,9.1803,9.1583,9.1216,9.0776,8.9858,8.8793,8.8353,8.7655,8.6885,8.604,8.5783,8.571,8.527,8.4866,8.4462,8.4132,8.3765,8.3324,8.2957,8.2517,8.2186,8.2186,8.2186,8.1856,8.0681,8.0094,7.9433,7.8259,7.7635,7.7304,7.7304,7.7304,7.7304,7.7304,7.7304,7.7304,7.7304,7.7304,7.7304,7.7304,7.7304,7.7304,7.7304,7.7304,7.7304,7.7304,7.69,7.6497,7.613,7.4918,7.3891,7.3156,7.2716,7.2679,7.3046,7.2679,7.3001,7.395,7.4553,7.5425,5.1573,5.4803,5.8317,5.8805,5.8264,5.7457,5.7026,0.0,0.0,0.0,0.0,0.0,0.0,0.0,0.0,0.0,0.0,0.0,0.0,0.0,0.0,0.0,0.0,0.0,0.0,0.0,0.0,0.0,0.0,0.0,0.0,0.0,0.0,9.6722,9.6575,9.6832,9.753,9.6171,9.5511,9.5511,9.4666,9.4226,9.4116,9.4116,9.3675,0.0,0.0,0.0,9.1803,9.1803,9.1803,9.1803,9.1803,9.1326,9.0592,9.0482,8.9491,8.8169,8.8059,8.7582,8.6885,8.6187,8.5967,8.5967,8.582,8.5894,8.5637,8.4058,8.3691,8.3581,8.2774,8.248,8.2333,8.2223,8.2186,8.1819,8.0461,8.0057,7.9507,7.8002,7.7598,7.7488,7.7341,7.7304,7.7304,7.7304,7.7304,7.7304,7.7304,7.7304,7.7304,7.7304,7.7304,7.7304,7.7304,7.7304,7.7304,7.7304,7.7304,7.6937,7.613,7.5469,7.4331,7.2716,7.2679,7.301,7.3707,7.301,7.3388,7.4651,7.5276,7.5944,5.4142,5.6895,5.8253,5.5043,5.4855,5.5164,0.0,0.0,0.0,0.0,0.0,0.0,0.0,0.0,0.0,0.0,0.0,0.0,0.0,0.0,0.0,0.0,0.0,0.0,0.0,0.0,0.0,0.0,0.0,0.0,0.0,0.0,0.0,9.6685,9.6061,9.5768,9.5878,9.5621,9.5511,9.5511,9.4666,9.3932,9.3272,9.3272,9.2794,0.0,0.0,9.1913,9.1803,9.1803,9.1803,9.1803,9.1803,9.1326,9.0519,8.9858,8.9014,8.8096,8.7435,8.7105,8.6995,8.6885,8.6811,8.6701,8.6004,8.6261,8.6481,8.4866,8.4903,8.5233,8.4425,8.3728,8.303,8.237,8.2186,8.2113,8.1856,8.1305,8.0534,7.958,7.8883,7.8185,7.7451,7.7304,7.7304,7.7304,7.7304,7.7304,7.7304,7.7304,7.7304,7.7304,7.7304,7.7304,7.7304,7.7304,7.7304,7.7304,7.7304,7.6937,7.613,7.5983,7.5175,7.356,7.3523,7.356,7.3707,7.356,7.3986,7.4874,7.5453,7.6466,5.205,5.4106,5.5831,5.528,5.6522,5.7513,0.0,0.0,0.0,0.0,0.0,0.0,0.0,0.0,0.0,0.0,0.0,0.0,0.0,0.0,0.0,0.0,0.0,0.0,0.0,0.0,0.0,0.0,0.0,0.0,0.0,0.0,0.0,0.0,9.529,9.485,9.485,9.441,9.4189,9.4189,9.3345,9.2758,9.2391,9.2391,9.217,9.1803,0.0,9.1803,9.1803,9.1803,9.1803,9.1803,9.1803,9.1033,8.9821,8.8573,8.7876,8.7509,8.7142,8.6995,8.6995,8.6995,8.6995,8.6921,8.6554,8.6701,8.6848,8.6114,8.5527,8.4976,8.4168,8.3361,8.2663,8.2296,8.2186,8.2076,8.1636,8.0901,8.0094,7.9286,7.8479,7.7781,7.7378,7.7708,7.7855,7.7378,7.7708,7.7855,7.7378,7.7304,7.7304,7.7304,7.7304,7.7304,7.7304,7.7304,7.7304,7.7304,7.7304,7.6937,7.613,7.6093,7.5542,7.4368,7.4368,7.4551,7.4992,7.4551,7.4771,7.5542,7.6198,7.703,5.0692,5.2344,5.4436,5.6124,0.0,0.0,0.0,0.0,0.0,0.0,0.0,0.0,0.0,0.0,0.0,0.0,0.0,0.0,0.0,0.0,0.0,0.0,0.0,0.0,0.0,0.0,0.0,0.0,0.0,0.0,0.0,0.0,0.0,0.0,9.4446,9.4006,9.4006,9.3198,9.2905,9.3088,9.2207,9.1803,9.1803,9.1803,9.1803,9.1803,9.1803,9.1803,9.1803,9.1803,9.1803,9.1767,9.1583,9.0555,8.8977,8.7545,8.6995,8.6995,8.6995,8.6995,8.6995,8.6995,8.6995,8.6958,8.6775,8.6848,8.6958,8.6775,8.571,8.4462,8.3838,8.3104,8.2443,8.2223,8.2186,8.2039,8.1415,8.0791,8.0094,7.9323,7.8626,7.8112,7.7928,7.8442,7.8662,7.8002,7.8442,7.8589,7.7708,7.7598,7.7561,7.7341,7.7304,7.7304,7.7304,7.7304,7.7304,7.7304,7.7304,7.7047,7.6423,7.6387,7.6019,7.5212,7.5175,7.5469,7.6093,7.5469,7.5616,7.6387,7.6921,7.7498,5.3261,5.528,5.6418,5.5831,0.0,0.0,0.0,0.0,0.0,0.0,0.0,0.0,0.0,0.0,0.0,0.0,0.0,0.0,0.0,0.0,0.0,0.0,0.0,0.0,0.0,0.0,0.0,0.0,0.0,0.0,0.0,0.0,0.0,0.0,0.0,9.3198,9.3198,9.2317,9.2281,9.3088,9.2207,9.1803,9.1803,9.1803,9.1803,9.1803,9.1803,9.1803,9.1803,9.1803,9.1803,9.173,9.0996,8.9711,8.8169,8.7325,8.6995,8.6995,8.6995,8.6995,8.6995,8.6995,8.6995,8.6885,8.6114,8.6407,8.6848,8.6077,8.527,8.4609,8.4535,8.3911,8.3141,8.237,8.2186,8.2186,8.2113,8.2076,8.1782,8.0975,8.0791,8.0498,7.9727,7.9653,7.969,7.9617,7.9653,7.9396,7.8626,7.8516,7.8222,7.7414,7.7304,7.7304,7.7304,7.7304,7.7304,7.7304,7.7304,7.7304,7.7231,7.7231,7.6864,7.6019,7.6019,7.6056,7.6093,7.6056,7.6423,7.7231,7.7292,7.7599,5.0435,5.2931,0.0,0.0,0.0,0.0,0.0,0.0,0.0,0.0,0.0,0.0,0.0,0.0,0.0,0.0,0.0,0.0,0.0,0.0,0.0,0.0,0.0,0.0,0.0,0.0,0.0,0.0,0.0,0.0,0.0,0.0,0.0,0.0,0.0,9.2281,9.2281,9.195,9.195,9.2281,9.195,9.1803,9.1767,9.1289,9.1069,9.1033,9.0519,9.0335,9.0372,9.0849,9.0776,9.0225,8.9417,8.8757,8.8096,8.7325,8.6995,8.6995,8.6995,8.6995,8.6995,8.6995,8.6995,8.6958,8.6628,8.6775,8.6958,8.6628,8.56,8.4609,8.4609,8.3251,8.1966,8.215,8.1819,8.1599,8.2076,8.1819,8.1379,8.1048,8.0608,8.0167,7.9837,8.0204,8.0388,7.9874,7.98,7.9507,7.8699,7.8148,7.7671,7.7378,7.7304,7.7304,7.7304,7.7304,7.7304,7.7304,7.7304,7.7304,7.7304,7.7304,7.7194,7.6864,7.6864,7.6864,7.6864,7.6864,7.7011,7.7304,7.7304,7.7651,4.8453,5.0362,5.2858,0.0,0.0,0.0,0.0,0.0,0.0,0.0,0.0,0.0,0.0,0.0,0.0,0.0,0.0,0.0,0.0,0.0,0.0,0.0,0.0,0.0,0.0,0.0,0.0,0.0,0.0,0.0,0.0,0.0,0.0,0.0,0.0,9.1803,9.1803,9.1546,9.1436,9.1436,9.1179,9.1179,9.14,9.0592,9.0225,9.0188,8.9674,8.9417,8.9454,9.0005,8.9748,8.8977,8.8426,8.8059,8.7766,8.7215,8.6995,8.6995,8.6995,8.6995,8.6995,8.6995,8.6995,8.6958,8.6701,8.6628,8.6628,8.6628,8.5453,8.4278,8.4535,8.2994,8.1525,8.2076,8.1782,8.1525,8.2076,8.1782,8.1379,8.1379,8.0938,8.0534,8.0534,8.1012,8.1195,8.0645,8.0534,8.0277,7.947,7.8626,7.7892,7.7378,7.7304,7.7304,7.7304,7.7304,7.7304,7.7304,7.7304,7.7304,7.7304,7.7304,7.7304,7.7304,7.7304,7.7304,7.7304,7.7304,7.7304,7.7304,7.7304,7.757,4.8306,4.8343,0.0,0.0,0.0,0.0,0.0,0.0,0.0,0.0,0.0,0.0,0.0,0.0,0.0,0.0,0.0,0.0,0.0,0.0,0.0,0.0,0.0,0.0,0.0,0.0,0.0,0.0,0.0,0.0,0.0,0.0,0.0,0.0,0.0,0.0,9.1767,9.0996,9.0592,9.0592,8.9784,8.9821,9.0555,8.9784,8.9417,8.9417,8.9381,8.9381,8.9381,8.9381,8.894,8.8206,8.8206,8.7692,8.6995,8.6995,8.6995,8.6995,8.6995,8.6995,8.6995,8.6995,8.6995,8.6848,8.604,8.5783,8.5783,8.5783,8.4646,8.3618,8.4389,8.3398,8.2186,8.2186,8.2186,8.2186,8.2186,8.2223,8.2223,8.2223,8.2186,8.2186,8.2186,8.2186,8.2186,8.2186,8.2186,8.1893,8.1085,8.0277,7.914,7.7524,7.7341,7.7341,7.7304,7.7304,7.7304,7.7304,7.7304,7.7304,7.7304,7.7304,7.7304,7.7304,7.7304,7.7304,7.7304,7.7304,7.7304,7.7304,7.7304,7.7304,4.8783,5.0398,0.0,0.0,0.0,0.0,0.0,0.0,0.0,0.0,0.0,0.0,0.0,0.0,0.0,0.0,0.0,0.0,0.0,0.0,0.0,0.0,0.0,0.0,0.0,0.0,0.0,0.0,0.0,0.0,0.0,0.0,0.0,0.0,0.0,0.0,9.0115,8.9895,8.9784,8.9748,8.894,8.8977,8.9748,8.894,8.8573,8.8536,8.7986,8.7729,8.7729,8.7729,8.7912,8.8133,8.7582,8.6848,8.6151,8.6151,8.6151,8.6077,8.5527,8.5673,8.604,8.549,8.5306,8.538,8.571,8.5783,8.5783,8.5783,8.5049,8.4315,8.4535,8.3838,8.292,8.2333,8.2186,8.237,8.292,8.3508,8.3728,8.3141,8.303,8.2884,8.2296,8.2186,8.2186,8.2186,8.1709,8.1085,8.0241,7.9947,7.9396,7.8332,7.8222,7.7965,7.7378,7.7304,7.7304,7.7304,7.7304,7.7304,7.7304,7.7304,7.7304,7.7304,7.7304,7.7304,7.7304,7.7304,7.7304,7.7304,7.7304,7.7304,4.9444,0.0,0.0,0.0,0.0,0.0,0.0,0.0,0.0,0.0,0.0,0.0,0.0,0.0,0.0,0.0,0.0,0.0,0.0,0.0,0.0,0.0,0.0,0.0,0.0,0.0,0.0,0.0,0.0,0.0,0.0,0.0,0.0,0.0,0.0,0.0,8.9417,8.9087,8.8757,8.8463,8.7619,8.7325,8.7509,8.7325,8.7068,8.6775,8.6591,8.6518,8.6554,8.6885,8.7288,8.7692,8.7215,8.6518,8.5783,8.5783,8.56,8.5233,8.4756,8.4903,8.5233,8.4756,8.4609,8.4682,8.5159,8.5086,8.4903,8.5233,8.4499,8.3801,8.4425,8.4022,8.3427,8.3519,8.3328,8.3382,8.411,8.4469,8.4352,8.3581,8.3398,8.3141,8.2333,8.2186,8.2186,8.2186,8.1782,8.1195,8.0388,8.0277,7.9947,7.914,7.9066,7.8736,7.7892,7.7818,7.7671,7.7341,7.7304,7.7304,7.7304,7.7304,7.7304,7.7304,7.7304,7.7304,7.7304,7.7304,7.7304,7.7304,7.7304,7.7304,5.0472,0.0,0.0,0.0,0.0,0.0,0.0,0.0,0.0,0.0,0.0,0.0,0.0,0.0,0.0,0.0,0.0,0.0,0.0,0.0,0.0,0.0,0.0,0.0,0.0,0.0,0.0,0.0,0.0,0.0,0.0,0.0,0.0,0.0,0.0,0.0,8.8977,8.8243,8.7509,0.0,8.5967,8.5159,8.4425,8.527,8.527,8.4646,8.5306,8.56,8.5747,8.6481,8.6775,8.6775,8.6775,8.6297,8.5563,8.5563,8.5123,8.4499,8.4425,8.4425,8.4499,8.4425,8.4389,8.4389,8.4462,8.4051,8.361,8.4278,8.35,8.2757,8.4205,8.4058,8.3889,8.5432,8.5261,8.4911,8.5544,8.5224,8.4499,8.3765,8.3581,8.3287,8.2553,8.237,8.226,8.2186,8.2186,8.1929,8.1195,8.1122,8.0791,7.9984,7.991,7.958,7.8772,7.8626,7.8259,7.7488,7.7378,7.7304,7.7304,7.7304,7.7304,7.7304,7.7304,7.7304,7.7304,7.7304,7.7304,7.7304,7.7304,7.7304,0.0,0.0,0.0,0.0,0.0,0.0,0.0,0.0,0.0,0.0,0.0,0.0,0.0,0.0,0.0,0.0,0.0,0.0,0.0,0.0,0.0,0.0,0.0,0.0,0.0,0.0,0.0,0.0,0.0,0.0,0.0,0.0,0.0,0.0,0.0,8.6921,8.5637,8.5453,8.5306,0.0,8.4315,8.3508,8.2774,8.4205,8.4756,8.4572,8.4132,8.4278,8.4866,8.5049,8.5123,8.5123,8.5123,8.4609,8.3911,8.3911,8.3838,8.3581,8.292,8.3141,8.3544,8.292,8.27,8.281,8.3471,8.3888,8.4114,8.3778,8.3778,8.4039,8.4514,8.4462,8.4882,8.7068,8.6555,8.5758,8.6497,8.6074,8.549,8.5306,8.4756,8.4278,8.4095,8.3581,8.292,8.2296,8.2186,8.215,8.1966,8.1929,8.1636,8.0828,8.0755,8.0424,7.958,7.8956,7.8516,7.8332,7.7708,7.7304,7.7304,7.7304,7.7304,7.7304,7.7304,7.7304,7.7304,7.7304,7.7304,7.7304,7.7304,7.7304,0.0,0.0,0.0,0.0,0.0,0.0,0.0,0.0,0.0,0.0,0.0,0.0,0.0,0.0,0.0,0.0,0.0,0.0,0.0,0.0,0.0,0.0,0.0,0.0,0.0,0.0,0.0,0.0,0.0,0.0,0.0,0.0,0.0,0.0,8.549,8.4866,8.4022,8.3654,8.3251,8.2884,8.2443,8.1819,8.1085,8.1929,8.2517,8.2884,8.2847,8.3287,8.4058,8.4462,8.4609,8.4609,8.4609,8.4132,8.3398,8.3398,8.3177,8.2774,8.2333,8.248,8.2774,8.2333,8.2186,8.2333,8.3177,8.3608,8.3759,8.3512,8.3571,8.3871,8.3962,8.4022,8.4588,8.6957,8.6962,8.6605,8.7291,8.6925,8.6261,8.5857,8.5453,8.5049,8.4682,8.3948,8.3287,8.2847,8.2443,8.2186,8.2186,8.2186,8.2039,8.1636,8.1562,8.1232,8.0424,7.9984,7.9433,7.8662,7.8185,7.7745,7.7341,7.7304,7.7304,7.7304,7.7304,7.7304,7.7304,7.7304,7.7304,7.7304,7.7304,7.7304,0.0,0.0,0.0,0.0,0.0,0.0,0.0,0.0,0.0,0.0,0.0,0.0,0.0,0.0,0.0,0.0,0.0,0.0,0.0,0.0,0.0,0.0,0.0,0.0,0.0,0.0,0.0,0.0,0.0,0.0,0.0,0.0,8.5159,8.4205,8.3544,8.3067,8.2774,8.2113,8.1452,8.0791,8.0645,8.0167,7.936,7.936,7.9874,8.0828,8.1342,8.2039,8.2847,8.3654,8.3985,8.3985,8.4132,8.3801,8.3214,8.3214,8.2774,8.2186,8.2039,8.2076,8.2186,8.2039,8.2076,8.2333,8.2994,8.3288,8.3395,8.3372,8.3372,8.3376,8.3556,8.3464,8.3926,8.5992,8.6648,8.7047,8.807,8.7507,8.6696,8.628,8.6103,8.5747,8.4939,8.4278,8.3765,8.3654,8.303,8.2553,8.2443,8.2406,8.2333,8.2223,8.2186,8.1929,8.1269,8.1085,8.0388,7.8883,7.8662,7.8222,7.7378,7.7304,7.7304,7.7304,7.7304,7.7304,7.7304,7.7304,7.7304,7.7304,7.7304,7.7304,0.0,0.0,0.0,0.0,0.0,0.0,0.0,0.0,0.0,0.0,0.0,0.0,0.0,0.0,0.0,0.0,0.0,0.0,0.0,0.0,0.0,0.0,0.0,0.0,0.0,0.0,0.0,0.0,0.0,0.0,0.0,8.5196,8.4058,8.2553,8.2406,8.1672,8.0277,8.0167,8.0057,7.9947,7.925,7.8479,7.7635,7.7635,7.8479,7.991,7.9323,7.9543,8.0314,8.1158,8.1489,8.1562,8.226,8.2443,8.237,8.237,8.2296,8.2113,8.1415,8.1636,8.2076,8.1379,8.1636,8.2223,8.2333,8.3127,8.3914,8.3395,8.3618,8.4064,8.4195,8.3804,8.3618,8.4669,8.5411,8.6509,8.8541,8.739,8.6347,8.7539,8.7276,8.6591,8.5783,8.5527,8.5233,8.4535,8.4352,8.4022,8.3324,8.3251,8.2994,8.226,8.2186,8.215,8.2039,8.1415,8.0608,7.969,7.8993,7.8222,7.7378,7.7304,7.7304,7.7304,7.7304,7.7304,7.7304,7.7304,7.7304,7.7304,7.7304,7.7304,0.0,0.0,0.0,0.0,0.0,0.0,0.0,0.0,0.0,0.0,0.0,0.0,0.0,0.0,0.0,0.0,0.0,0.0,0.0,0.0,0.0,0.0,0.0,0.0,0.0,0.0,0.0,0.0,0.0,0.0,8.3801,8.259,8.1599,8.0865,8.0424,7.9837,7.914,7.8626,7.8405,7.8405,7.8038,7.7671,7.7304,7.7304,7.7965,7.9103,7.8736,7.9066,7.98,8.0167,8.0314,8.0351,8.0718,8.0865,8.0901,8.1342,8.1232,8.0865,8.0975,8.1232,8.1415,8.0571,8.1158,8.2113,8.1672,8.2797,8.4067,8.3415,8.3928,8.4542,8.3882,8.3552,8.3497,8.4412,8.4866,8.5714,8.8068,8.7476,8.6691,8.7386,8.7231,8.6885,8.6518,8.6077,8.5673,8.5306,8.4903,8.4462,8.4132,8.3691,8.3287,8.292,8.248,8.2186,8.2186,8.1893,8.1342,8.0534,7.9727,7.8883,7.8075,7.7561,7.7304,7.7304,7.7304,7.7304,7.7304,7.7304,7.7304,7.7304,7.7304,7.7304,0.0,0.0,0.0,0.0,0.0,0.0,0.0,0.0,0.0,0.0,0.0,0.0,0.0,0.0,0.0,0.0,0.0,0.0,0.0,0.0,0.0,0.0,0.0,0.0,0.0,0.0,0.0,0.0,0.0,8.2186,8.2186,8.0645,7.969,7.9507,7.8919,7.8479,7.8259,7.7635,7.7304,7.7304,7.7304,7.7304,7.7304,7.7304,7.7671,7.8259,7.8259,7.8626,7.9176,7.9396,7.9507,7.9507,7.969,7.98,7.9874,8.0461,8.0424,8.0131,8.0314,8.0681,8.0828,7.98,8.0424,8.1525,8.1122,8.235,8.3816,8.3522,8.4179,8.4651,8.3667,8.3189,8.3089,8.3787,8.4315,8.5243,8.7589,8.7683,8.7298,8.7298,8.7132,8.6995,8.6995,8.6518,8.6114,8.6114,8.56,8.5159,8.4939,8.4205,8.3654,8.3434,8.27,8.2186,8.2186,8.2186,8.1856,8.1048,8.0241,7.9433,7.8626,7.7781,7.7304,7.7304,7.7304,7.7304,7.7304,7.7304,7.7304,7.7304,7.7304,7.7304,0.0,5.7189,0.0,0.0,0.0,0.0,0.0,0.0,0.0,0.0,0.0,0.0,0.0,0.0,0.0,0.0,0.0,0.0,0.0,0.0,0.0,0.0,0.0,0.0,0.0,0.0,0.0,0.0,0.0,8.2186,8.2186,8.0645,7.9433,7.8699,7.8626,7.8222,7.7414,7.7341,7.7304,7.7304,7.7304,7.7304,7.7304,7.7304,7.7341,7.7378,7.7378,7.7414,7.7524,7.8332,7.8662,7.8736,7.9507,7.98,7.98,7.9837,8.0314,8.0718,7.925,7.9727,8.0755,7.9176,7.9213,8.0057,8.0791,8.1941,8.3122,8.3903,8.4179,8.4228,8.4179,8.3189,8.2251,8.2296,8.3471,8.5243,8.7589,8.8046,8.8046,8.8046,8.7526,8.6995,8.6995,8.6995,8.6958,8.6958,8.6921,8.6591,8.582,8.5049,8.4242,8.3508,8.27,8.2186,8.2186,8.2186,8.1856,8.1048,8.0241,7.9433,7.8626,7.7781,7.7304,7.7304,7.7304,7.7304,7.7304,7.7304,7.7304,7.7304,7.7304,7.7304,5.3298,0.0,0.0,0.0,0.0,0.0,0.0,0.0,0.0,0.0,0.0,0.0,0.0,0.0,0.0,0.0,0.0,0.0,0.0,0.0,0.0,0.0,0.0,0.0,0.0,0.0,0.0,0.0,0.0,0.0,7.991,7.8809,7.8075,7.7781,7.7781,7.7635,7.7304,7.7304,7.7304,7.7304,7.7304,7.7304,7.7304,7.7304,7.7304,7.7304,7.7304,7.7304,7.7341,7.7671,7.7781,7.7818,7.8075,7.8222,7.8259,7.8809,7.8846,7.8626,7.8626,7.8993,7.9286,7.8148,7.8699,7.9837,8.0131,8.1457,8.3095,8.3952,8.4467,8.4696,8.4276,8.3543,8.288,8.2941,8.4205,8.5758,8.7031,8.7339,8.7554,8.7985,8.7489,8.6995,8.6995,8.6995,8.6995,8.6995,8.6995,8.6921,8.6628,8.5416,8.4499,8.4205,8.2994,8.2186,8.2186,8.2186,8.1856,8.1048,8.0718,7.9984,7.8662,7.8295,7.7892,7.7341,7.7304,7.7304,7.7304,7.7304,7.7304,7.7304,7.7304,7.7304,5.1279,5.2747,0.0,0.0,0.0,0.0,0.0,0.0,0.0,0.0,0.0,0.0,0.0,0.0,0.0,0.0,0.0,0.0,0.0,0.0,0.0,0.0,0.0,0.0,0.0,0.0,0.0,0.0,0.0,0.0,7.8626,7.7781,7.7304,7.7304,7.7304,7.7304,7.7304,7.7304,7.7304,7.7304,7.7304,7.7304,7.7304,7.7304,7.7304,7.7304,7.7304,7.7304,7.7304,7.7304,7.7304,7.7304,7.7304,7.7304,7.7378,7.7965,7.8002,7.7781,7.8075,7.8369,7.8479,7.7598,7.8075,7.9066,7.9617,8.1047,8.2755,8.3877,8.4467,8.4696,8.4276,8.3767,8.3436,8.4044,8.5013,8.6089,8.7068,8.7119,8.7231,8.796,8.7489,8.6995,8.6995,8.6995,8.6995,8.6995,8.6995,8.6995,8.6995,8.582,8.4903,8.4646,8.3398,8.248,8.2223,8.2186,8.1966,8.1452,8.1158,8.0534,7.9433,7.914,7.8589,7.7781,7.7745,7.7598,7.7304,7.7304,7.7304,7.7304,7.7304,7.7304,0.0,0.0,0.0,0.0,0.0,0.0,0.0,0.0,0.0,0.0,0.0,0.0,0.0,0.0,0.0,0.0,0.0,0.0,0.0,0.0,0.0,0.0,0.0,0.0,0.0,0.0,0.0,0.0,0.0,7.8589,7.8552,7.7781,7.7304,7.7304,7.7304,7.7304,7.7304,7.7304,7.7268,7.7268,7.7268,7.7268,7.7268,7.7268,7.7268,7.7268,7.7268,7.7304,7.7304,7.7304,7.7304,7.7304,7.7304,7.7304,7.7304,7.7304,7.7855,7.8442,7.7598,7.7855,7.8405,7.7598,7.7304,7.7635,7.925,8.0638,8.2038,8.3688,8.4179,8.4179,8.4167,8.3802,8.3838,8.5343,8.5747,8.62,8.7663,8.7415,8.7157,8.7923,8.7489,8.6995,8.6995,8.6995,8.6995,8.6995,8.6995,8.6995,8.6995,8.6297,8.549,8.4719,8.3911,8.3104,8.2296,8.2223,8.2186,8.215,8.1452,8.1012,8.0975,8.0241,7.9433,7.8626,7.8589,7.8185,7.7304,7.7304,7.7304,7.7304,7.7304,7.7341,4.8049,0.0,0.0,0.0,0.0,0.0,6.2548,6.4714,0.0,0.0,0.0,0.0,0.0,0.0,0.0,0.0,0.0,0.0,0.0,0.0,0.0,0.0,0.0,0.0,0.0,0.0,0.0,0.0,7.8736,7.8332,7.7708,7.7451,7.7304,7.7304,7.6754,7.6717,7.7304,7.6717,7.6423,7.6423,7.6423,7.613,7.5579,7.5579,7.5873,7.6423,7.6423,7.679,7.7304,7.7304,7.7304,7.7304,7.7304,7.7304,7.7304,7.7304,7.7451,7.7635,7.7414,7.7488,7.7635,7.7414,7.7304,7.7524,7.8589,8.0228,8.1925,8.2982,8.3688,8.4129,8.3737,8.3908,8.4242,8.4095,8.4499,8.4896,8.4755,8.5029,8.5832,8.77,8.7489,8.6995,8.6995,8.6995,8.6995,8.6995,8.6995,8.6995,8.6995,8.6297,8.571,8.549,8.4242,8.3324,8.3104,8.2517,8.1929,8.1379,8.1672,8.1342,8.0167,8.0461,8.0021,7.8626,7.8589,7.8185,7.7304,7.7304,7.7304,7.7304,7.7304,7.7671,4.7902,0.0,0.0,0.0,0.0,0.0,5.8694,6.0272,6.2365,0.0,0.0,0.0,0.0,0.0,0.0,0.0,0.0,0.0,0.0,0.0,0.0,0.0,0.0,0.0,0.0,0.0,0.0,7.8075,7.8075,7.7855,7.7341,7.7304,7.7157,7.6827,7.635,7.6166,7.6313,7.5836,7.5616,7.5616,7.5616,7.5359,7.4918,7.4918,7.5175,7.5616,7.5946,7.6387,7.6827,7.7194,7.7304,7.7304,7.7304,7.7304,7.7304,7.7304,7.7304,7.7304,7.7304,7.7304,7.7304,7.7304,7.7304,7.7561,7.8736,8.0302,8.1963,8.3133,8.4028,8.4718,8.4842,8.4948,8.4976,8.4499,8.4756,8.4866,8.4058,8.4278,8.5073,8.6777,8.6782,8.6628,8.6958,8.6995,8.6995,8.6995,8.6995,8.6995,8.6995,8.6591,8.6151,8.582,8.4646,8.3765,8.3434,8.2663,8.2003,8.1525,8.1929,8.1782,8.0828,8.1232,8.0901,7.9617,7.925,7.8516,7.7304,7.7304,7.7304,7.7341,7.7671,7.8112,0.0,0.0,0.0,0.0,0.0,0.0,5.7776,5.8143,5.8364,0.0,0.0,0.0,0.0,0.0,0.0,0.0,0.0,0.0,0.0,0.0,0.0,0.0,0.0,0.0,0.0,7.7304,7.7304,7.7304,7.7304,7.7304,7.7304,7.7231,7.6864,7.613,7.5946,7.5542,7.4918,7.4808,7.4771,7.4771,7.4771,7.4735,7.4625,7.4625,7.4698,7.4808,7.5542,7.5946,7.6166,7.69,7.7231,7.7304,7.7304,7.7304,7.7304,7.7304,7.7304,7.7304,7.7304,7.7304,7.7304,7.7304,7.7304,7.7598,7.9066,8.0526,8.2038,8.3785,8.4832,8.556,8.6441,8.6148,8.5637,8.5527,8.5527,8.5306,8.4499,8.4315,8.4609,8.549,8.5747,8.604,8.6885,8.6995,8.6995,8.6995,8.6995,8.6995,8.6995,8.6995,8.6738,8.6004,8.5196,8.4425,8.3618,8.281,8.2296,8.2186,8.2186,8.2186,8.2186,8.2186,8.1819,8.1012,8.0131,7.8919,7.7451,7.7378,7.7304,7.7341,7.8112,7.8552,0.0,0.0,0.0,0.0,0.0,0.0,5.183,5.1977,5.3518,0.0,0.0,0.0,0.0,0.0,0.0,0.0,0.0,0.0,0.0,0.0,0.0,0.0,0.0,0.0,0.0,7.7304,7.7304,7.7304,7.7304,7.7304,7.7304,7.668,7.6276,7.6093,7.4845,7.4404,7.4918,7.4258,7.3927,7.3927,7.3927,7.3597,7.2973,7.2973,7.3303,7.3927,7.4111,7.4882,7.613,7.6276,7.6717,7.7304,7.7304,7.7304,7.7304,7.7304,7.7304,7.7304,7.7304,7.7304,7.7304,7.7304,7.7304,7.7378,7.7708,7.9595,8.2132,8.429,8.5166,8.5296,8.4964,8.4854,8.4682,8.4022,8.3875,8.3654,8.2847,8.2663,8.3104,8.4535,8.5343,8.604,8.6885,8.6995,8.6995,8.6995,8.6995,8.6995,8.6995,8.6995,8.6958,8.6775,8.604,8.5233,8.4425,8.3654,8.2884,8.2223,8.2186,8.2186,8.2186,8.2186,8.1819,8.1012,7.958,7.8662,7.8332,7.7671,7.7304,7.7304,7.7488,7.8295,0.0,0.0,0.0,5.1389,0.0,0.0,0.0,5.0765,5.1242,5.4876,0.0,0.0,0.0,0.0,0.0,0.0,0.0,0.0,0.0,0.0,0.0,0.0,0.0,0.0,0.0,7.6864,7.7304,7.7304,7.7304,7.7157,7.6717,7.6313,7.5726,7.4918,7.4111,7.3707,7.3707,7.3303,7.3083,7.3083,7.3083,7.2899,7.2496,7.2496,7.2716,7.312,7.3523,7.4147,7.4955,7.5763,7.635,7.6754,7.7157,7.7304,7.7304,7.7304,7.7304,7.7304,7.7304,7.7304,7.7304,7.7304,7.7304,7.7414,7.7818,7.9967,8.2755,8.4976,8.548,8.5436,8.55,8.5051,8.4389,8.3618,8.3398,8.3177,8.237,8.2517,8.3177,8.4389,8.5233,8.604,8.6885,8.6995,8.6885,8.6481,8.6738,8.6885,8.6444,8.6775,8.6848,8.6444,8.5673,8.4866,8.4058,8.3251,8.2627,8.2223,8.2186,8.2186,8.2186,8.2186,8.1819,8.1012,7.98,7.8993,7.8589,7.7745,7.7304,7.7341,7.8185,7.8993,0.0,0.0,0.0,0.0,0.0,5.1683,0.0,0.0,0.0,5.2344,0.0,0.0,0.0,0.0,0.0,0.0,0.0,0.0,0.0,0.0,0.0,0.0,0.0,0.0,0.0,7.5579,7.635,7.6827,7.6423,7.6093,7.5873,7.5726,7.4955,7.3487,7.345,7.3083,7.2275,7.2422,7.2496,7.2496,7.2496,7.2496,7.2496,7.2496,7.2496,7.2532,7.3193,7.3634,7.4037,7.5322,7.6056,7.6387,7.7047,7.7304,7.7304,7.7304,7.7304,7.7304,7.7304,7.7304,7.7304,7.7304,7.7304,7.7549,7.8772,8.0783,8.3142,8.5468,8.5616,8.5348,8.5952,8.5126,8.3985,8.3324,8.3177,8.2994,8.2333,8.27,8.3471,8.4425,8.5013,8.5673,8.6811,8.6995,8.6738,8.593,8.6481,8.6701,8.5894,8.6518,8.6701,8.5894,8.5233,8.4462,8.3508,8.281,8.237,8.2186,8.2186,8.2186,8.2186,8.2186,8.1893,8.1232,8.0277,7.947,7.8809,7.7818,7.7414,7.7598,7.8919,7.9727,0.0,0.0,0.0,0.0,5.6198,0.0,0.0,0.0,5.0729,5.1022,0.0,0.0,0.0,0.0,0.0,0.0,0.0,0.0,0.0,0.0,0.0,0.0,0.0,0.0,0.0,0.0,7.2899,7.5028,7.3193,7.2899,7.4955,7.4368,7.356,7.2679,7.2642,7.2275,7.1468,7.2165,7.2496,7.2496,7.2496,7.2496,7.2496,7.2496,7.2496,7.2496,7.2606,7.345,7.4808,7.4955,7.5909,7.7194,7.7268,7.7304,7.7304,7.7304,7.7304,7.7304,7.7304,7.7304,7.7304,7.7304,7.7304,7.7805,8.0503,8.1603,8.2468,8.5315,8.5276,8.4367,8.4443,8.345,8.2443,8.237,8.2333,8.2296,8.2223,8.226,8.2774,8.4315,8.4095,8.4389,8.6628,8.6995,8.6738,8.593,8.6481,8.6701,8.5894,8.6518,8.6701,8.5894,8.571,8.5049,8.3544,8.3324,8.2957,8.226,8.2186,8.2186,8.2186,8.2186,8.215,8.2076,8.0571,7.9764,7.9653,7.8075,7.7708,7.8479,7.8662,7.9507,0.0,0.0,0.0,0.0,0.0,0.0,0.0,0.0,5.0949,0.0,0.0,0.0,0.0,0.0,0.0,0.0,0.0,0.0,0.0,0.0,0.0,0.0,0.0,0.0,0.0,0.0,0.0,0.0,0.0,7.0844,7.1394,7.2422,7.2422,7.1138,7.2018,7.2129,7.1321,7.2092,7.2496,7.2496,7.2496,7.2496,7.2496,7.2496,7.2496,7.2496,7.2496,7.2899,7.3597,7.4515,7.5322,7.6019,7.6974,7.7304,7.7304,7.7304,7.7304,7.7304,7.7304,7.7304,7.7304,7.7304,7.7304,7.768,7.9642,8.0603,8.1521,8.3972,8.4093,8.3575,8.4066,8.3189,8.2186,8.2186,8.2186,8.2186,8.2186,8.2553,8.3104,8.3765,8.471,8.5604,8.6182,8.6297,8.604,8.5233,8.5783,8.6004,8.5196,8.582,8.6004,8.5196,8.5086,8.4462,8.2847,8.27,8.2553,8.2223,8.2186,8.2186,8.2186,8.2186,8.2186,8.2186,8.1085,8.0498,8.0498,7.9323,7.9176,7.9984,7.9507,7.991,5.9061,0.0,0.0,0.0,0.0,0.0,0.0,0.0,0.0,0.0,0.0,0.0,0.0,0.0,0.0,0.0,0.0,0.0,0.0,0.0,0.0,0.0,0.0,0.0,0.0,0.0,0.0,6.754,6.7504,6.7687,6.8201,7.011,7.0734,6.9816,7.1138,7.1468,7.066,7.1431,7.1945,7.2165,7.2165,7.2312,7.2496,7.2496,7.261,7.2742,7.261,7.272,7.3148,7.4133,7.4698,7.5065,7.646,7.6974,7.7011,7.7231,7.7304,7.7304,7.7304,7.7304,7.7304,7.7304,7.7304,7.7547,7.8915,7.9859,8.0908,8.2832,8.3252,8.3276,8.3737,8.3172,8.2471,8.2251,8.2186,8.2186,8.2186,8.2663,8.3141,8.3361,8.4579,8.5645,8.5772,8.6133,8.6053,8.5117,8.5416,8.56,8.5013,8.5233,8.5306,8.4976,8.4535,8.3801,8.2627,8.2333,8.2186,8.2186,8.2186,8.2186,8.2186,8.2186,8.2186,8.2186,8.1415,8.1012,8.1012,8.0167,8.0204,8.1012,8.0388,8.0571,0.0,0.0,0.0,5.9575,0.0,0.0,0.0,0.0,5.4987,0.0,0.0,0.0,0.0,0.0,0.0,0.0,0.0,0.0,0.0,0.0,0.0,0.0,0.0,0.0,0.0,0.0,0.0,6.4053,6.2034,6.2438,6.6366,6.7393,6.8201,6.8935,6.9743,6.9779,6.8972,6.9779,7.0587,7.1358,7.1358,7.1762,7.2496,7.2496,7.2816,7.3341,7.2761,7.3259,7.448,7.3958,7.4184,7.4992,7.5799,7.613,7.624,7.7011,7.7304,7.7304,7.7304,7.7304,7.7304,7.7304,7.7304,7.7537,7.9038,7.9967,8.0817,8.2332,8.3252,8.3697,8.3115,8.3067,8.2994,8.2343,8.2186,8.2186,8.2186,8.2223,8.248,8.3251,8.281,8.3096,8.538,8.7063,8.7502,8.5992,8.5783,8.5783,8.5747,8.5086,8.4939,8.5673,8.4389,8.3434,8.3398,8.2663,8.2186,8.2186,8.2186,8.2186,8.2186,8.2186,8.2186,8.2186,8.1415,8.1012,8.1012,8.0167,8.0204,8.1012,8.0975,8.1379,0.0,0.0,6.8641,6.2658,0.0,0.0,0.0,0.0,0.0,0.0,0.0,0.0,0.0,0.0,0.0,5.2197,0.0,0.0,0.0,0.0,0.0,0.0,0.0,0.0,0.0,0.0,0.0,5.8437,5.818,5.9098,0.0,6.5007,6.6806,6.6549,6.8862,6.9706,6.8898,6.9706,7.0513,7.1321,7.1321,7.1968,7.3066,7.3066,7.3442,7.398,7.3341,7.3372,7.3787,7.3757,7.3854,7.4184,7.4992,7.5616,7.6203,7.7011,7.7304,7.7304,7.7304,7.7304,7.7304,7.7304,7.7304,7.7547,7.8901,7.9472,8.003,8.1879,8.2721,8.3053,8.2926,8.3067,8.3053,8.2343,8.2186,8.2186,8.2186,8.2186,8.226,8.2553,8.315,8.3954,8.4889,8.6249,8.6969,8.5956,8.5343,8.5013,8.5013,8.4315,8.3911,8.4168,8.4205,8.3765,8.27,8.237,8.2186,8.2186,8.2186,8.2186,8.2186,8.2186,8.2186,8.2186,8.1929,8.1782,8.1782,8.1525,8.1525,8.1782,8.1782,8.1929,6.6733,6.8641,0.0,6.5264,6.453,0.0,5.8474,0.0,0.0,0.0,0.0,0.0,0.0,0.0,0.0,5.3482,5.3097,5.2112,0.0,4.9193,0.0,0.0,0.0,0.0,0.0,0.0,5.506,5.3959,5.462,5.5904,0.0,0.0,6.464,6.5301,6.7871,6.9009,6.8495,6.9265,7.0073,7.0881,7.1174,7.2041,7.3391,7.3391,7.3841,7.4547,7.3747,7.3541,7.3725,7.3425,7.3266,7.3377,7.4478,7.5212,7.5763,7.6607,7.7084,7.7304,7.7304,7.7304,7.7304,7.7304,7.7304,7.745,7.8272,7.909,7.994,8.1334,8.2373,8.3046,8.3012,8.3077,8.3053,8.2343,8.2186,8.2186,8.2186,8.2406,8.2627,8.2627,8.3372,8.4151,8.4492,8.5401,8.6111,8.6182,8.5527,8.5123,8.5416,8.4278,8.3618,8.4205,8.3948,8.3324,8.2296,8.2186,8.2186,8.2186,8.2186,8.2186,8.2186,8.2186,8.248,8.303,8.248,8.248,8.303,8.248,8.2186,8.2186,8.2186,8.2186]},{"header":{"parameterUnit":"m.s-1","parameterCategory":1,"la1":30.6,"la2":29.2853,"lo1":-89.7004,"lo2":-87.6739,"dy":0.0162,"dx":0.0183,"nx":112,"ny":82,"refTime":"2023-10-14T00:00:00:Z","depth":0,"parameterNumber":3,"parameterNumberName":"V-component_of_WINDS"},"data":[0.0,0.0,0.0,0.0,0.0,0.0,0.0,0.0,0.0,0.0,0.0,0.0,0.0,0.0,0.0,0.0,0.0,0.0,0.0,0.0,0.0,0.0,0.0,0.0,0.0,0.0,0.0,0.0,0.0,0.0,0.0,0.0,0.0,0.0,0.0,0.0,0.0,0.0,0.0,0.0,0.0,0.0,0.0,0.0,0.0,0.0,0.0,0.0,0.0,0.0,0.0,0.0,0.0,0.0,0.0,0.0,0.0,0.0,0.0,0.0,0.0,0.0,0.0,0.0,0.0,0.0,0.0,0.0,0.0,0.0,0.0,0.0,0.0,0.0,0.0,0.0,0.0,0.0,0.0,0.0,0.0,0.0,0.0,0.0,0.0,0.0,0.0,0.0,0.0,0.0,0.0,-2.8984,-3.418,-3.7728,-3.8329,-3.4865,-3.1361,-2.8635,0.0,0.0,0.0,0.0,0.0,0.0,0.0,0.0,0.0,0.0,0.0,0.0,0.0,0.0,0.0,0.0,0.0,0.0,0.0,0.0,0.0,0.0,0.0,0.0,0.0,0.0,0.0,0.0,0.0,0.0,0.0,0.0,0.0,0.0,0.0,0.0,0.0,0.0,0.0,0.0,0.0,0.0,0.0,0.0,0.0,0.0,0.0,0.0,0.0,0.0,0.0,0.0,0.0,0.0,0.0,0.0,0.0,0.0,0.0,0.0,0.0,0.0,0.0,0.0,0.0,0.0,0.0,0.0,0.0,0.0,0.0,0.0,0.0,0.0,0.0,0.0,0.0,0.0,0.0,0.0,0.0,0.0,0.0,0.0,0.0,0.0,0.0,0.0,0.0,0.0,0.0,0.0,0.0,0.0,0.0,0.0,0.0,0.0,0.0,0.0,0.0,0.0,0.0,0.0,-2.7734,-3.2676,-3.6309,-3.8111,-3.7576,-3.3988,-3.0053,-2.6057,0.0,0.0,0.0,0.0,0.0,0.0,0.0,0.0,0.0,0.0,0.0,0.0,0.0,0.0,0.0,0.0,0.0,0.0,0.0,0.0,0.0,0.0,0.0,0.0,0.0,0.0,0.0,0.0,0.0,0.0,0.0,0.0,0.0,0.0,0.0,0.0,0.0,0.0,0.0,0.0,0.0,0.0,0.0,0.0,0.0,0.0,0.0,0.0,0.0,0.0,0.0,0.0,0.0,0.0,0.0,0.0,0.0,0.0,0.0,0.0,0.0,0.0,0.0,0.0,0.0,0.0,0.0,0.0,0.0,0.0,0.0,0.0,0.0,0.0,0.0,0.0,0.0,0.0,0.0,0.0,0.0,0.0,0.0,0.0,0.0,0.0,0.0,0.0,0.0,0.0,0.0,0.0,0.0,0.0,0.0,0.0,0.0,0.0,0.0,0.0,0.0,0.0,0.0,-2.734,-2.9258,-3.3906,-3.6914,-3.8078,-3.7076,-3.3856,-2.9856,-2.5442,-2.2393,0.0,0.0,0.0,0.0,0.0,0.0,0.0,0.0,0.0,0.0,0.0,0.0,0.0,0.0,0.0,0.0,0.0,0.0,0.0,0.0,0.0,0.0,0.0,0.0,0.0,0.0,0.0,0.0,0.0,0.0,0.0,0.0,0.0,0.0,0.0,0.0,0.0,0.0,0.0,0.0,0.0,0.0,0.0,0.0,0.0,0.0,0.0,0.0,0.0,0.0,0.0,0.0,0.0,0.0,0.0,0.0,0.0,0.0,0.0,0.0,0.0,0.0,0.0,0.0,0.0,0.0,0.0,0.0,0.0,0.0,0.0,0.0,0.0,0.0,0.0,0.0,0.0,0.0,0.0,0.0,0.0,0.0,0.0,0.0,0.0,0.0,0.0,0.0,0.0,0.0,0.0,0.0,0.0,0.0,0.0,0.0,0.0,0.0,0.0,0.0,0.0,0.0,-2.947,-3.0898,-3.4473,-3.709,-3.7963,-3.6525,-3.344,-2.9682,-2.5319,-2.1194,0.0,0.0,0.0,0.0,0.0,0.0,0.0,0.0,0.0,0.0,0.0,0.0,0.0,0.0,0.0,0.0,0.0,0.0,0.0,0.0,0.0,0.0,0.0,0.0,0.0,0.0,0.0,0.0,0.0,0.0,0.0,0.0,0.0,0.0,0.0,0.0,0.0,0.0,0.0,0.0,0.0,0.0,0.0,0.0,0.0,0.0,0.0,0.0,0.0,0.0,0.0,0.0,0.0,0.0,0.0,0.0,0.0,0.0,0.0,0.0,0.0,0.0,0.0,0.0,0.0,0.0,0.0,0.0,0.0,0.0,0.0,0.0,0.0,0.0,0.0,0.0,0.0,0.0,0.0,0.0,0.0,0.0,0.0,0.0,0.0,0.0,0.0,0.0,0.0,0.0,0.0,0.0,0.0,0.0,0.0,0.0,0.0,0.0,0.0,0.0,0.0,0.0,-2.9824,-3.2363,-3.5059,-3.7285,-3.7849,-3.6146,-3.221,-2.8345,-2.4918,-2.026,0.0,0.0,0.0,0.0,0.0,0.0,0.0,0.0,0.0,0.0,0.0,0.0,0.0,0.0,0.0,0.0,0.0,0.0,0.0,0.0,0.0,0.0,0.0,0.0,0.0,0.0,0.0,0.0,0.0,0.0,0.0,0.0,0.0,0.0,0.0,0.0,0.0,0.0,0.0,0.0,0.0,0.0,0.0,0.0,0.0,0.0,0.0,0.0,0.0,0.0,0.0,0.0,0.0,0.0,0.0,0.0,0.0,0.0,0.0,0.0,0.0,0.0,0.0,0.0,0.0,0.0,0.0,0.0,0.0,0.0,0.0,0.0,0.0,0.0,0.0,0.0,0.0,0.0,0.0,0.0,0.0,0.0,0.0,0.0,0.0,0.0,0.0,0.0,0.0,0.0,0.0,0.0,0.0,0.0,0.0,0.0,0.0,0.0,0.0,0.0,0.0,0.0,-2.9699,-3.1816,0.0,-3.6894,-3.7085,-3.4384,-3.1854,-2.8348,-2.332,0.0,0.0,0.0,0.0,0.0,0.0,0.0,0.0,0.0,0.0,0.0,0.0,0.0,0.0,0.0,0.0,0.0,0.0,0.0,0.0,0.0,0.0,0.0,0.0,0.0,0.0,0.0,0.0,0.0,0.0,0.0,0.0,0.0,0.0,0.0,0.0,0.0,0.0,0.0,0.0,0.0,0.0,0.0,0.0,0.0,0.0,0.0,0.0,0.0,0.0,0.0,0.0,0.0,0.0,0.0,0.0,0.0,0.0,0.0,0.0,0.0,0.0,0.0,0.0,0.0,0.0,0.0,0.0,0.0,0.0,0.0,0.0,0.0,0.0,0.0,0.0,0.0,0.0,0.0,0.0,0.0,0.0,0.0,0.0,0.0,0.0,0.0,0.0,0.0,0.0,0.0,0.0,0.0,0.0,0.0,0.0,0.0,0.0,0.0,0.0,0.0,0.0,-2.8005,-2.963,-3.1543,0.0,-3.6523,-3.6614,-3.3683,-3.1378,-2.7825,-2.2921,0.0,0.0,0.0,0.0,0.0,0.0,0.0,0.0,0.0,0.0,0.0,0.0,0.0,0.0,0.0,0.0,0.0,0.0,0.0,0.0,0.0,0.0,0.0,0.0,0.0,0.0,0.0,0.0,0.0,0.0,0.0,0.0,0.0,0.0,0.0,0.0,0.0,0.0,0.0,0.0,0.0,0.0,0.0,0.0,0.0,0.0,0.0,0.0,0.0,0.0,0.0,0.0,0.0,0.0,0.0,0.0,0.0,0.0,0.0,0.0,0.0,0.0,0.0,0.0,0.0,0.0,0.0,0.0,0.0,0.0,0.0,0.0,0.0,0.0,0.0,0.0,0.0,0.0,0.0,0.0,0.0,0.0,0.0,0.0,0.0,0.0,0.0,0.0,0.0,0.0,0.0,0.0,0.0,0.0,0.0,0.0,0.0,0.0,0.0,0.0,0.0,0.0,-2.7383,-2.9551,-3.1855,-3.4414,-3.625,-3.654,-3.463,-3.0495,-2.6877,0.0,0.0,0.0,0.0,0.0,0.0,0.0,0.0,0.0,0.0,0.0,0.0,0.0,0.0,0.0,0.0,0.0,0.0,0.0,0.0,0.0,0.0,0.0,0.0,0.0,0.0,0.0,0.0,0.0,0.0,0.0,0.0,0.0,0.0,0.0,0.0,0.0,0.0,0.0,0.0,0.0,0.0,0.0,0.0,0.0,0.0,0.0,0.0,0.0,0.0,0.0,0.0,0.0,0.0,0.0,0.0,0.0,0.0,0.0,0.0,0.0,0.0,0.0,0.0,0.0,0.0,0.0,0.0,0.0,0.0,0.0,0.0,0.0,0.0,0.0,0.0,0.0,0.0,0.0,0.0,0.0,0.0,0.0,0.0,0.0,0.0,0.0,0.0,0.0,0.0,0.0,0.0,0.0,0.0,0.0,0.0,0.0,0.0,0.0,0.0,0.0,0.0,0.0,-2.6973,-2.9082,-3.1387,-3.3984,-3.5547,-3.5218,-3.2302,-2.9885,-2.6632,-2.2145,0.0,0.0,0.0,0.0,0.0,0.0,0.0,0.0,0.0,0.0,0.0,0.0,0.0,0.0,0.0,0.0,0.0,0.0,0.0,0.0,0.0,0.0,0.0,0.0,0.0,0.0,0.0,0.0,0.0,0.0,0.0,0.0,0.0,0.0,0.0,0.0,0.0,0.0,0.0,0.0,0.0,0.0,0.0,0.0,0.0,0.0,0.0,0.0,0.0,0.0,0.0,0.0,0.0,0.0,0.0,0.0,0.0,0.0,0.0,0.0,0.0,0.0,0.0,0.0,0.0,0.0,0.0,0.0,0.0,0.0,0.0,0.0,0.0,0.0,0.0,0.0,0.0,0.0,0.0,0.0,0.0,0.0,0.0,0.0,0.0,0.0,0.0,0.0,0.0,0.0,0.0,0.0,0.0,0.0,0.0,0.0,0.0,0.0,0.0,0.0,0.0,0.0,-2.6797,-2.873,-3.0879,-3.3301,-3.4883,-3.452,-3.1617,-2.9766,-2.6713,-2.1888,0.0,0.0,0.0,0.0,0.0,0.0,0.0,0.0,0.0,0.0,0.0,0.0,0.0,0.0,0.0,0.0,0.0,0.0,0.0,0.0,0.0,0.0,0.0,0.0,0.0,0.0,0.0,0.0,0.0,0.0,0.0,0.0,0.0,0.0,0.0,0.0,0.0,0.0,0.0,0.0,0.0,0.0,0.0,0.0,0.0,0.0,0.0,0.0,0.0,0.0,0.0,0.0,0.0,0.0,0.0,0.0,0.0,0.0,0.0,0.0,0.0,0.0,0.0,0.0,0.0,0.0,0.0,0.0,0.0,0.0,0.0,0.0,0.0,0.0,0.0,0.0,0.0,0.0,0.0,0.0,0.0,0.0,0.0,0.0,0.0,0.0,0.0,0.0,0.0,0.0,0.0,0.0,0.0,0.0,0.0,0.0,0.0,0.0,0.0,0.0,0.0,0.0,-2.6855,-2.8496,-3.0351,-3.2559,-3.4238,-3.4375,-3.2095,-2.9837,-2.6898,-2.2742,0.0,0.0,0.0,0.0,0.0,0.0,0.0,0.0,0.0,0.0,0.0,0.0,0.0,0.0,0.0,0.0,0.0,0.0,0.0,0.0,0.0,0.0,0.0,0.0,0.0,0.0,0.0,0.0,0.0,0.0,0.0,0.0,0.0,0.0,0.0,0.0,0.0,0.0,0.0,0.0,0.0,0.0,0.0,0.0,0.0,0.0,0.0,0.0,0.0,0.0,0.0,0.0,0.0,0.0,0.0,0.0,0.0,0.0,0.0,0.0,-2.5293,0.0,0.0,0.0,0.0,0.0,0.0,0.0,0.0,0.0,0.0,0.0,0.0,0.0,0.0,0.0,0.0,0.0,0.0,0.0,0.0,0.0,0.0,0.0,0.0,0.0,0.0,0.0,0.0,0.0,0.0,0.0,0.0,0.0,0.0,0.0,0.0,0.0,0.0,0.0,0.0,0.0,-2.7266,-2.8418,-3.0019,-3.2519,-3.3418,-3.3135,-3.1643,-2.9198,-2.6346,-2.3047,0.0,0.0,0.0,0.0,0.0,0.0,0.0,0.0,0.0,0.0,0.0,0.0,0.0,0.0,0.0,0.0,0.0,0.0,0.0,0.0,0.0,0.0,0.0,0.0,0.0,0.0,0.0,0.0,0.0,0.0,0.0,0.0,0.0,0.0,0.0,0.0,0.0,0.0,0.0,0.0,0.0,0.0,0.0,0.0,0.0,0.0,0.0,0.0,0.0,0.0,0.0,0.0,0.0,0.0,0.0,0.0,0.0,0.0,0.0,0.0,0.0,-2.5226,0.0,0.0,0.0,0.0,0.0,0.0,0.0,0.0,0.0,0.0,0.0,0.0,0.0,0.0,0.0,0.0,0.0,0.0,0.0,0.0,0.0,0.0,0.0,0.0,0.0,0.0,0.0,0.0,0.0,0.0,0.0,0.0,0.0,0.0,0.0,0.0,0.0,0.0,0.0,0.0,-2.7383,-2.8398,-2.9766,-3.1953,-3.293,-3.3038,-3.2147,-2.9532,-2.6909,-2.4563,-2.0787,0.0,0.0,0.0,0.0,0.0,0.0,0.0,0.0,0.0,0.0,0.0,0.0,0.0,0.0,0.0,0.0,0.0,0.0,0.0,0.0,0.0,0.0,0.0,0.0,0.0,0.0,0.0,0.0,0.0,0.0,0.0,0.0,0.0,0.0,0.0,0.0,0.0,0.0,0.0,0.0,0.0,0.0,0.0,0.0,0.0,0.0,0.0,0.0,0.0,0.0,0.0,0.0,0.0,0.0,0.0,-3.3187,-3.2988,-3.2638,-3.211,-2.7811,-2.5821,-2.5502,0.0,0.0,0.0,0.0,0.0,0.0,0.0,0.0,0.0,0.0,0.0,0.0,0.0,0.0,0.0,0.0,0.0,0.0,0.0,0.0,0.0,0.0,0.0,0.0,0.0,-2.8359,-2.7988,0.0,0.0,0.0,0.0,0.0,0.0,0.0,0.0,0.0,0.0,0.0,0.0,-2.7402,-2.8398,-2.959,-3.1328,-3.2461,-3.2988,-3.2715,-2.9829,-2.7444,-2.6032,-2.1803,-1.8771,0.0,0.0,0.0,0.0,0.0,0.0,0.0,0.0,0.0,0.0,0.0,0.0,0.0,0.0,0.0,0.0,0.0,0.0,0.0,0.0,0.0,0.0,0.0,0.0,0.0,0.0,0.0,0.0,0.0,0.0,0.0,0.0,-2.418,-2.4238,0.0,0.0,0.0,0.0,0.0,0.0,0.0,0.0,0.0,0.0,0.0,0.0,0.0,0.0,-3.2559,-3.3476,-3.4219,-3.4805,-3.5234,-3.4391,-3.2708,-3.2672,-3.1878,-3.0582,-2.809,0.0,-2.7398,-2.6879,0.0,0.0,0.0,0.0,0.0,0.0,0.0,0.0,0.0,0.0,0.0,0.0,0.0,0.0,0.0,0.0,0.0,0.0,0.0,0.0,0.0,0.0,-2.9062,-2.8008,-2.8594,-2.9121,0.0,-2.7383,-2.6699,-2.5898,0.0,0.0,0.0,0.0,0.0,0.0,0.0,0.0,-2.748,-2.8398,-2.959,-3.1328,-3.166,-3.1894,-3.2226,-2.8924,-2.6504,-2.5863,-2.1803,-1.9052,-1.8343,-1.7769,0.0,0.0,0.0,0.0,0.0,0.0,0.0,0.0,0.0,0.0,0.0,0.0,0.0,0.0,0.0,0.0,0.0,0.0,0.0,0.0,0.0,0.0,0.0,0.0,0.0,0.0,0.0,0.0,0.0,-2.5371,-2.6406,-2.4961,-2.6191,-2.6543,0.0,0.0,0.0,0.0,0.0,0.0,0.0,0.0,0.0,-3.0125,-3.1212,-3.2224,-3.328,-3.4537,-3.5499,-3.6311,-3.6942,-3.612,-3.3987,-3.4205,-3.4001,-3.3323,-3.2316,-3.0972,-2.9421,-2.6777,-2.4731,-2.3257,0.0,0.0,0.0,0.0,0.0,-2.959,-3.0293,0.0,0.0,0.0,0.0,0.0,0.0,0.0,0.0,0.0,0.0,0.0,0.0,0.0,0.0,-3.0019,-3.0625,-3.1094,-3.0,-2.9062,-2.8125,0.0,-2.6309,-2.5879,-2.5879,0.0,0.0,0.0,0.0,0.0,-2.7793,-2.8535,-2.9492,-3.0996,-3.1367,-3.1601,-3.1777,-2.8835,-2.6753,-2.6222,-2.2228,-1.9599,-1.9011,-1.825,-1.7822,0.0,0.0,0.0,0.0,0.0,0.0,0.0,0.0,0.0,0.0,0.0,0.0,0.0,0.0,0.0,0.0,0.0,0.0,0.0,0.0,0.0,0.0,0.0,0.0,0.0,0.0,0.0,0.0,-2.7051,-2.8242,-2.5996,-2.7832,-2.834,0.0,0.0,0.0,0.0,0.0,0.0,-3.125,-3.1558,-3.1837,-3.1979,-3.2607,-3.3231,-3.4053,-3.5418,-3.6372,-3.7212,-3.777,-3.7048,-3.5192,-3.5462,-3.5225,-3.47,-3.425,-3.2965,-3.0694,-2.732,-2.4739,-2.3029,-2.4329,-2.5205,-2.5945,-2.7641,-2.9379,-3.1104,-3.1402,-3.1546,-3.1522,-3.0616,0.0,-2.9432,-2.8191,0.0,0.0,0.0,0.0,-3.0137,-3.0449,0.0,-3.2441,-3.2226,-3.2734,-3.2969,-3.1797,-3.1016,-3.0019,0.0,-2.7383,-2.7012,-2.7012,0.0,0.0,0.0,0.0,-2.6348,-2.8066,-2.875,-2.9551,-3.0762,-3.1172,-3.1367,-3.1367,-2.8518,-2.6694,-2.6414,-2.2559,-2.012,-1.9613,-1.8811,-1.8277,-1.805,0.0,0.0,0.0,0.0,0.0,0.0,0.0,0.0,0.0,0.0,0.0,0.0,0.0,0.0,0.0,0.0,0.0,0.0,0.0,0.0,0.0,0.0,0.0,0.0,0.0,0.0,0.0,0.0,0.0,-2.7695,-3.0156,0.0,0.0,0.0,0.0,-3.0566,-3.1426,-3.2656,-3.4375,-3.3083,-3.3464,-3.5616,-3.4709,-3.4957,-3.6524,-3.6931,-3.7499,-3.7876,-3.7908,-3.6854,-3.5189,-3.5204,-3.3931,-3.1894,-3.1313,-3.0859,-3.0745,-2.9501,-2.8059,-2.6503,-2.5805,-2.6557,-2.8036,-2.7749,-2.9211,-3.1096,-2.8758,-2.9074,-3.0307,-2.9127,-2.9287,-2.969,-2.8505,-2.9381,0.0,0.0,-3.0742,-3.1426,-3.1445,-3.2402,-3.3457,-3.3848,-3.4277,-3.4355,-3.3496,-3.3262,-3.2246,0.0,-2.7578,-2.7012,-2.7012,0.0,-2.6738,-2.6426,-2.7051,-2.7715,-2.8223,-2.9023,-2.9883,-3.0801,-3.0918,-3.0918,-3.0918,-2.7984,-2.6017,-2.6001,-2.2646,-2.0508,-2.0201,-1.9626,-1.9292,-1.9279,-1.8731,0.0,0.0,0.0,0.0,0.0,0.0,0.0,0.0,0.0,0.0,0.0,0.0,0.0,0.0,0.0,0.0,0.0,0.0,0.0,0.0,0.0,0.0,0.0,0.0,0.0,0.0,0.0,0.0,-3.1387,-3.3789,0.0,0.0,-3.1953,-3.2539,-3.3711,-3.3067,-3.3762,-3.6054,-3.4847,-3.4261,-3.4782,-3.4756,-3.515,-3.6037,-3.6374,-3.6589,-3.6899,-3.6899,-3.5658,-3.3545,-3.3545,-3.2982,-3.2211,-3.181,-3.153,-3.1236,-3.056,-2.9187,-2.7519,-2.602,-2.6514,-2.8052,-2.8076,-2.9393,-3.0976,-3.06,-3.0759,-3.071,-2.898,-2.8256,-2.793,-2.7068,-2.7469,-2.8442,-2.9937,-3.0954,-3.1984,-3.3174,-3.3576,-3.3373,-3.2877,-3.225,-3.1528,-3.0758,-3.0408,-2.9717,-2.8375,-2.8362,-2.875,-2.9023,-2.793,-2.7246,-2.791,-2.8047,-2.832,-2.9023,-2.9609,-3.0215,-3.082,-3.0898,-3.0509,-2.9412,-2.7314,-2.5521,-2.4221,-2.193,-2.0454,-1.9973,-1.9573,-1.9185,-1.8811,-1.8597,-1.849,0.0,0.0,0.0,0.0,0.0,0.0,0.0,0.0,0.0,0.0,0.0,0.0,0.0,0.0,0.0,0.0,0.0,0.0,0.0,0.0,0.0,0.0,0.0,0.0,0.0,0.0,-3.4414,-3.4687,-3.7148,-3.772,-3.4865,-3.4671,-3.478,-3.5139,-3.4434,-3.4933,-3.7145,-3.5686,-3.4748,-3.4611,-3.4436,-3.4488,-3.4996,-3.5212,-3.5313,-3.5313,-3.5313,-3.4353,-3.2839,-3.2839,-3.2839,-3.2826,-3.2532,-3.2291,-3.2064,-3.1476,-3.0488,-2.9165,-2.7509,-2.7415,-2.8403,-2.8447,-2.9553,-3.1024,-3.1526,-3.095,-2.9824,-2.8203,-2.7687,-2.754,-2.6966,-2.728,-2.8354,-2.9935,-3.0787,-3.1598,-3.2984,-3.3103,-3.2593,-3.1844,-3.0949,-3.0184,-2.9453,-2.9044,-2.8652,-2.8311,-2.8497,-2.8799,-2.875,-2.751,-2.6811,-2.7438,-2.7308,-2.7364,-2.8048,-2.884,-2.9545,-2.9982,-3.0528,-3.0274,-2.8545,-2.6953,-2.5182,-2.3052,-2.1488,-2.0267,-1.9679,-1.9466,-1.9185,-1.8798,-1.8691,-1.8584,-1.849,0.0,0.0,0.0,0.0,0.0,0.0,0.0,0.0,0.0,0.0,0.0,0.0,0.0,0.0,0.0,0.0,0.0,0.0,0.0,0.0,0.0,0.0,0.0,-3.0391,-3.4434,-3.7383,-3.748,-4.0117,-4.0273,-3.5976,-3.6709,-3.6713,-3.4935,-3.5473,-3.6483,-3.7727,-3.5929,-3.5118,-3.5942,-3.4004,-3.3146,-3.3427,-3.344,-3.344,-3.344,-3.3427,-3.3427,-3.344,-3.3414,-3.3414,-3.3414,-3.312,-3.2986,-3.2933,-3.2358,-3.1957,-3.1557,-3.0087,-2.9339,-2.9032,-2.8738,-2.9761,-3.1227,-3.1063,-2.93,-2.7215,-2.6627,-2.7465,-2.8512,-2.8203,-2.9189,-3.0357,-3.0357,-3.0502,-3.0631,-3.0614,-3.086,-3.1121,-3.1105,-3.0843,-3.05,-2.9981,-2.978,-2.9322,-2.8603,-2.7784,-2.6954,-2.5986,-2.5774,-2.5512,-2.4825,-2.4711,0.0,-2.5288,-2.6776,-2.7894,-2.8271,-2.9785,-3.0039,-2.8444,-2.6832,-2.4948,-2.2736,-2.1032,-1.9933,-1.9359,-1.9345,-1.9345,-1.9359,-1.9078,-1.8784,-1.8504,0.0,0.0,0.0,0.0,0.0,0.0,0.0,0.0,0.0,0.0,0.0,0.0,0.0,0.0,0.0,0.0,0.0,0.0,0.0,0.0,0.0,0.0,-3.5117,-3.4922,-3.709,-3.9492,-4.168,-4.3516,-4.3365,-4.0287,-4.0368,-3.9722,-3.7712,-3.6355,-3.6017,-3.6967,-3.4832,-3.3739,-3.4124,-3.3868,-3.3681,-3.3761,-3.3961,-3.4068,-3.4068,-3.3855,-3.3868,-3.4055,-3.3614,-3.3534,-3.3734,-3.3427,-3.3173,-3.2973,-3.2799,-3.2572,-3.2185,-3.0915,-3.0127,-2.9633,-2.9352,-2.9393,-2.9583,-2.9281,-2.8805,-2.8136,-2.7535,-2.7595,-2.796,-2.7657,-2.781,-2.8475,-2.9619,-3.0007,-3.0345,-3.1199,-3.0728,-2.9808,-2.9317,-2.828,-2.7207,-2.6666,-2.6481,-2.6239,-2.547,-2.5215,-2.5535,-2.6761,-2.6602,-2.6175,-2.5978,-2.5731,0.0,-2.5819,-2.6198,-2.6574,-2.6945,-2.7364,-2.6996,-2.5405,-2.4454,-2.2931,-2.0767,-1.9739,-1.9118,-1.8744,-1.8731,-1.8824,-1.9038,-1.8958,-1.8878,0.0,0.0,0.0,0.0,0.0,0.0,0.0,0.0,0.0,0.0,0.0,0.0,0.0,0.0,0.0,0.0,0.0,0.0,0.0,0.0,0.0,0.0,-3.6543,-3.9062,-4.0273,-4.1133,-4.248,-4.4785,-4.6211,-4.5583,-4.204,-4.1827,-4.0507,-3.7126,-3.5803,-3.5294,-3.565,-3.4323,-3.3614,-3.3788,-3.3975,-3.4068,-3.4068,-3.4242,-3.4322,-3.4322,-3.4148,-3.4095,-3.4122,-3.3774,-3.3641,0.0,-3.3494,-3.332,-3.316,-3.316,-3.2986,0.0,0.0,0.0,0.0,0.0,-2.9219,-2.8831,-2.8671,-2.8524,-2.835,-2.8003,-2.7883,-2.7856,-2.7682,-2.7549,-2.773,-2.8663,-2.883,-2.8964,-2.9673,-2.9247,-2.8332,-2.7848,-2.6859,-2.6012,-2.5545,-2.5251,-2.4943,-2.4476,0.0,0.0,-2.5502,-2.5257,-2.4759,-2.4477,-2.425,-2.4067,-2.3931,-2.4532,-2.5087,-2.517,-2.5805,-2.5558,-2.3968,-2.338,0.0,0.0,0.0,-1.8971,-1.8691,-1.8677,0.0,0.0,0.0,-1.9105,-1.9105,0.0,0.0,0.0,-1.9822,-2.0996,0.0,0.0,0.0,0.0,0.0,0.0,0.0,0.0,0.0,0.0,0.0,0.0,0.0,0.0,0.0,0.0,-3.9639,-4.1882,-4.528,-4.5087,-4.5261,-4.7012,-4.8001,-4.6802,-4.219,-4.1686,-3.969,-3.476,-3.4336,-3.4336,-3.4362,0.0,0.0,0.0,0.0,-3.4376,-3.4376,-3.4402,-3.4416,-3.4416,-3.4389,-3.4255,-3.4028,-3.3961,-3.3774,-3.3507,-3.348,-3.344,-3.3414,-3.3414,-3.324,-3.2893,-3.2011,-3.149,-3.1089,-2.9993,-2.9259,0.0,0.0,0.0,0.0,-2.8203,-2.8177,-2.8136,-2.8136,-2.7963,-2.7749,-2.7709,-2.7509,-2.7308,-2.7268,-2.7241,-2.7148,-2.6881,-2.66,-2.6306,-2.6012,-2.5545,-2.509,-2.4796,-2.4502,-2.4128,-2.3567,-2.314,-2.2579,-2.1777,-2.1617,-2.151,-2.1243,-2.2412,-2.3399,-2.3429,0.0,0.0,-2.3509,-2.3044,-2.1982,-1.9999,-1.9519,-1.9199,-1.8931,-1.8918,-1.9052,-1.9319,-1.9386,-1.9412,-1.9412,-1.9452,-1.9466,-1.9466,-1.9399,-2.0141,0.0,0.0,0.0,0.0,0.0,0.0,0.0,0.0,0.0,0.0,0.0,0.0,0.0,0.0,0.0,-4.0059,-4.1563,-4.3124,-4.5238,-4.3782,-4.3972,-4.7964,-4.7084,-4.5184,-4.2708,-4.04,-3.781,-3.4864,-3.4456,-3.4429,-3.467,-3.4456,0.0,-3.467,-3.4683,-3.4683,-3.4683,-3.491,-3.503,-3.503,0.0,0.0,-3.4923,-3.4456,-3.4202,-3.4135,-3.3895,-3.3654,-3.3414,-3.3414,-3.324,-3.2893,-3.2011,-3.149,-3.1142,-3.0448,-3.0114,-2.9953,-2.9486,-2.9112,-2.8831,-2.8591,-2.835,-2.8136,-2.8136,-2.8096,0.0,-2.7762,-2.7655,-2.7562,-2.7321,-2.7094,-2.6894,-2.6841,-2.66,-2.6306,-2.6012,-2.5865,-2.5705,-2.5398,-2.5104,-2.4796,-2.4449,-2.3541,-2.2726,-2.2311,-2.2044,-2.1884,-2.183,-2.1862,-2.2066,-2.2298,-2.2365,-2.234,-2.197,-2.1464,-2.089,-2.0174,-1.9426,-1.8985,-1.8931,-1.8918,-1.8945,-1.9011,-1.9479,-1.972,-1.972,-1.9947,-2.0067,-2.0054,-1.9586,-2.0141,0.0,0.0,0.0,0.0,0.0,0.0,0.0,0.0,0.0,0.0,0.0,-2.8807,0.0,0.0,-3.6692,-3.9609,-4.0942,-4.2022,-4.3551,-4.2887,-4.3495,-4.7041,-4.554,-4.3852,-4.3021,-4.0434,-3.7953,-3.5603,-3.5004,-3.4883,-3.5177,-3.5057,-3.4977,-3.4977,-3.5124,-3.5124,-3.4977,-3.5124,-3.5191,-3.5191,-3.5044,-3.4977,-3.4963,-3.4683,-3.4456,-3.4309,-3.4015,-3.3801,-3.3641,-3.348,-3.324,-3.2933,-3.2492,-3.1971,-3.1396,-3.0955,-3.0515,-3.0074,-2.9633,-2.9192,-2.8778,-2.847,-2.827,-2.8136,-2.8136,-2.8136,-2.811,-2.7963,-2.7923,-2.7883,-2.7749,-2.7589,-2.7442,-2.7295,-2.7148,-2.6921,-2.648,-2.6279,-2.6079,-2.5798,-2.5384,-2.4983,-2.469,-2.4022,-2.3327,-2.2726,-2.2512,-2.2311,-2.2017,-2.1857,-2.1764,-2.1764,-2.1643,-2.1496,-2.1336,-2.0922,-2.0548,-2.0254,-1.9826,-1.9573,-1.9573,-1.9573,-1.9573,-1.9573,-1.9867,-2.0013,-2.0013,-2.016,-2.0227,-2.0227,-1.9933,-2.026,0.0,0.0,0.0,0.0,0.0,0.0,0.0,0.0,-2.5927,-2.5586,-2.7538,-2.9868,-3.2205,-3.3912,-3.6075,-3.877,-3.9768,-4.0497,-4.1432,-4.1464,-4.2166,-4.4592,-4.3473,-4.2464,-4.2593,-4.0284,-3.8027,-3.6262,-3.5578,-3.5378,-3.5618,-3.5685,-3.5605,-3.5378,-3.5591,-3.5605,-3.5364,-3.5311,-3.5284,-3.5284,-3.5217,-3.507,-3.4843,-3.4843,-3.4683,-3.4389,-3.4042,-3.3855,-3.3774,-3.3521,-3.328,-3.3053,-3.2933,-3.2465,-3.1797,-3.1436,-3.0795,-3.0047,-2.9753,-2.9272,-2.8724,-2.8417,-2.8283,-2.8217,-2.8163,-2.8136,-2.8136,-2.8136,-2.8136,-2.8136,-2.8136,-2.8096,-2.7989,-2.7749,-2.7655,-2.7468,-2.6934,-2.664,-2.6386,-2.6092,-2.5611,-2.5157,-2.485,-2.4569,-2.4048,-2.31,-2.2953,-2.2752,-2.2218,-2.2111,-2.1977,-2.175,-2.167,-2.1537,-2.1296,-2.1015,-2.0748,-2.0508,-2.0388,-2.0321,-2.0321,-2.0267,-2.0227,-2.0227,-2.0294,-2.0321,-2.0321,-2.0374,-2.0401,-2.0401,-2.0401,-2.0347,-2.1122,-2.1953,-2.3037,-2.4037,-2.4154,-2.4376,0.0,0.0,-2.6153,-2.6905,-2.9229,-3.1345,-3.2218,-3.5429,-3.8445,-3.9887,-3.9563,-3.9341,-3.994,-3.8225,-3.7687,-4.0031,-4.0061,-4.0138,-4.0724,-3.7999,-3.6166,-3.6046,-3.5765,-3.5591,-3.5631,-3.5885,-3.6006,-3.5979,-3.6006,-3.6006,-3.5979,-3.5712,-3.5578,-3.5578,-3.5324,-3.5177,-3.5151,-3.5151,-3.499,-3.4683,-3.4135,-3.3721,-3.3467,-3.3427,-3.3387,-3.3307,-3.2799,-3.2532,-3.2385,-3.1824,-3.1223,-3.0648,-3.0368,-2.9873,-2.9339,-2.9032,-2.8764,-2.8497,-2.823,-2.8136,-2.8136,-2.8136,-2.8136,-2.8136,-2.8136,-2.7949,-2.7736,-2.7709,-2.7495,-2.7228,-2.6894,-2.68,-2.6694,-2.64,-2.6079,-2.5772,-2.5464,-2.517,-2.4596,-2.3447,-2.3273,-2.3153,-2.2806,-2.2539,-2.2352,-2.2325,-2.2084,-2.1924,-2.1884,-2.1617,-2.1443,-2.1403,-2.0922,-2.0628,-2.0628,-2.0374,-2.0227,-2.0227,-2.0494,-2.0628,-2.0628,-2.0882,-2.1015,-2.1015,-2.1015,-2.0735,-2.1563,-2.2863,0.0,0.0,-2.5166,-2.613,-2.684,-2.7241,-2.7802,-2.8845,-3.0465,-3.193,-3.2947,-3.4682,-3.6414,0.0,-3.7273,-3.7209,-3.7503,-3.6462,-3.6058,-3.6817,-3.6915,-3.7871,-4.0178,-3.7699,-3.6086,-3.654,-3.6299,-3.6139,-3.6139,-3.658,-3.662,-3.6086,-3.6393,-3.6393,-3.6072,-3.5952,-3.5805,-3.5631,-3.5511,-3.5364,-3.5191,-3.5191,-3.5044,-3.4736,-3.4322,-3.3975,-3.3681,-3.3494,-3.3414,-3.3387,-3.3146,-3.2946,-3.2706,-3.1944,-3.141,-3.0996,-3.0715,-3.0221,-2.9686,-2.9392,-2.9098,-2.8804,-2.8497,-2.8417,-2.8377,-2.819,-2.8136,-2.8136,-2.8136,-2.8056,-2.7963,-2.7963,-2.7869,-2.7696,-2.7402,-2.7201,-2.6987,-2.6694,-2.6266,-2.5919,-2.5798,-2.5531,-2.5104,-2.4449,-2.4062,-2.3674,-2.3193,-2.302,-2.2806,-2.2458,-2.2164,-2.1991,-2.1991,-2.1871,-2.1804,-2.1804,-2.1577,-2.1363,-2.1189,-2.1069,-2.0922,-2.0748,-2.0869,-2.1015,-2.1189,-2.1309,-2.1456,-2.1617,-2.1617,-2.1483,-2.2031,0.0,0.0,-2.4985,-2.6413,-2.8056,-2.8751,-2.9446,-3.0247,-3.1343,-3.2144,-3.2946,-3.3948,-3.4362,-3.4763,-3.5404,-3.5645,-3.5819,-3.6046,-3.5819,-3.5351,-3.4616,-3.4629,-3.5718,-3.8077,-3.7076,-3.6286,-3.6794,-3.6767,-3.6727,-3.662,-3.7195,-3.7168,-3.6473,-3.6834,-3.6834,-3.6313,-3.6233,-3.6086,-3.5872,-3.5712,-3.5511,-3.5311,-3.5231,-3.5044,-3.475,-3.4456,-3.4148,-3.3855,-3.3547,-3.3414,-3.34,-3.332,-3.312,-3.2772,-3.2051,-3.1597,-3.1303,-3.1009,-3.0528,-2.998,-2.9606,-2.9285,-2.8965,-2.8591,-2.8484,-2.843,-2.8203,-2.8136,-2.8136,-2.8136,-2.8136,-2.8136,-2.8136,-2.8136,-2.8056,-2.7762,-2.7535,-2.7268,-2.6894,-2.648,-2.6146,-2.5985,-2.5785,-2.5531,-2.5237,-2.477,-2.4235,-2.3647,-2.35,-2.3287,-2.2832,-2.2605,-2.2445,-2.2365,-2.2271,-2.2191,-2.2111,-2.2031,-2.1897,-2.1683,-2.159,-2.1483,-2.1349,-2.1189,-2.1296,-2.167,-2.159,-2.1697,-2.1991,-2.1991,-2.2031,0.0,0.0,-2.4583,-2.6306,-2.8096,-2.986,-3.1583,-3.2639,-3.3521,-3.4442,-3.487,-3.5017,-3.4776,-3.4977,-3.5177,-3.5204,-3.5685,-3.6059,-3.6072,-3.5819,-3.5204,-3.4055,-3.3654,-3.3587,0.0,-3.5244,-3.6193,-3.65,-3.7048,-3.7235,-3.6941,-3.7489,-3.7676,-3.7342,-3.7342,-3.7235,-3.6901,-3.6647,-3.65,-3.6473,-3.5899,-3.5631,-3.5605,-3.5324,-3.5044,-3.475,-3.4456,-3.4148,-3.3855,-3.3547,-3.3414,-3.3387,-3.3106,-3.2812,-3.2519,-3.2211,-3.1904,-3.161,-3.1316,-3.0835,-3.0247,-2.9673,-2.9285,-2.8925,-2.8337,-2.8163,-2.815,-2.815,-2.8136,-2.8136,-2.8136,-2.8136,-2.8136,-2.8136,-2.8136,-2.8056,-2.7762,-2.7696,-2.7509,-2.6934,-2.6814,-2.6613,-2.6052,-2.5945,-2.5838,-2.5545,-2.5251,-2.4836,-2.4249,-2.3928,-2.3754,-2.3728,-2.3728,-2.3607,-2.3313,-2.3006,-2.2712,-2.2418,-2.2138,-2.1977,-2.1977,-2.1697,-2.1683,-2.1951,-2.1403,-2.139,-2.1977,-2.1697,-2.1697,-2.1991,-2.1991,-2.2138,-2.3674,0.0,-2.7495,-2.9072,-3.0782,-3.2398,-3.3601,-3.4389,-3.4857,-3.4776,-3.4536,-3.4229,-3.3921,-3.3948,-3.4215,-3.4817,-3.5565,-3.6072,-3.6072,-3.5819,-3.4977,-3.32,-3.3427,0.0,0.0,0.0,0.0,-3.6433,-3.7048,-3.7342,-3.7235,-3.7996,-3.8183,-3.7676,-3.7676,-3.7529,-3.7235,-3.6941,-3.6607,-3.6206,-3.5618,-3.5338,-3.5338,-3.5244,-3.5137,-3.5017,-3.4536,-3.4269,-3.4135,-3.3627,-3.3414,-3.34,-3.3307,-3.3093,-3.2799,-3.2505,-3.2211,-3.1917,-3.1623,-3.1142,-3.0621,-3.0421,-2.9887,-2.9259,-2.8858,-2.8604,-2.8404,-2.8203,-2.8136,-2.8136,-2.8136,-2.8136,-2.8136,-2.8136,-2.8136,-2.8123,-2.8016,-2.7843,-2.7642,-2.7442,-2.7241,-2.7054,-2.6854,-2.6827,-2.6653,-2.6172,-2.5344,-2.4649,-2.4249,-2.3955,-2.3768,-2.3768,-2.3768,-2.3728,-2.3634,-2.334,-2.3126,-2.3033,-2.2739,-2.2472,-2.2285,-2.2178,-2.2084,-2.1991,-2.179,-2.1884,-2.2271,-2.2178,-2.2285,-2.2565,-2.2565,-2.2619,-2.6039,-2.807,-3.01,-3.1797,-3.3293,-3.4589,-3.5498,-3.5752,-3.5618,-3.5044,-3.4189,-3.34,-3.2879,-3.2532,-3.2679,-3.3788,-3.4349,-3.4883,-3.5511,-3.5164,-3.4309,-3.2866,-3.312,-3.3187,0.0,0.0,0.0,-3.6086,-3.6834,-3.7275,-3.7382,-3.8143,-3.837,-3.7996,-3.7849,-3.7676,-3.7382,-3.7088,-3.6647,-3.6072,-3.5685,-3.5404,-3.5191,-3.5191,-3.5191,-3.5164,-3.4576,-3.4322,-3.4269,-3.3668,-3.3414,-3.3414,-3.3414,-3.324,-3.2946,-3.2652,-3.2358,-3.2064,-3.177,-3.1289,-3.0768,-3.0675,-3.0114,-2.9432,-2.9125,-2.8831,-2.8564,-2.8364,-2.823,-2.8136,-2.8136,-2.8136,-2.8136,-2.8136,-2.8136,-2.8136,-2.8136,-2.7989,-2.7829,-2.7722,-2.7549,-2.7388,-2.7281,-2.7268,-2.7068,-2.648,-2.5745,-2.5117,-2.4716,-2.4516,-2.4356,-2.4249,-2.4235,-2.4155,-2.3941,-2.3754,-2.3594,-2.3487,-2.3193,-2.2939,-2.2752,-2.2539,-2.2378,-2.2298,-2.2098,-2.2178,-2.2579,-2.2579,-2.2726,-2.3033,-2.314,-2.318,-2.8657,-3.0515,-3.2358,-3.4349,-3.5485,-3.6326,-3.7128,-3.666,-3.5832,-3.5151,-3.3828,-3.2492,0.0,0.0,-3.0768,-3.2225,-3.2358,-3.2879,-3.4616,-3.4148,-3.348,0.0,0.0,0.0,0.0,0.0,0.0,-3.5538,0.0,-3.7048,-3.7382,-3.7969,-3.829,-3.829,-3.7996,-3.7702,-3.7422,-3.7048,-3.662,-3.6072,-3.6046,-3.5738,-3.5191,-3.5191,-3.5191,-3.5137,-3.4563,-3.4309,-3.4255,-3.3654,-3.3414,-3.3414,-3.3414,-3.3227,-3.2919,-3.2652,-3.2345,-3.2038,-3.1757,-3.1289,-3.0742,-3.0474,-2.9967,-2.9432,-2.9152,-2.8845,-2.8604,-2.8604,-2.8377,-2.8136,-2.8136,-2.8136,-2.8136,-2.8136,-2.8136,-2.8136,-2.8136,-2.8136,-2.8056,-2.7776,-2.7722,-2.7629,-2.7362,-2.7295,-2.7094,-2.652,-2.6426,-2.6199,-2.5585,-2.5518,-2.5411,-2.513,-2.5104,-2.4877,-2.4315,-2.4249,-2.4115,-2.3834,-2.3527,-2.334,-2.3327,-2.2766,-2.2592,-2.2859,-2.2325,-2.2325,-2.2886,-2.2899,-2.306,-2.3213,-2.3634,-2.3768,-3.1022,-3.3093,-3.4857,-3.5819,-3.6393,-3.6647,-3.6473,-3.5899,-3.4883,-3.2959,-3.1223,-2.9566,0.0,0.0,0.0,-3.1036,-3.32,0.0,-3.5939,-3.6046,0.0,0.0,0.0,-3.4589,-3.3935,-3.4402,0.0,0.0,-3.6366,-3.6941,-3.7676,-3.829,-3.8611,-3.8611,-3.829,-3.7996,-3.7702,-3.6767,-3.6219,-3.6072,-3.5631,-3.5338,-3.5191,-3.5191,-3.5084,-3.4857,-3.4482,-3.4202,-3.3961,-3.3574,-3.3414,-3.3414,-3.3414,-3.3106,-3.2652,-3.2572,-3.2225,-3.177,-3.169,-3.1289,-3.0782,-3.0702,-3.014,-2.9472,-2.9392,-2.9018,-2.8604,-2.8604,-2.8377,-2.8136,-2.8136,-2.8136,-2.8136,-2.8136,-2.8136,-2.8136,-2.8136,-2.8136,-2.8123,-2.8043,-2.803,-2.8003,-2.7936,-2.7736,-2.7468,-2.7094,-2.6854,-2.6426,-2.5611,-2.5518,-2.5478,-2.5411,-2.5398,-2.5344,-2.5197,-2.4783,-2.4489,-2.4422,-2.3941,-2.3554,-2.334,-2.318,-2.302,-2.2859,-2.2939,-2.306,-2.3207,-2.3434,-2.2847,-2.146,-2.3002,-2.3028,-3.3828,-3.5605,-3.6901,-3.7382,-3.7408,-3.7008,-3.5778,-3.4736,-3.3213,-3.0327,-2.8537,0.0,0.0,0.0,0.0,0.0,0.0,0.0,-3.5925,-3.6259,-3.6112,0.0,-3.5738,0.0,-3.4963,-3.5431,-3.5965,0.0,-3.6473,-3.6901,-3.7782,-3.825,-3.8584,-3.8718,-3.8437,-3.8036,-3.7635,-3.6834,-3.6326,-3.6072,-3.5738,-3.5444,-3.5191,-3.5191,-3.5044,-3.475,0.0,-3.4148,-3.3855,-3.3547,-3.3414,-3.3414,-3.3414,-3.3213,-3.2893,-3.2639,-3.2345,-3.2011,-3.1757,-3.1289,-3.0795,-3.0795,-3.0368,-2.9847,-2.9713,-2.9259,-2.8818,-2.8951,-2.8684,-2.835,-2.835,-2.835,-2.831,-2.8177,-2.8136,-2.8136,-2.8136,-2.8136,-2.8136,-2.8136,-2.8136,-2.8136,-2.8136,-2.8003,-2.7789,-2.7495,-2.7308,-2.6934,-2.6186,-2.5972,-2.5852,-2.5718,-2.5705,-2.5651,-2.5518,-2.5211,-2.497,-2.4836,-2.4409,-2.4022,-2.3728,-2.3594,-2.3447,-2.326,-2.3434,-2.3527,-2.3527,-2.3821,-2.2921,-2.1002,-2.3194,-2.3164,-3.654,-3.7782,-3.8437,-3.8718,-3.821,-3.7088,-3.5004,-3.3227,-3.1036,-2.7575,0.0,-2.4636,-2.3287,-2.4543,-2.64,-2.8297,0.0,-3.3133,-3.5578,-3.5925,-3.6046,-3.638,-3.658,-3.6473,-3.5965,-3.638,-3.6794,-3.7088,-3.6874,-3.7088,-3.7823,-3.8143,-3.8437,-3.8718,-3.8397,-3.7969,-3.7448,-3.7048,-3.662,-3.6072,-3.6032,-3.5725,-3.5191,-3.5191,-3.5017,-3.4696,0.0,0.0,-3.3801,-3.3521,-3.3414,-3.3414,-3.3414,-3.3387,-3.3293,-3.2746,-3.2519,-3.2412,-3.1864,-3.1343,-3.0902,-3.0822,-3.0568,-3.0247,-2.9993,-2.9539,-2.9152,-2.9406,-2.9085,-2.8657,-2.8617,-2.8604,-2.8524,-2.8217,-2.8136,-2.8136,-2.8136,-2.8136,-2.8136,-2.8136,-2.8136,-2.8136,-2.8136,-2.8136,-2.8043,-2.7749,-2.7696,-2.7495,-2.6947,-2.6627,-2.6333,-2.6052,-2.6012,-2.5905,-2.5651,-2.5558,-2.5411,-2.5157,-2.4823,-2.4502,-2.4209,-2.3968,-2.3808,-2.3768,-2.3808,-2.3834,-2.3834,-2.4115,-2.3057,-2.0978,-2.3189,-2.3292,-3.7889,-3.8691,-3.9012,-3.9078,-3.7889,-3.6126,-3.3814,-3.1209,0.0,0.0,-2.3594,-2.2365,-2.163,-2.334,-2.5692,-2.8203,0.0,0.0,0.0,0.0,-3.7635,0.0,0.0,0.0,0.0,0.0,0.0,0.0,0.0,0.0,-3.8183,-3.8477,-3.8651,-3.8718,-3.8183,-3.7849,-3.7742,-3.6981,-3.6393,-3.6072,-3.5819,-3.5525,-3.5191,-3.5191,-3.491,-3.4389,0.0,0.0,-3.3494,-3.3427,-3.3414,-3.3414,-3.3414,-3.3267,-3.3013,-3.2679,-3.2385,-3.2131,-3.1784,-3.1597,-3.1436,-3.0955,-3.0434,-2.998,-2.9927,-2.9673,-2.9419,-2.9472,-2.9232,-2.8911,-2.8671,-2.8604,-2.8524,-2.8217,-2.8136,-2.8136,-2.8136,-2.8136,-2.8136,-2.8136,-2.8136,-2.8136,-2.8136,-2.8136,-2.8043,-2.7749,-2.7696,-2.7575,-2.7228,-2.6934,-2.664,-2.6346,-2.6319,-2.6293,-2.6239,-2.5785,-2.5491,-2.5438,-2.493,-2.4502,-2.4209,-2.4155,-2.4022,-2.3768,-2.4008,-2.4128,-2.4128,-2.4422,-2.2596,-1.9124,-2.1348,-2.1323,-3.9012,-3.9626,-3.9773,-3.9452,-3.7809,-3.5458,-3.2332,0.0,0.0,0.0,-2.1804,-2.1082,-2.0334,-2.2378,0.0,0.0,0.0,0.0,0.0,0.0,0.0,0.0,0.0,0.0,0.0,0.0,0.0,0.0,0.0,0.0,-3.8504,-3.8651,-3.8718,-3.8718,-3.829,-3.7969,-3.7809,-3.7088,-3.65,-3.6072,-3.5765,-3.5471,-3.5191,-3.5191,-3.487,-3.4322,-3.4322,0.0,-3.3414,-3.3414,-3.3414,-3.3414,-3.3414,-3.332,-3.3173,-3.2879,-3.2585,-3.2291,-3.1998,-3.169,-3.1396,-3.1116,-3.0728,-3.0341,-3.0194,-2.9833,-2.9513,-2.9673,-2.9499,-2.9245,-2.9098,-2.8951,-2.8751,-2.8457,-2.8257,-2.8136,-2.8136,-2.8136,-2.8136,-2.8136,-2.8136,-2.8136,-2.8136,-2.8136,-2.8096,-2.7949,-2.7923,-2.7816,-2.7535,-2.7362,-2.7108,-2.6667,-2.648,-2.6386,-2.6386,-2.6132,-2.5838,-2.5531,-2.5251,-2.489,-2.4449,-2.4422,-2.4369,-2.4222,-2.4356,-2.4422,-2.4436,-2.4569,-2.2582,-1.8744,-2.0854,-2.0274,-3.9813,-4.0294,-4.0334,-3.9746,-3.7676,-3.4803,-3.1036,-2.7963,0.0,-2.1323,-2.0428,-2.0134,-1.9559,-2.1403,-2.3541,0.0,-2.7241,0.0,0.0,0.0,0.0,0.0,0.0,0.0,0.0,0.0,0.0,0.0,0.0,0.0,-3.8718,-3.8718,-3.8718,-3.8718,-3.8437,-3.8116,-3.7809,-3.7301,-3.6727,-3.6072,-3.5832,-3.5538,-3.5191,-3.5191,-3.491,-3.4416,-3.4349,0.0,0.0,-3.344,-3.3414,-3.3414,-3.3414,-3.3414,-3.3374,-3.3013,-3.2746,-3.2492,-3.2131,-3.1704,-3.1316,-3.1316,-3.1036,-3.0662,-3.0434,-2.9993,-2.9619,-2.9847,-2.9753,-2.9566,-2.9499,-2.9259,-2.8951,-2.8591,-2.8323,-2.8136,-2.8136,-2.8136,-2.8136,-2.8136,-2.8136,-2.8136,-2.8136,-2.8136,-2.8136,-2.8136,-2.8136,-2.8056,-2.7829,-2.7736,-2.7522,-2.7054,-2.6694,-2.6453,-2.6386,-2.6333,-2.6092,-2.5638,-2.5545,-2.5277,-2.4756,-2.473,-2.4703,-2.4636,-2.4636,-2.4636,-2.4636,-2.4703,-2.2704,-1.8916,-2.055,-1.9553,-4.0187,-4.0441,-4.0334,-3.9746,-3.7235,-3.3948,-3.0368,0.0,-2.3621,-2.0842,-1.9639,-1.9225,-1.9679,-2.0201,-2.1563,0.0,-2.6413,-2.9058,0.0,0.0,0.0,0.0,0.0,0.0,0.0,0.0,0.0,0.0,0.0,0.0,0.0,-3.8718,-3.8718,-3.8718,-3.8437,-3.8116,-3.7809,-3.7489,-3.6914,-3.6072,-3.6046,-3.5738,-3.5191,-3.5191,-3.5017,-3.471,0.0,0.0,0.0,-3.3534,-3.3414,-3.3414,-3.3414,-3.3414,-3.3347,-3.2786,-3.2572,-3.2465,-3.1904,-3.1677,-3.1623,-3.1623,-3.1076,-3.0394,-3.0368,-3.014,-2.9887,-2.9913,-2.99,-2.982,-2.9553,-2.9259,-2.8898,-2.8323,-2.8163,-2.8136,-2.8136,-2.8136,-2.8136,-2.8136,-2.8136,-2.8136,-2.8136,-2.8136,-2.8136,-2.8136,-2.8136,-2.8136,-2.811,-2.7869,-2.7682,-2.7629,-2.7121,-2.668,-2.6413,-2.6146,-2.5972,-2.5919,-2.5665,-2.5371,-2.505,-2.5037,-2.4917,-2.4636,-2.4636,-2.4636,-2.4636,-2.4903,-2.2888,-1.8762,-1.9467,-1.8567,-3.9893,-4.0615,-4.0588,-4.0,-3.7155,-3.3654,-3.0474,0.0,-2.302,-2.0708,-1.9679,-1.9265,-1.9492,-1.9773,-2.0681,-2.2859,-2.3554,-2.5344,-2.9726,-3.0795,-3.2425,0.0,0.0,0.0,0.0,0.0,0.0,0.0,0.0,0.0,0.0,-3.8718,-3.8651,-3.8437,-3.833,-3.7929,-3.7301,-3.7155,-3.6687,-3.5805,-3.5805,-3.5591,-3.5191,-3.5191,-3.5044,-3.475,0.0,0.0,0.0,-3.3547,-3.3414,-3.3414,-3.3414,-3.3414,-3.3387,-3.3146,-3.2959,-3.2746,-3.2332,-3.2078,-3.1904,-3.173,-3.1196,-3.0621,-3.0621,-3.0287,-2.9913,-2.9913,-2.9913,-2.9887,-2.978,-2.9392,-2.8885,-2.8283,-2.8136,-2.8136,-2.8136,-2.8136,-2.8136,-2.8136,-2.8136,-2.8136,-2.8136,-2.8136,-2.8136,-2.8136,-2.8136,-2.8136,-2.8136,-2.8043,-2.7896,-2.7722,-2.7175,-2.6774,-2.6653,-2.6386,-2.6146,-2.5972,-2.5838,-2.5651,-2.5358,-2.517,-2.5024,-2.4903,-2.4903,-2.481,-2.4636,-2.5104,-2.3145,-1.8952,-1.9253,-1.7718,-3.8878,-4.0147,-4.0615,-3.996,-3.6981,-3.3374,0.0,-2.6306,-2.2712,-2.0548,-1.9639,-1.9265,-1.9359,-1.9533,-2.012,-2.1496,-2.1844,-2.3287,-2.7161,-2.8177,-2.9953,0.0,0.0,0.0,0.0,0.0,0.0,0.0,0.0,0.0,0.0,-3.8504,-3.8397,-3.8263,-3.8183,-3.7782,-3.7088,-3.6981,-3.654,-3.5765,-3.5672,-3.5471,-3.5191,-3.5191,-3.5084,-3.487,0.0,0.0,0.0,-3.3574,-3.3414,-3.3414,-3.3414,-3.3414,-3.34,-3.332,-3.3106,-3.2812,-3.2519,-3.2225,-3.1944,-3.173,-3.1276,-3.0795,-3.0795,-3.0381,-2.9913,-2.9913,-2.9913,-2.99,-2.9806,-2.9486,-2.9045,-2.8524,-2.8404,-2.8377,-2.8297,-2.8283,-2.8257,-2.8163,-2.8136,-2.8136,-2.8136,-2.8136,-2.8136,-2.8136,-2.8136,-2.8136,-2.8136,-2.8136,-2.8056,-2.7856,-2.7375,-2.7041,-2.6961,-2.676,-2.652,-2.6226,-2.6213,-2.6039,-2.5665,-2.5451,-2.5304,-2.5211,-2.5211,-2.5104,-2.489,-2.5398,-2.3426,-1.9173,-1.9394,-1.7656,-3.7021,-3.8918,-4.0254,-3.9372,-3.65,-3.2973,-2.9432,-2.5879,-2.2659,-2.0294,-1.9332,-1.9025,-1.9319,-1.9372,-1.976,-2.0922,-2.2098,-2.3981,-2.7241,-2.8724,0.0,0.0,0.0,0.0,0.0,0.0,0.0,0.0,0.0,0.0,0.0,-3.7996,-3.7956,-3.8263,-3.7969,-3.7676,-3.7382,-3.7088,-3.6647,-3.6059,-3.5765,-3.5471,-3.5191,-3.5191,-3.5191,0.0,0.0,0.0,0.0,-3.3668,-3.3414,-3.3414,-3.3414,-3.3414,-3.3374,-3.3093,-3.2799,-3.2505,-3.2211,-3.1917,-3.1677,-3.1664,-3.1276,-3.0795,-3.0795,-3.0381,-2.9913,-2.9913,-2.9913,-2.9847,-2.9566,-2.9486,-2.9406,-2.9098,-2.9032,-2.8951,-2.8671,-2.8604,-2.8511,-2.8203,-2.8136,-2.8136,-2.8136,-2.8136,-2.8136,-2.8136,-2.8136,-2.8136,-2.8136,-2.8136,-2.8136,-2.8136,-2.7869,-2.7575,-2.7281,-2.7255,-2.7134,-2.6827,-2.6814,-2.656,-2.5972,-2.5945,-2.5812,-2.5518,-2.5504,-2.5504,-2.5504,-2.5798,-2.3707,-1.9563,-1.9796,-1.876,-3.3267,-3.4696,-3.5431,-3.4549,-3.2291,-2.9713,-2.7575,-2.4663,-2.1964,-2.0414,-1.9626,-1.9252,-1.9345,-1.9372,-1.9947,-2.1724,-2.2311,-2.342,-2.5865,0.0,0.0,0.0,0.0,0.0,0.0,0.0,0.0,0.0,0.0,0.0,0.0,0.0,-3.7569,-3.7676,-3.7569,-3.7275,-3.6794,-3.6687,-3.6353,-3.5765,-3.5672,-3.5471,-3.5191,-3.5191,0.0,0.0,0.0,0.0,0.0,-3.3574,-3.3414,-3.3414,-3.3414,-3.3414,-3.34,-3.3307,-3.3093,-3.2799,-3.2505,-3.2211,-3.1931,-3.173,-3.1276,-3.0795,-3.0795,-3.0381,-2.9913,-2.9913,-2.9913,-2.9847,-2.9566,-2.9486,-2.9406,-2.9112,-2.9045,-2.8965,-2.8671,-2.8604,-2.8511,-2.8203,-2.8136,-2.8136,-2.8136,-2.8136,-2.8136,-2.8136,-2.8136,-2.8136,-2.8136,-2.8136,-2.8136,-2.8136,-2.8056,-2.7883,-2.7589,-2.7375,-2.7228,-2.7134,-2.6934,-2.6734,-2.656,-2.6159,-2.5919,-2.5825,-2.5812,-2.5718,-2.5518,-2.6012,-2.3989,-1.9796,-1.8244,-1.7302,-2.9673,-3.149,-3.2231,-3.079,-2.9375,-2.7649,-2.5139,-2.3261,-2.1456,-2.0174,-1.9626,-1.9372,-1.9372,-1.9452,-1.9947,-2.1229,-2.1897,-2.2899,-2.4756,0.0,0.0,0.0,0.0,0.0,0.0,0.0,0.0,0.0,0.0,0.0,0.0,0.0,-3.7021,-3.6901,-3.6981,-3.6874,-3.65,-3.6286,-3.5992,-3.5631,-3.5511,-3.5364,-3.5191,-3.5191,0.0,0.0,0.0,0.0,0.0,-3.3547,-3.3414,-3.3414,-3.3414,-3.3414,-3.3414,-3.3414,-3.316,-3.2786,-3.2612,-3.2278,-3.1904,-3.173,-3.1276,-3.0768,-3.0662,-3.0301,-2.9913,-2.9913,-2.9913,-2.9873,-2.9686,-2.9646,-2.9606,-2.9419,-2.9366,-2.9259,-2.8858,-2.8764,-2.8644,-2.823,-2.8136,-2.8136,-2.8136,-2.8136,-2.8136,-2.8136,-2.8136,-2.8136,-2.8136,-2.8136,-2.8136,-2.8136,-2.8136,-2.807,-2.7883,-2.7696,-2.7549,-2.7442,-2.7255,-2.7054,-2.6827,-2.648,-2.6226,-2.6119,-2.6119,-2.6026,-2.5838,-2.54,-2.33,-1.9907,-1.7629,-1.6164,0.0,-2.8672,-2.9965,-2.7987,-2.7266,-2.6066,-2.2518,-2.1596,0.0,-1.9679,-1.9359,-1.9359,-1.9412,-1.9599,-1.98,-1.9987,-2.1162,-2.2592,-2.4142,-2.7014,0.0,0.0,0.0,0.0,0.0,0.0,0.0,0.0,0.0,0.0,0.0,0.0,-3.6353,-3.6086,-3.6313,-3.6473,-3.6473,-3.5912,-3.5631,-3.5631,-3.5338,-3.5191,-3.5164,-3.5164,0.0,0.0,0.0,0.0,0.0,-3.3534,-3.3414,-3.3414,-3.3414,-3.3414,-3.3414,-3.3387,-3.3026,-3.2545,-3.2519,-3.2144,-3.1664,-3.1637,-3.1263,-3.0768,-3.0474,-3.0181,-2.9953,-2.9967,-2.9967,-2.9953,-2.9953,-2.9927,-2.9913,-2.9913,-2.9913,-2.9753,-2.9192,-2.9058,-2.8871,-2.8283,-2.8163,-2.8136,-2.8136,-2.8136,-2.8136,-2.8136,-2.8136,-2.8136,-2.8136,-2.8136,-2.8136,-2.8136,-2.8136,-2.8136,-2.8136,-2.8136,-2.803,-2.7749,-2.7709,-2.7455,-2.6907,-2.6841,-2.6694,-2.6426,-2.64,-2.6386,-2.6386,-2.4271,-2.2166,-2.0069,-1.7783,-1.5687,-2.1603,0.0,-2.273,-2.2975,-2.19,-2.0848,0.0,-2.0821,0.0,0.0,0.0,-1.9239,-1.9907,-1.9533,-1.9786,-2.1817,-2.2432,-2.3407,-2.5571,0.0,0.0,0.0,0.0,0.0,0.0,0.0,0.0,0.0,0.0,0.0,0.0,0.0,-3.6139,-3.6072,-3.5925,-3.5939,-3.6179,-3.5819,-3.5631,-3.5631,-3.5338,-3.5084,-3.487,-3.487,0.0,0.0,0.0,0.0,-3.3521,-3.344,-3.3414,-3.3414,-3.3414,-3.3414,-3.3387,-3.316,-3.2853,-3.2519,-3.2291,-3.1971,-3.1637,-3.1396,-3.1236,-3.1076,-3.0782,-3.0488,-3.0301,-3.0528,-3.0421,-3.0261,-3.0261,-3.0087,-2.9913,-2.9913,-2.9913,-2.982,-2.9459,-2.9205,-2.8938,-2.8564,-2.831,-2.8136,-2.8136,-2.8136,-2.8136,-2.8136,-2.8136,-2.8136,-2.8136,-2.8136,-2.8136,-2.8136,-2.8136,-2.8136,-2.8136,-2.8136,-2.811,-2.8043,-2.7829,-2.7642,-2.7495,-2.7054,-2.6787,-2.672,-2.6507,-2.6386,-2.6386,-2.5898,-2.4442,-2.2327,-2.0059,-1.8037,-1.9386,-1.997,-2.0573,-2.0266,-2.0015,-1.9776,-1.965,0.0,0.0,0.0,0.0,0.0,-1.9546,0.0,-1.9733,-2.1563,-2.2539,-2.4369,0.0,0.0,0.0,0.0,0.0,0.0,0.0,0.0,0.0,0.0,0.0,0.0,0.0,0.0,-3.5805,-3.5672,-3.5511,-3.5578,-3.5872,-3.5444,-3.5231,-3.5231,-3.4937,-3.471,-3.4563,-3.4563,0.0,0.0,0.0,0.0,-3.3414,-3.3414,-3.3414,-3.3414,-3.3414,-3.3334,-3.32,-3.304,-3.2706,-3.2318,-3.2158,-3.1904,-3.1623,-3.1316,-3.1223,-3.1196,-3.1036,-3.0889,-3.0742,-3.0621,-3.0488,-3.0327,-3.0194,-3.0034,-2.9913,-2.9913,-2.9913,-2.9793,-2.9366,-2.9152,-2.8911,-2.8484,-2.8257,-2.8136,-2.8136,-2.8136,-2.8136,-2.8136,-2.8136,-2.8136,-2.8136,-2.8136,-2.8136,-2.8136,-2.8136,-2.8136,-2.8136,-2.8136,-2.8136,-2.8136,-2.7989,-2.7843,-2.7709,-2.7268,-2.6894,-2.6627,-2.6466,-2.6453,-2.6587,-2.6453,-2.5314,-2.3316,-2.1026,-1.8806,-1.8771,-1.9947,-2.0795,-1.9249,-1.9636,-2.0065,-1.8529,0.0,0.0,0.0,0.0,0.0,0.0,0.0,0.0,0.0,0.0,0.0,0.0,0.0,0.0,0.0,0.0,0.0,0.0,0.0,0.0,0.0,0.0,0.0,0.0,0.0,0.0,-3.5204,-3.5151,-3.5244,-3.5498,-3.5004,-3.4763,-3.4763,-3.4456,-3.4295,-3.4255,-3.4255,-3.4095,0.0,0.0,0.0,-3.3414,-3.3414,-3.3414,-3.3414,-3.3414,-3.324,-3.2973,-3.2933,-3.2572,-3.2091,-3.2051,-3.1877,-3.1623,-3.137,-3.1289,-3.1289,-3.1236,-3.1263,-3.1169,-3.0595,-3.0461,-3.0421,-3.0127,-3.002,-2.9967,-2.9927,-2.9913,-2.978,-2.9285,-2.9138,-2.8938,-2.839,-2.8243,-2.8203,-2.815,-2.8136,-2.8136,-2.8136,-2.8136,-2.8136,-2.8136,-2.8136,-2.8136,-2.8136,-2.8136,-2.8136,-2.8136,-2.8136,-2.8136,-2.8136,-2.8136,-2.8003,-2.7709,-2.7468,-2.7054,-2.6466,-2.6453,-2.6573,-2.6827,-2.6573,-2.5628,-2.4076,-2.1763,-1.9464,-1.9706,-2.0708,-2.1203,-1.9627,-1.8621,-1.819,0.0,0.0,0.0,0.0,0.0,0.0,0.0,0.0,0.0,0.0,0.0,0.0,0.0,0.0,0.0,0.0,0.0,0.0,0.0,0.0,0.0,0.0,0.0,0.0,0.0,0.0,0.0,-3.5191,-3.4963,-3.4857,-3.4897,-3.4803,-3.4763,-3.4763,-3.4456,-3.4189,-3.3948,-3.3948,-3.3774,0.0,0.0,-3.3454,-3.3414,-3.3414,-3.3414,-3.3414,-3.3414,-3.324,-3.2946,-3.2706,-3.2398,-3.2064,-3.1824,-3.1704,-3.1664,-3.1623,-3.1597,-3.1557,-3.1303,-3.1396,-3.1476,-3.0889,-3.0902,-3.1022,-3.0728,-3.0474,-3.0221,-2.998,-2.9913,-2.9887,-2.9793,-2.9593,-2.9312,-2.8965,-2.8711,-2.8457,-2.819,-2.8136,-2.8136,-2.8136,-2.8136,-2.8136,-2.8136,-2.8136,-2.8136,-2.8136,-2.8136,-2.8136,-2.8136,-2.8136,-2.8136,-2.8136,-2.8136,-2.8003,-2.7709,-2.7655,-2.7362,-2.6774,-2.676,-2.6774,-2.6827,-2.6774,-2.6746,-2.6698,-2.4516,-2.2288,-1.8945,-1.9693,-2.0321,-2.012,-2.0015,-1.9663,0.0,0.0,0.0,0.0,0.0,0.0,0.0,0.0,0.0,0.0,0.0,0.0,0.0,0.0,0.0,0.0,0.0,0.0,0.0,0.0,0.0,0.0,0.0,0.0,0.0,0.0,0.0,0.0,-3.4683,-3.4523,-3.4523,-3.4362,-3.4282,-3.4282,-3.3975,-3.3761,-3.3627,-3.3627,-3.3547,-3.3414,0.0,-3.3414,-3.3414,-3.3414,-3.3414,-3.3414,-3.3414,-3.3133,-3.2692,-3.2238,-3.1984,-3.1851,-3.1717,-3.1664,-3.1664,-3.1664,-3.1664,-3.1637,-3.1503,-3.1557,-3.161,-3.1343,-3.1129,-3.0929,-3.0635,-3.0341,-3.0087,-2.9953,-2.9913,-2.9873,-2.9713,-2.9446,-2.9152,-2.8858,-2.8564,-2.831,-2.8163,-2.8283,-2.8337,-2.8163,-2.8283,-2.8337,-2.8163,-2.8136,-2.8136,-2.8136,-2.8136,-2.8136,-2.8136,-2.8136,-2.8136,-2.8136,-2.8136,-2.8003,-2.7709,-2.7696,-2.7495,-2.7068,-2.7068,-2.7134,-2.7295,-2.7134,-2.7215,-2.7495,-2.5126,-2.3,-1.845,-1.9052,-1.9813,-2.0428,0.0,0.0,0.0,0.0,0.0,0.0,0.0,0.0,0.0,0.0,0.0,0.0,0.0,0.0,0.0,0.0,0.0,0.0,0.0,0.0,0.0,0.0,0.0,0.0,0.0,0.0,0.0,0.0,0.0,0.0,-3.4376,-3.4215,-3.4215,-3.3921,-3.3814,-3.3881,-3.3561,-3.3414,-3.3414,-3.3414,-3.3414,-3.3414,-3.3414,-3.3414,-3.3414,-3.3414,-3.3414,-3.34,-3.3334,-3.2959,-3.2385,-3.1864,-3.1664,-3.1664,-3.1664,-3.1664,-3.1664,-3.1664,-3.1664,-3.165,-3.1583,-3.161,-3.165,-3.1583,-3.1196,-3.0742,-3.0515,-3.0247,-3.0007,-2.9927,-2.9913,-2.986,-2.9633,-2.9406,-2.9152,-2.8871,-2.8617,-2.843,-2.8364,-2.8551,-2.8631,-2.839,-2.8551,-2.8604,-2.8283,-2.8243,-2.823,-2.815,-2.8136,-2.8136,-2.8136,-2.8136,-2.8136,-2.8136,-2.8136,-2.8043,-2.7816,-2.7802,-2.7669,-2.7375,-2.7362,-2.7468,-2.7696,-2.7468,-2.7522,-2.7802,-2.5924,-2.3879,-1.9386,-2.012,-2.0535,-2.0321,0.0,0.0,0.0,0.0,0.0,0.0,0.0,0.0,0.0,0.0,0.0,0.0,0.0,0.0,0.0,0.0,0.0,0.0,0.0,0.0,0.0,0.0,0.0,0.0,0.0,0.0,0.0,0.0,0.0,0.0,0.0,-3.3921,-3.3921,-3.3601,-3.3587,-3.3881,-3.3561,-3.3414,-3.3414,-3.3414,-3.3414,-3.3414,-3.3414,-3.3414,-3.3414,-3.3414,-3.3414,-3.3387,-3.312,-3.2652,-3.2091,-3.1784,-3.1664,-3.1664,-3.1664,-3.1664,-3.1664,-3.1664,-3.1664,-3.1623,-3.1343,-3.145,-3.161,-3.133,-3.1036,-3.0795,-3.0768,-3.0541,-3.0261,-2.998,-2.9913,-2.9913,-2.9887,-2.9873,-2.9766,-2.9472,-2.9406,-2.9299,-2.9018,-2.8991,-2.9005,-2.8978,-2.8991,-2.8898,-2.8617,-2.8577,-2.847,-2.8177,-2.8136,-2.8136,-2.8136,-2.8136,-2.8136,-2.8136,-2.8136,-2.8136,-2.811,-2.811,-2.7976,-2.7669,-2.7669,-2.7682,-2.7696,-2.7682,-2.7816,-2.811,-2.7941,-2.6719,-1.8357,-1.9265,0.0,0.0,0.0,0.0,0.0,0.0,0.0,0.0,0.0,0.0,0.0,0.0,0.0,0.0,0.0,0.0,0.0,0.0,0.0,0.0,0.0,0.0,0.0,0.0,0.0,0.0,0.0,0.0,0.0,0.0,0.0,0.0,0.0,-3.3587,-3.3587,-3.3467,-3.3467,-3.3587,-3.3467,-3.3414,-3.34,-3.3227,-3.3146,-3.3133,-3.2946,-3.2879,-3.2893,-3.3066,-3.304,-3.2839,-3.2545,-3.2305,-3.2064,-3.1784,-3.1664,-3.1664,-3.1664,-3.1664,-3.1664,-3.1664,-3.1664,-3.165,-3.153,-3.1583,-3.165,-3.153,-3.1156,-3.0795,-3.0795,-3.0301,-2.9833,-2.99,-2.978,-2.97,-2.9873,-2.978,-2.9619,-2.9499,-2.9339,-2.9179,-2.9058,-2.9192,-2.9259,-2.9072,-2.9045,-2.8938,-2.8644,-2.8444,-2.827,-2.8163,-2.8136,-2.8136,-2.8136,-2.8136,-2.8136,-2.8136,-2.8136,-2.8136,-2.8136,-2.8136,-2.8096,-2.7976,-2.7976,-2.7976,-2.7976,-2.7976,-2.803,-2.8136,-2.8136,-2.6927,-1.7635,-1.833,-1.9239,0.0,0.0,0.0,0.0,0.0,0.0,0.0,0.0,0.0,0.0,0.0,0.0,0.0,0.0,0.0,0.0,0.0,0.0,0.0,0.0,0.0,0.0,0.0,0.0,0.0,0.0,0.0,0.0,0.0,0.0,0.0,0.0,-3.3414,-3.3414,-3.332,-3.328,-3.328,-3.3187,-3.3187,-3.3267,-3.2973,-3.2839,-3.2826,-3.2639,-3.2545,-3.2559,-3.2759,-3.2666,-3.2385,-3.2185,-3.2051,-3.1944,-3.1744,-3.1664,-3.1664,-3.1664,-3.1664,-3.1664,-3.1664,-3.1664,-3.165,-3.1557,-3.153,-3.153,-3.153,-3.1102,-3.0675,-3.0768,-3.0207,-2.9673,-2.9873,-2.9766,-2.9673,-2.9873,-2.9766,-2.9619,-2.9619,-2.9459,-2.9312,-2.9312,-2.9486,-2.9553,-2.9352,-2.9312,-2.9219,-2.8925,-2.8617,-2.835,-2.8163,-2.8136,-2.8136,-2.8136,-2.8136,-2.8136,-2.8136,-2.8136,-2.8136,-2.8136,-2.8136,-2.8136,-2.8136,-2.8136,-2.8136,-2.8136,-2.8136,-2.8136,-2.8136,-2.8136,-2.7279,-1.7582,-1.7595,0.0,0.0,0.0,0.0,0.0,0.0,0.0,0.0,0.0,0.0,0.0,0.0,0.0,0.0,0.0,0.0,0.0,0.0,0.0,0.0,0.0,0.0,0.0,0.0,0.0,0.0,0.0,0.0,0.0,0.0,0.0,0.0,0.0,0.0,-3.34,-3.312,-3.2973,-3.2973,-3.2679,-3.2692,-3.2959,-3.2679,-3.2545,-3.2545,-3.2532,-3.2532,-3.2532,-3.2532,-3.2372,-3.2104,-3.2104,-3.1917,-3.1664,-3.1664,-3.1664,-3.1664,-3.1664,-3.1664,-3.1664,-3.1664,-3.1664,-3.161,-3.1316,-3.1223,-3.1223,-3.1223,-3.0808,-3.0434,-3.0715,-3.0354,-2.9913,-2.9913,-2.9913,-2.9913,-2.9913,-2.9927,-2.9927,-2.9927,-2.9913,-2.9913,-2.9913,-2.9913,-2.9913,-2.9913,-2.9913,-2.9806,-2.9513,-2.9219,-2.8804,-2.8217,-2.815,-2.815,-2.8136,-2.8136,-2.8136,-2.8136,-2.8136,-2.8136,-2.8136,-2.8136,-2.8136,-2.8136,-2.8136,-2.8136,-2.8136,-2.8136,-2.8136,-2.8136,-2.8136,-2.8136,-1.7756,-1.8343,0.0,0.0,0.0,0.0,0.0,0.0,0.0,0.0,0.0,0.0,0.0,0.0,0.0,0.0,0.0,0.0,0.0,0.0,0.0,0.0,0.0,0.0,0.0,0.0,0.0,0.0,0.0,0.0,0.0,0.0,0.0,0.0,0.0,0.0,-3.2799,-3.2719,-3.2679,-3.2666,-3.2372,-3.2385,-3.2666,-3.2372,-3.2238,-3.2225,-3.2024,-3.1931,-3.1931,-3.1931,-3.1998,-3.2078,-3.1877,-3.161,-3.1356,-3.1356,-3.1356,-3.133,-3.1129,-3.1183,-3.1316,-3.1116,-3.1049,-3.1076,-3.1196,-3.1223,-3.1223,-3.1223,-3.0955,-3.0688,-3.0768,-3.0515,-3.0181,-2.9967,-2.9913,-2.998,-3.0181,-3.0394,-3.0474,-3.0261,-3.0221,-3.0167,-2.9953,-2.9913,-2.9913,-2.9913,-2.974,-2.9513,-2.9205,-2.9098,-2.8898,-2.8511,-2.847,-2.8377,-2.8163,-2.8136,-2.8136,-2.8136,-2.8136,-2.8136,-2.8136,-2.8136,-2.8136,-2.8136,-2.8136,-2.8136,-2.8136,-2.8136,-2.8136,-2.8136,-2.8136,-2.8136,-1.7996,0.0,0.0,0.0,0.0,0.0,0.0,0.0,0.0,0.0,0.0,0.0,0.0,0.0,0.0,0.0,0.0,0.0,0.0,0.0,0.0,0.0,0.0,0.0,0.0,0.0,0.0,0.0,0.0,0.0,0.0,0.0,0.0,0.0,0.0,0.0,-3.2545,-3.2425,-3.2305,-3.2198,-3.1891,-3.1784,-3.1851,-3.1784,-3.169,-3.1583,-3.1517,-3.149,-3.1503,-3.1623,-3.177,-3.1917,-3.1744,-3.149,-3.1223,-3.1223,-3.1156,-3.1022,-3.0849,-3.0902,-3.1022,-3.0849,-3.0795,-3.0822,-3.0996,-3.0969,-3.0902,-3.1022,-3.0755,-3.0501,-3.0728,-3.0581,-3.0159,-2.8962,-2.9508,-2.9937,-2.9167,-2.9912,-3.0702,-3.0421,-3.0354,-3.0261,-2.9967,-2.9913,-2.9913,-2.9913,-2.9766,-2.9553,-2.9259,-2.9219,-2.9098,-2.8804,-2.8778,-2.8657,-2.835,-2.8323,-2.827,-2.815,-2.8136,-2.8136,-2.8136,-2.8136,-2.8136,-2.8136,-2.8136,-2.8136,-2.8136,-2.8136,-2.8136,-2.8136,-2.8136,-2.8136,-1.837,0.0,0.0,0.0,0.0,0.0,0.0,0.0,0.0,0.0,0.0,0.0,0.0,0.0,0.0,0.0,0.0,0.0,0.0,0.0,0.0,0.0,0.0,0.0,0.0,0.0,0.0,0.0,0.0,0.0,0.0,0.0,0.0,0.0,0.0,0.0,-3.2385,-3.2118,-3.1851,0.0,-3.1289,-3.0996,-3.0728,-3.1036,-3.1036,-3.0808,-3.1049,-3.1156,-3.1209,-3.1476,-3.1583,-3.1583,-3.1583,-3.141,-3.1142,-3.1142,-3.0982,-3.0755,-3.0728,-3.0728,-3.0755,-3.0728,-3.0715,-3.0715,-3.0742,-3.0385,-3.0225,-3.0675,-3.0185,-2.9713,-3.0648,-3.0595,-2.9913,-2.7553,-2.8942,-3.0069,-2.7589,-2.8929,-3.0755,-3.0488,-3.0421,-3.0314,-3.0047,-2.998,-2.994,-2.9913,-2.9913,-2.982,-2.9553,-2.9526,-2.9406,-2.9112,-2.9085,-2.8965,-2.8671,-2.8617,-2.8484,-2.8203,-2.8163,-2.8136,-2.8136,-2.8136,-2.8136,-2.8136,-2.8136,-2.8136,-2.8136,-2.8136,-2.8136,-2.8136,-2.8136,-2.8136,0.0,0.0,0.0,0.0,0.0,0.0,0.0,0.0,0.0,0.0,0.0,0.0,0.0,0.0,0.0,0.0,0.0,0.0,0.0,0.0,0.0,0.0,0.0,0.0,0.0,0.0,0.0,0.0,0.0,0.0,0.0,0.0,0.0,0.0,0.0,-3.1637,-3.1169,-3.1102,-3.1049,0.0,-3.0688,-3.0394,-3.0127,-3.0648,-3.0849,-3.0782,-3.0621,-3.0675,-3.0889,-3.0955,-3.0982,-3.0982,-3.0982,-3.0795,-3.0541,-3.0541,-3.0515,-3.0421,-3.0181,-3.0261,-3.0408,-3.0181,-3.01,-3.014,-3.0381,-2.909,-2.794,-2.9873,-2.9052,-2.7915,-3.0136,-3.0742,-3.0267,-2.808,-2.9382,-3.0369,-2.7688,-2.9218,-3.1116,-3.1049,-3.0849,-3.0675,-3.0608,-3.0421,-3.0181,-2.9953,-2.9913,-2.99,-2.9833,-2.982,-2.9713,-2.9419,-2.9392,-2.9272,-2.8965,-2.8738,-2.8577,-2.8511,-2.8283,-2.8136,-2.8136,-2.8136,-2.8136,-2.8136,-2.8136,-2.8136,-2.8136,-2.8136,-2.8136,-2.8136,-2.8136,-2.8136,0.0,0.0,0.0,0.0,0.0,0.0,0.0,0.0,0.0,0.0,0.0,0.0,0.0,0.0,0.0,0.0,0.0,0.0,0.0,0.0,0.0,0.0,0.0,0.0,0.0,0.0,0.0,0.0,0.0,0.0,0.0,0.0,0.0,0.0,-3.1116,-3.0889,-3.0581,-3.0448,-3.0301,-3.0167,-3.0007,-2.978,-2.9513,-2.982,-3.0034,-3.0167,-3.0154,-3.0314,-3.0595,-3.0742,-3.0795,-3.0795,-3.0795,-3.0621,-3.0354,-3.0354,-3.0274,-3.0127,-2.9967,-3.002,-3.0127,-2.9967,-2.9913,-2.9967,-3.0274,-2.8585,-2.7013,-2.9573,-2.8572,-2.7049,-2.9939,-3.0581,-3.0162,-2.8044,-2.952,-3.0668,-2.8152,-2.9507,-3.1396,-3.1249,-3.1102,-3.0955,-3.0822,-3.0555,-3.0314,-3.0154,-3.0007,-2.9913,-2.9913,-2.9913,-2.986,-2.9713,-2.9686,-2.9566,-2.9272,-2.9112,-2.8911,-2.8631,-2.8457,-2.8297,-2.815,-2.8136,-2.8136,-2.8136,-2.8136,-2.8136,-2.8136,-2.8136,-2.8136,-2.8136,-2.8136,-2.8136,0.0,0.0,0.0,0.0,0.0,0.0,0.0,0.0,0.0,0.0,0.0,0.0,0.0,0.0,0.0,0.0,0.0,0.0,0.0,0.0,0.0,0.0,0.0,0.0,0.0,0.0,0.0,0.0,0.0,0.0,0.0,0.0,-3.0996,-3.0648,-3.0408,-3.0234,-3.0127,-2.9887,-2.9646,-2.9406,-2.9352,-2.9179,-2.8885,-2.8885,-2.9072,-2.9419,-2.9606,-2.986,-3.0154,-3.0448,-3.0568,-3.0568,-3.0621,-3.0501,-3.0287,-3.0287,-3.0127,-2.9913,-2.986,-2.9873,-2.9913,-2.986,-2.9873,-2.9967,-3.0207,-2.807,-2.6095,-2.8911,-2.7694,-2.6288,-2.8975,-3.0172,-2.9926,-2.8356,-2.9835,-3.0825,-2.7768,-2.9492,-3.1341,-3.0765,-3.0914,-3.1209,-3.0915,-3.0675,-3.0488,-3.0448,-3.0221,-3.0047,-3.0007,-2.9993,-2.9967,-2.9927,-2.9913,-2.982,-2.9579,-2.9513,-2.9259,-2.8711,-2.8631,-2.847,-2.8163,-2.8136,-2.8136,-2.8136,-2.8136,-2.8136,-2.8136,-2.8136,-2.8136,-2.8136,-2.8136,-2.8136,0.0,0.0,0.0,0.0,0.0,0.0,0.0,0.0,0.0,0.0,0.0,0.0,0.0,0.0,0.0,0.0,0.0,0.0,0.0,0.0,0.0,0.0,0.0,0.0,0.0,0.0,0.0,0.0,0.0,0.0,0.0,-3.1009,-3.0595,-3.0047,-2.9993,-2.9726,-2.9219,-2.9179,-2.9138,-2.9098,-2.8845,-2.8564,-2.8257,-2.8257,-2.8564,-2.9085,-2.8871,-2.8951,-2.9232,-2.9539,-2.9659,-2.9686,-2.994,-3.0007,-2.998,-2.998,-2.9953,-2.9887,-2.9633,-2.9713,-2.9873,-2.9619,-2.9713,-2.9927,-2.9967,-2.6809,-2.3666,-2.6095,-2.4967,-2.3709,-2.6547,-2.8856,-3.0434,-3.0399,-3.0876,-2.9999,-2.5389,-2.7974,-3.0577,-2.8654,-3.0051,-3.1517,-3.1223,-3.1129,-3.1022,-3.0768,-3.0702,-3.0581,-3.0327,-3.0301,-3.0207,-2.994,-2.9913,-2.99,-2.986,-2.9633,-2.9339,-2.9005,-2.8751,-2.847,-2.8163,-2.8136,-2.8136,-2.8136,-2.8136,-2.8136,-2.8136,-2.8136,-2.8136,-2.8136,-2.8136,-2.8136,0.0,0.0,0.0,0.0,0.0,0.0,0.0,0.0,0.0,0.0,0.0,0.0,0.0,0.0,0.0,0.0,0.0,0.0,0.0,0.0,0.0,0.0,0.0,0.0,0.0,0.0,0.0,0.0,0.0,0.0,-3.0501,-3.006,-2.97,-2.9432,-2.9272,-2.9058,-2.8804,-2.8617,-2.8537,-2.8537,-2.8404,-2.827,-2.8136,-2.8136,-2.8377,-2.8791,-2.8657,-2.8778,-2.9045,-2.9179,-2.9232,-2.9245,-2.9379,-2.9432,-2.9446,-2.9606,-2.9566,-2.9432,-2.9472,-2.9566,-2.9633,-2.9325,-2.9539,-2.9887,-2.9726,-2.6304,-2.3116,-2.5503,-2.3473,-2.1471,-2.5445,-2.7148,-2.8547,-3.0307,-3.0889,-3.0142,-2.6715,-2.8845,-3.1125,-3.009,-3.089,-3.1623,-3.149,-3.133,-3.1183,-3.1049,-3.0902,-3.0742,-3.0621,-3.0461,-3.0314,-3.0181,-3.002,-2.9913,-2.9913,-2.9806,-2.9606,-2.9312,-2.9018,-2.8711,-2.8417,-2.823,-2.8136,-2.8136,-2.8136,-2.8136,-2.8136,-2.8136,-2.8136,-2.8136,-2.8136,-2.8136,0.0,0.0,0.0,0.0,0.0,0.0,0.0,0.0,0.0,0.0,0.0,0.0,0.0,0.0,0.0,0.0,0.0,0.0,0.0,0.0,0.0,0.0,0.0,0.0,0.0,0.0,0.0,0.0,0.0,-2.9913,-2.9913,-2.9352,-2.9005,-2.8938,-2.8724,-2.8564,-2.8484,-2.8257,-2.8136,-2.8136,-2.8136,-2.8136,-2.8136,-2.8136,-2.827,-2.8484,-2.8484,-2.8617,-2.8818,-2.8898,-2.8938,-2.8938,-2.9005,-2.9045,-2.9072,-2.9285,-2.9272,-2.9165,-2.9232,-2.9366,-2.9419,-2.9045,-2.9272,-2.9673,-2.9526,-2.6163,-2.2851,-2.474,-2.2556,-2.0714,-2.4387,-2.6229,-2.7801,-3.0082,-3.0688,-3.0186,-2.8248,-2.9338,-3.07,-3.07,-3.1284,-3.1664,-3.1664,-3.149,-3.1343,-3.1343,-3.1156,-3.0996,-3.0915,-3.0648,-3.0448,-3.0368,-3.01,-2.9913,-2.9913,-2.9913,-2.9793,-2.9499,-2.9205,-2.8911,-2.8617,-2.831,-2.8136,-2.8136,-2.8136,-2.8136,-2.8136,-2.8136,-2.8136,-2.8136,-2.8136,-2.8136,0.0,-2.0815,0.0,0.0,0.0,0.0,0.0,0.0,0.0,0.0,0.0,0.0,0.0,0.0,0.0,0.0,0.0,0.0,0.0,0.0,0.0,0.0,0.0,0.0,0.0,0.0,0.0,0.0,0.0,-2.9913,-2.9913,-2.9352,-2.8911,-2.8644,-2.8617,-2.847,-2.8177,-2.815,-2.8136,-2.8136,-2.8136,-2.8136,-2.8136,-2.8136,-2.815,-2.8163,-2.8163,-2.8177,-2.8217,-2.8511,-2.8631,-2.8657,-2.8938,-2.9045,-2.9045,-2.9058,-2.9232,-2.9379,-2.8845,-2.9018,-2.9392,-2.8818,-2.8831,-2.9138,-2.9406,-2.6032,-2.2273,-2.2678,-2.2556,-2.2372,-2.2556,-2.6229,-2.9734,-2.9953,-3.0381,-3.0186,-2.8248,-2.7972,-2.7972,-2.7972,-2.9924,-3.1664,-3.1664,-3.1664,-3.165,-3.165,-3.1637,-3.1517,-3.1236,-3.0955,-3.0662,-3.0394,-3.01,-2.9913,-2.9913,-2.9913,-2.9793,-2.9499,-2.9205,-2.8911,-2.8617,-2.831,-2.8136,-2.8136,-2.8136,-2.8136,-2.8136,-2.8136,-2.8136,-2.8136,-2.8136,-2.8136,-1.9399,0.0,0.0,0.0,0.0,0.0,0.0,0.0,0.0,0.0,0.0,0.0,0.0,0.0,0.0,0.0,0.0,0.0,0.0,0.0,0.0,0.0,0.0,0.0,0.0,0.0,0.0,0.0,0.0,0.0,-2.9085,-2.8684,-2.8417,-2.831,-2.831,-2.8257,-2.8136,-2.8136,-2.8136,-2.8136,-2.8136,-2.8136,-2.8136,-2.8136,-2.8136,-2.8136,-2.8136,-2.8136,-2.815,-2.827,-2.831,-2.8323,-2.8417,-2.847,-2.8484,-2.8684,-2.8698,-2.8617,-2.8617,-2.8751,-2.8858,-2.8444,-2.8644,-2.9058,-2.9165,-2.5879,-2.2071,-2.2495,-2.1452,-2.0529,-2.2188,-2.4945,-2.7933,-2.9779,-3.0648,-3.0369,-2.8068,-2.9011,-2.9721,-2.8164,-2.9911,-3.1664,-3.1664,-3.1664,-3.1664,-3.1664,-3.1664,-3.1637,-3.153,-3.1089,-3.0755,-3.0648,-3.0207,-2.9913,-2.9913,-2.9913,-2.9793,-2.9499,-2.9379,-2.9112,-2.8631,-2.8497,-2.835,-2.815,-2.8136,-2.8136,-2.8136,-2.8136,-2.8136,-2.8136,-2.8136,-2.8136,-1.8664,-1.9199,0.0,0.0,0.0,0.0,0.0,0.0,0.0,0.0,0.0,0.0,0.0,0.0,0.0,0.0,0.0,0.0,0.0,0.0,0.0,0.0,0.0,0.0,0.0,0.0,0.0,0.0,0.0,0.0,-2.8617,-2.831,-2.8136,-2.8136,-2.8136,-2.8136,-2.8136,-2.8136,-2.8136,-2.8136,-2.8136,-2.8136,-2.8136,-2.8136,-2.8136,-2.8136,-2.8136,-2.8136,-2.8136,-2.8136,-2.8136,-2.8136,-2.8136,-2.8136,-2.8163,-2.8377,-2.839,-2.831,-2.8417,-2.8524,-2.8564,-2.8243,-2.8417,-2.8778,-2.8978,-2.5749,-2.1981,-2.2475,-2.1452,-2.0529,-2.2188,-2.5012,-2.812,-3.0175,-3.0942,-3.0486,-2.808,-2.9785,-3.089,-2.8368,-2.9911,-3.1664,-3.1664,-3.1664,-3.1664,-3.1664,-3.1664,-3.1664,-3.1664,-3.1236,-3.0902,-3.0808,-3.0354,-3.002,-2.9927,-2.9913,-2.9833,-2.9646,-2.9539,-2.9312,-2.8911,-2.8804,-2.8604,-2.831,-2.8297,-2.8243,-2.8136,-2.8136,-2.8136,-2.8136,-2.8136,-2.8136,0.0,0.0,0.0,0.0,0.0,0.0,0.0,0.0,0.0,0.0,0.0,0.0,0.0,0.0,0.0,0.0,0.0,0.0,0.0,0.0,0.0,0.0,0.0,0.0,0.0,0.0,0.0,0.0,0.0,-2.8604,-2.8591,-2.831,-2.8136,-2.8136,-2.8136,-2.8136,-2.8136,-2.8136,-2.8123,-2.8123,-2.8123,-2.8123,-2.8123,-2.8123,-2.8123,-2.8123,-2.8123,-2.8136,-2.8136,-2.8136,-2.8136,-2.8136,-2.8136,-2.8136,-2.8136,-2.8136,-2.8337,-2.8551,-2.8243,-2.8337,-2.8537,-2.8243,-2.8136,-2.8257,-2.8845,-2.5618,-2.179,-2.2424,-2.2556,-2.2556,-2.2749,-2.6624,-3.0515,-3.1062,-3.1209,-3.0525,-2.8272,-2.9886,-3.0864,-2.8356,-2.9911,-3.1664,-3.1664,-3.1664,-3.1664,-3.1664,-3.1664,-3.1664,-3.1664,-3.141,-3.1116,-3.0835,-3.0541,-3.0247,-2.9953,-2.9927,-2.9913,-2.99,-2.9646,-2.9486,-2.9472,-2.9205,-2.8911,-2.8617,-2.8604,-2.8457,-2.8136,-2.8136,-2.8136,-2.8136,-2.8136,-2.815,-1.7488,0.0,0.0,0.0,0.0,0.0,-2.2766,-2.3554,0.0,0.0,0.0,0.0,0.0,0.0,0.0,0.0,0.0,0.0,0.0,0.0,0.0,0.0,0.0,0.0,0.0,0.0,0.0,0.0,-2.8657,-2.8511,-2.8283,-2.819,-2.8136,-2.8136,-2.7936,-2.7923,-2.8136,-2.7923,-2.7816,-2.7816,-2.7816,-2.7709,-2.7509,-2.7509,-2.7615,-2.7816,-2.7816,-2.7949,-2.8136,-2.8136,-2.8136,-2.8136,-2.8136,-2.8136,-2.8136,-2.8136,-2.819,-2.8257,-2.8177,-2.8203,-2.8257,-2.8177,-2.8136,-2.8217,-2.8604,-2.5488,-2.176,-2.2041,-2.2424,-2.3331,-2.7208,-2.9507,-3.0662,-3.0608,-3.0755,-3.069,-2.9806,-3.0319,-3.0395,-2.8284,-2.9911,-3.1664,-3.1664,-3.1664,-3.1664,-3.1664,-3.1664,-3.1664,-3.1664,-3.141,-3.1196,-3.1116,-3.0662,-3.0327,-3.0247,-3.0034,-2.982,-2.9619,-2.9726,-2.9606,-2.9179,-2.9285,-2.9125,-2.8617,-2.8604,-2.8457,-2.8136,-2.8136,-2.8136,-2.8136,-2.8136,-2.827,-1.7435,0.0,0.0,0.0,0.0,0.0,-2.1363,-2.1937,-2.2699,0.0,0.0,0.0,0.0,0.0,0.0,0.0,0.0,0.0,0.0,0.0,0.0,0.0,0.0,0.0,0.0,0.0,0.0,-2.8417,-2.8417,-2.8337,-2.815,-2.8136,-2.8083,-2.7963,-2.7789,-2.7722,-2.7776,-2.7602,-2.7522,-2.7522,-2.7522,-2.7428,-2.7268,-2.7268,-2.7362,-2.7522,-2.7642,-2.7802,-2.7963,-2.8096,-2.8136,-2.8136,-2.8136,-2.8136,-2.8136,-2.8136,-2.8136,-2.8136,-2.8136,-2.8136,-2.8136,-2.8136,-2.8136,-2.823,-2.8657,-2.5512,-2.177,-2.2081,-2.2515,-2.3693,-2.7977,-3.0082,-3.0929,-3.0755,-3.0849,-3.0889,-3.0595,-3.0675,-3.0544,-2.9457,-3.0518,-3.153,-3.165,-3.1664,-3.1664,-3.1664,-3.1664,-3.1664,-3.1664,-3.1517,-3.1356,-3.1236,-3.0808,-3.0488,-3.0368,-3.0087,-2.9847,-2.9673,-2.982,-2.9766,-2.9419,-2.9566,-2.9446,-2.8978,-2.8845,-2.8577,-2.8136,-2.8136,-2.8136,-2.815,-2.827,-2.843,0.0,0.0,0.0,0.0,0.0,0.0,-2.1029,-2.1162,-2.1243,0.0,0.0,0.0,0.0,0.0,0.0,0.0,0.0,0.0,0.0,0.0,0.0,0.0,0.0,0.0,0.0,-2.8136,-2.8136,-2.8136,-2.8136,-2.8136,-2.8136,-2.811,-2.7976,-2.7709,-2.7642,-2.7495,-2.7268,-2.7228,-2.7215,-2.7215,-2.7215,-2.7201,-2.7161,-2.7161,-2.7188,-2.7228,-2.7495,-2.7642,-2.7722,-2.7989,-2.811,-2.8136,-2.8136,-2.8136,-2.8136,-2.8136,-2.8136,-2.8136,-2.8136,-2.8136,-2.8136,-2.8136,-2.8136,-2.8243,-2.8778,-2.5583,-2.179,-2.2059,-2.2532,-2.3728,-2.6428,-2.9243,-3.1169,-3.1129,-3.1129,-3.1049,-3.0755,-3.0688,-3.0795,-3.1116,-3.1209,-3.1316,-3.1623,-3.1664,-3.1664,-3.1664,-3.1664,-3.1664,-3.1664,-3.1664,-3.157,-3.1303,-3.1009,-3.0728,-3.0434,-3.014,-2.9953,-2.9913,-2.9913,-2.9913,-2.9913,-2.9913,-2.978,-2.9486,-2.9165,-2.8724,-2.819,-2.8163,-2.8136,-2.815,-2.843,-2.8591,0.0,0.0,0.0,0.0,0.0,0.0,-1.8865,-1.8918,-1.9479,0.0,0.0,0.0,0.0,0.0,0.0,0.0,0.0,0.0,0.0,0.0,0.0,0.0,0.0,0.0,0.0,-2.8136,-2.8136,-2.8136,-2.8136,-2.8136,-2.8136,-2.7909,-2.7762,-2.7696,-2.7241,-2.7081,-2.7268,-2.7028,-2.6907,-2.6907,-2.6907,-2.6787,-2.656,-2.656,-2.668,-2.6907,-2.6974,-2.7255,-2.7709,-2.7762,-2.7923,-2.8136,-2.8136,-2.8136,-2.8136,-2.8136,-2.8136,-2.8136,-2.8136,-2.8136,-2.8136,-2.8136,-2.8136,-2.8163,-2.8283,-2.5287,-2.1432,-2.0042,-2.1234,-2.3655,-2.6179,-2.8804,-3.0822,-3.0581,-3.0528,-3.0448,-3.0154,-3.0087,-3.0247,-3.0768,-3.1062,-3.1316,-3.1623,-3.1664,-3.1664,-3.1664,-3.1664,-3.1664,-3.1664,-3.1664,-3.165,-3.1583,-3.1316,-3.1022,-3.0728,-3.0448,-3.0167,-2.9927,-2.9913,-2.9913,-2.9913,-2.9913,-2.978,-2.9486,-2.8965,-2.8631,-2.8511,-2.827,-2.8136,-2.8136,-2.8203,-2.8497,0.0,0.0,0.0,-1.8704,0.0,0.0,0.0,-1.8477,-1.8651,-1.9973,0.0,0.0,0.0,0.0,0.0,0.0,0.0,0.0,0.0,0.0,0.0,0.0,0.0,0.0,0.0,-2.7976,-2.8136,-2.8136,-2.8136,-2.8083,-2.7923,-2.7776,-2.7562,-2.7268,-2.6974,-2.6827,-2.6827,-2.668,-2.66,-2.66,-2.66,-2.6533,-2.6386,-2.6386,-2.6466,-2.6613,-2.676,-2.6987,-2.7281,-2.7575,-2.7789,-2.7936,-2.8083,-2.8136,-2.8136,-2.8136,-2.8136,-2.8136,-2.8136,-2.8136,-2.8136,-2.8136,-2.8136,-2.8177,-2.8323,-2.5406,-2.1209,-1.8062,-1.9931,-2.3293,-2.4517,-2.784,-3.0715,-3.0434,-3.0354,-3.0274,-2.998,-3.0034,-3.0274,-3.0715,-3.1022,-3.1316,-3.1623,-3.1664,-3.1623,-3.1476,-3.157,-3.1623,-3.1463,-3.1583,-3.161,-3.1463,-3.1183,-3.0889,-3.0595,-3.0301,-3.0074,-2.9927,-2.9913,-2.9913,-2.9913,-2.9913,-2.978,-2.9486,-2.9045,-2.8751,-2.8604,-2.8297,-2.8136,-2.815,-2.8457,-2.8751,0.0,0.0,0.0,0.0,0.0,-1.8811,0.0,0.0,0.0,-1.9052,0.0,0.0,0.0,0.0,0.0,0.0,0.0,0.0,0.0,0.0,0.0,0.0,0.0,0.0,0.0,-2.7509,-2.7789,-2.7963,-2.7816,-2.7696,-2.7615,-2.7562,-2.7281,-2.6747,-2.6734,-2.66,-2.6306,-2.636,-2.6386,-2.6386,-2.6386,-2.6386,-2.6386,-2.6386,-2.6386,-2.64,-2.664,-2.68,-2.6947,-2.7415,-2.7682,-2.7802,-2.8043,-2.8136,-2.8136,-2.8136,-2.8136,-2.8136,-2.8136,-2.8136,-2.8136,-2.8136,-2.8136,-2.8034,-2.7509,-2.4891,-2.1115,-1.642,-1.8981,-2.2869,-2.3031,-2.684,-3.0568,-3.0327,-3.0274,-3.0207,-2.9967,-3.01,-3.0381,-3.0728,-3.0942,-3.1183,-3.1597,-3.1664,-3.157,-3.1276,-3.1476,-3.1557,-3.1263,-3.149,-3.1557,-3.1263,-3.1022,-3.0742,-3.0394,-3.014,-2.998,-2.9913,-2.9913,-2.9913,-2.9913,-2.9913,-2.9806,-2.9566,-2.9219,-2.8925,-2.8684,-2.8323,-2.8177,-2.8243,-2.8724,-2.9018,0.0,0.0,0.0,0.0,-2.0454,0.0,0.0,0.0,-1.8464,-1.8571,0.0,0.0,0.0,0.0,0.0,0.0,0.0,0.0,0.0,0.0,0.0,0.0,0.0,0.0,0.0,0.0,-2.6533,-2.7308,-2.664,-2.6533,-2.7281,-2.7068,-2.6774,-2.6453,-2.644,-2.6306,-2.6012,-2.6266,-2.6386,-2.6386,-2.6386,-2.6386,-2.6386,-2.6386,-2.6386,-2.6386,-2.6426,-2.6734,-2.7228,-2.7281,-2.7629,-2.8096,-2.8123,-2.8136,-2.8136,-2.8136,-2.8136,-2.8136,-2.8136,-2.8136,-2.8136,-2.8136,-2.8136,-2.7552,-2.3655,-2.2056,-2.0753,-1.639,-1.871,-2.2606,-2.2626,-2.6312,-3.0007,-2.998,-2.9967,-2.9953,-2.9927,-2.994,-3.0127,-3.0688,-3.0608,-3.0715,-3.153,-3.1664,-3.157,-3.1276,-3.1476,-3.1557,-3.1263,-3.149,-3.1557,-3.1263,-3.1196,-3.0955,-3.0408,-3.0327,-3.0194,-2.994,-2.9913,-2.9913,-2.9913,-2.9913,-2.99,-2.9873,-2.9325,-2.9032,-2.8991,-2.8417,-2.8283,-2.8564,-2.8631,-2.8938,0.0,0.0,0.0,0.0,0.0,0.0,0.0,0.0,-1.8544,0.0,0.0,0.0,0.0,0.0,0.0,0.0,0.0,0.0,0.0,0.0,0.0,0.0,0.0,0.0,0.0,0.0,0.0,0.0,0.0,-2.5785,-2.5985,-2.636,-2.636,-2.5892,-2.6213,-2.6253,-2.5959,-2.6239,-2.6386,-2.6386,-2.6386,-2.6386,-2.6386,-2.6386,-2.6386,-2.6386,-2.6386,-2.6533,-2.6787,-2.7121,-2.7415,-2.7669,-2.8016,-2.8136,-2.8136,-2.8136,-2.8136,-2.8136,-2.8136,-2.8136,-2.8136,-2.8136,-2.8136,-2.7317,-2.2837,-2.1409,-2.0514,-1.6132,-1.8451,-2.2394,-2.2525,-2.6229,-2.9913,-2.9913,-2.9913,-2.9913,-2.9913,-3.0047,-3.0247,-3.0488,-2.9582,-2.9267,-3.1155,-3.141,-3.1316,-3.1022,-3.1223,-3.1303,-3.1009,-3.1236,-3.1303,-3.1009,-3.0969,-3.0742,-3.0154,-3.01,-3.0047,-2.9927,-2.9913,-2.9913,-2.9913,-2.9913,-2.9913,-2.9913,-2.9513,-2.9299,-2.9299,-2.8871,-2.8818,-2.9112,-2.8938,-2.9085,-2.1496,0.0,0.0,0.0,0.0,0.0,0.0,0.0,0.0,0.0,0.0,0.0,0.0,0.0,0.0,0.0,0.0,0.0,0.0,0.0,0.0,0.0,0.0,0.0,0.0,0.0,0.0,-2.4583,-2.4569,-2.4636,-2.4823,-2.5518,-2.5745,-2.5411,-2.5892,-2.6012,-2.5718,-2.5999,-2.6186,-2.6266,-2.6266,-2.6319,-2.6386,-2.6386,-2.607,-2.5581,-2.607,-2.6109,-2.5723,-2.6799,-2.7188,-2.7321,-2.7829,-2.8016,-2.803,-2.811,-2.8136,-2.8136,-2.8136,-2.8136,-2.8136,-2.8136,-2.8136,-2.7461,-2.3376,-2.1772,-2.0548,-1.6664,-1.8457,-2.1537,-2.2242,-2.5627,-2.9002,-2.9734,-2.9913,-2.9913,-2.9913,-3.0087,-3.0261,-3.0341,-2.9123,-2.8657,-3.0795,-3.0713,-3.0473,-3.077,-3.1089,-3.1156,-3.0942,-3.1022,-3.1049,-3.0929,-3.0768,-3.0501,-3.0074,-2.9967,-2.9913,-2.9913,-2.9913,-2.9913,-2.9913,-2.9913,-2.9913,-2.9913,-2.9633,-2.9486,-2.9486,-2.9179,-2.9192,-2.9486,-2.9259,-2.9325,0.0,0.0,0.0,-2.1683,0.0,0.0,0.0,0.0,-2.0013,0.0,0.0,0.0,0.0,0.0,0.0,0.0,0.0,0.0,0.0,0.0,0.0,0.0,0.0,0.0,0.0,0.0,0.0,-2.3313,-2.2579,-2.2726,-2.4155,-2.4529,-2.4823,-2.509,-2.5384,-2.5398,-2.5104,-2.5398,-2.5692,-2.5972,-2.5972,-2.6119,-2.6386,-2.6386,-2.5251,-2.33,-2.5409,-2.5404,-2.3841,-2.6009,-2.7001,-2.7295,-2.7589,-2.7709,-2.7749,-2.803,-2.8136,-2.8136,-2.8136,-2.8136,-2.8136,-2.8136,-2.8136,-2.7838,-2.549,-2.3119,-2.0901,-1.863,-1.8457,-1.9323,-2.1689,-2.4212,-2.6966,-2.9362,-2.9913,-2.9913,-2.9913,-2.9927,-3.002,-3.0301,-3.014,-3.0039,-3.1076,-2.9342,-2.8642,-3.0874,-3.1223,-3.1223,-3.1209,-3.0969,-3.0915,-3.1183,-3.0715,-3.0368,-3.0354,-3.0087,-2.9913,-2.9913,-2.9913,-2.9913,-2.9913,-2.9913,-2.9913,-2.9913,-2.9633,-2.9486,-2.9486,-2.9179,-2.9192,-2.9486,-2.9472,-2.9619,0.0,0.0,-2.4983,-2.2806,0.0,0.0,0.0,0.0,0.0,0.0,0.0,0.0,0.0,0.0,0.0,-1.8998,0.0,0.0,0.0,0.0,0.0,0.0,0.0,0.0,0.0,0.0,0.0,-2.1269,-2.1176,-2.151,0.0,-2.3661,-2.4315,-2.4222,-2.5064,-2.5371,-2.5077,-2.5371,-2.5665,-2.5959,-2.5959,-2.5309,-2.4271,-2.4271,-2.298,-2.1039,-2.33,-2.384,-2.3442,-2.5757,-2.6881,-2.7001,-2.7295,-2.7522,-2.7736,-2.803,-2.8136,-2.8136,-2.8136,-2.8136,-2.8136,-2.8136,-2.8136,-2.7461,-2.3559,-2.1853,-2.0511,-1.6845,-1.7018,-1.8984,-2.1639,-2.4212,-2.6785,-2.9362,-2.9913,-2.9913,-2.9913,-2.9913,-2.994,-3.0047,-2.8834,-2.8294,-3.0478,-2.9068,-2.8258,-3.0861,-3.1062,-3.0942,-3.0942,-3.0688,-3.0541,-3.0635,-3.0648,-3.0488,-3.01,-2.998,-2.9913,-2.9913,-2.9913,-2.9913,-2.9913,-2.9913,-2.9913,-2.9913,-2.982,-2.9766,-2.9766,-2.9673,-2.9673,-2.9766,-2.9766,-2.982,-2.4289,-2.4983,0.0,-2.3754,-2.3487,0.0,-2.1283,0.0,0.0,0.0,0.0,0.0,0.0,0.0,0.0,-1.9466,-1.8803,-1.8071,0.0,-1.7541,0.0,0.0,0.0,0.0,0.0,0.0,-2.004,-1.9639,-1.988,-2.0347,0.0,0.0,-2.3527,-2.3768,-2.4703,-2.5117,-2.493,-2.5211,-2.5504,-2.5798,-2.5905,-2.4982,-2.314,-2.314,-2.1523,-1.8933,-2.1845,-2.2659,-2.2189,-2.5282,-2.6667,-2.6707,-2.7108,-2.7375,-2.7575,-2.7883,-2.8056,-2.8136,-2.8136,-2.8136,-2.8136,-2.8136,-2.8136,-2.7617,-2.4679,-2.2492,-2.086,-1.8964,-1.845,-1.9364,-2.2826,-2.5003,-2.6785,-2.9362,-2.9913,-2.9913,-2.9913,-2.9993,-3.0074,-3.0074,-2.8911,-2.8565,-3.0544,-2.9615,-2.9231,-3.1155,-3.1129,-3.0982,-3.1089,-3.0675,-3.0434,-3.0648,-3.0555,-3.0327,-2.9953,-2.9913,-2.9913,-2.9913,-2.9913,-2.9913,-2.9913,-2.9913,-3.002,-3.0221,-3.002,-3.002,-3.0221,-3.002,-2.9913,-2.9913,-2.9913,-2.9913]}]]